[[{"header":{"parameterUnit":"m.s-1","parameterCategory":1,"la1":31.0,"la2":29.5877,"lo1":-88.7671,"lo2":-86.6584,"dy":0.0162,"dx":0.0185,"nx":115,"ny":88,"refTime":"2023-07-26T12:00:00:Z","depth":0,"parameterNumber":2,"parameterNumberName":"U-component_of_WINDS"},"data":[0.0,0.0,0.0,0.0,0.0,0.0,0.0,0.0,0.0,0.0,0.0,0.0,0.0,0.0,0.0,0.0,0.0,0.0,0.0,0.0,0.0,0.0,0.0,0.0,0.0,0.0,0.0,0.0,0.0,0.0,0.0,0.0,0.0,0.0,0.0,0.0,0.0,0.0,0.0,0.0,0.0,0.0,0.0,0.0,0.0,0.0,0.0,0.0,0.0,0.0,0.0,0.0,0.0,0.0,0.0,0.0,0.0,0.0,0.0,0.0,0.0,0.0,0.0,0.0,0.0,0.0,0.0,0.0,0.0,0.0,0.0,0.0,0.0,0.0,0.0,0.0,0.0,0.0,0.0,0.0,0.0,0.0,0.0,0.0,0.0,0.0,0.0,0.0,0.0,0.0,0.0,0.0,0.0,0.0,0.0,0.0,0.0,0.0,0.0,0.0,0.0,0.0,0.0,0.0,0.0,0.0,0.0,0.0,0.0,0.0,0.0,0.0,0.0,0.0,0.0,0.0,0.0,0.0,0.0,0.0,0.0,0.0,0.0,0.0,0.0,0.0,0.0,0.0,0.0,0.0,0.0,0.0,0.0,0.0,0.0,0.0,0.0,0.0,0.0,0.0,0.0,0.0,0.0,0.0,0.0,0.0,0.0,0.0,0.0,0.0,0.0,0.0,0.0,0.0,0.0,0.0,0.0,0.0,0.0,0.0,0.0,0.0,0.0,0.0,0.0,0.0,0.0,0.0,0.0,0.0,0.0,0.0,0.0,0.0,0.0,0.0,0.0,0.0,0.0,0.0,0.0,0.0,0.0,0.0,0.0,0.0,0.0,0.0,0.0,0.0,0.0,0.0,0.0,0.0,0.0,0.0,0.0,0.0,0.0,0.0,0.0,0.0,0.0,0.0,0.0,0.0,0.0,0.0,0.0,0.0,0.0,0.0,0.0,0.0,0.0,0.0,0.0,0.0,0.0,0.0,0.0,0.0,0.0,0.0,0.0,0.0,0.0,0.0,0.0,0.0,0.0,0.0,0.0,0.0,0.0,0.0,0.0,0.0,0.0,0.0,0.0,0.0,0.0,0.0,0.0,0.0,0.0,0.0,0.0,0.0,0.0,0.0,0.0,0.0,0.0,0.0,0.0,0.0,0.0,0.0,0.0,0.0,0.0,0.0,0.0,0.0,0.0,0.0,0.0,0.0,0.0,0.0,0.0,0.0,0.0,0.0,0.0,0.0,0.0,0.0,0.0,0.0,0.0,0.0,0.0,0.0,0.0,0.0,0.0,0.0,0.0,0.0,0.0,0.0,0.0,0.0,0.0,0.0,0.0,0.0,0.0,0.0,0.0,0.0,0.0,0.0,0.0,0.0,0.0,0.0,0.0,0.0,0.0,0.0,0.0,0.0,0.0,0.0,0.0,0.0,0.0,0.0,0.0,0.0,0.0,0.0,0.0,0.0,0.0,0.0,0.0,0.0,0.0,0.0,0.0,0.0,0.0,0.0,0.0,0.0,0.0,0.0,0.0,0.0,0.0,0.0,0.0,0.0,0.0,0.0,0.0,0.0,0.0,0.0,0.0,0.0,0.0,0.0,0.0,0.0,0.0,0.0,0.0,0.0,0.0,0.0,0.0,0.0,0.0,0.0,0.0,0.0,0.0,0.0,0.0,0.0,0.0,0.0,0.0,0.0,0.0,0.0,0.0,0.0,0.0,0.0,0.0,0.0,0.0,0.0,0.0,0.0,0.0,0.0,0.0,0.0,0.0,0.0,0.0,0.0,0.0,0.0,0.0,0.0,0.0,0.0,0.0,0.0,0.0,0.0,0.0,0.0,0.0,0.0,0.0,0.0,0.0,0.0,0.0,0.0,0.0,0.0,0.0,0.0,0.0,0.0,0.0,0.0,0.0,0.0,0.0,0.0,0.0,0.0,0.0,0.0,0.0,0.0,0.0,0.0,0.0,0.0,0.0,0.0,0.0,0.0,0.0,0.0,0.0,0.0,0.0,0.0,0.0,0.0,0.0,0.0,0.0,0.0,0.0,0.0,0.0,0.0,0.0,0.0,0.0,0.0,0.0,0.0,0.0,0.0,0.0,0.0,0.0,0.0,0.0,0.0,0.0,0.0,0.0,0.0,0.0,0.0,0.0,0.0,0.0,0.0,0.0,0.0,0.0,0.0,0.0,0.0,0.0,0.0,0.0,0.0,0.0,0.0,0.0,0.0,0.0,0.0,0.0,0.0,0.0,0.0,0.0,0.0,0.0,0.0,0.0,0.0,0.0,0.0,0.0,0.0,0.0,0.0,0.0,0.0,0.0,0.0,0.0,0.0,0.0,0.0,0.0,0.0,0.0,0.0,0.0,0.0,0.0,0.0,0.0,0.0,0.0,0.0,0.0,0.0,0.0,0.0,0.0,0.0,0.0,0.0,0.0,0.0,0.0,0.0,0.0,0.0,0.0,0.0,0.0,0.0,0.0,0.0,0.0,0.0,0.0,0.0,0.0,0.0,0.0,0.0,0.0,0.0,0.0,0.0,0.0,0.0,0.0,0.0,0.0,0.0,0.0,0.0,0.0,0.0,0.0,0.0,0.0,0.0,0.0,0.0,0.0,0.0,0.0,0.0,0.0,0.0,0.0,0.0,0.0,0.0,0.0,0.0,0.0,0.0,0.0,0.0,0.0,0.0,0.0,0.0,0.0,0.0,0.0,0.0,0.0,0.0,0.0,0.0,0.0,0.0,0.0,0.0,0.0,0.0,0.0,0.0,0.0,0.0,0.0,0.0,0.0,0.0,0.0,0.0,0.0,0.0,0.0,0.0,0.0,0.0,0.0,0.0,0.0,0.0,0.0,0.0,0.0,0.0,0.0,0.0,0.0,0.0,0.0,0.0,0.0,0.0,0.0,0.0,0.0,0.0,0.0,0.0,0.0,0.0,0.0,0.0,0.0,0.0,0.0,0.0,0.0,0.0,0.0,0.0,0.0,0.0,0.0,0.0,0.0,0.0,0.0,0.0,0.0,0.0,0.0,0.0,0.0,0.0,0.0,0.0,0.0,0.0,0.0,0.0,0.0,0.0,0.0,0.0,0.0,0.0,0.0,0.0,0.0,0.0,0.0,0.0,0.0,0.0,0.0,0.0,0.0,0.0,0.0,0.0,0.0,0.0,0.0,0.0,0.0,0.0,0.0,0.0,0.0,0.0,0.0,0.0,0.0,0.0,0.0,0.0,0.0,0.0,0.0,0.0,0.0,0.0,0.0,0.0,0.0,0.0,0.0,0.0,0.0,0.0,0.0,0.0,0.0,0.0,0.0,0.0,0.0,0.0,0.0,0.0,0.0,0.0,0.0,0.0,0.0,0.0,0.0,0.0,0.0,0.0,0.0,0.0,0.0,0.0,0.0,0.0,0.0,0.0,0.0,0.0,0.0,0.0,0.0,0.0,0.0,0.0,0.0,0.0,0.0,0.0,0.0,0.0,0.0,0.0,0.0,0.0,0.0,0.0,0.0,0.0,0.0,0.0,0.0,0.0,0.0,0.0,0.0,0.0,0.0,0.0,0.0,0.0,0.0,0.0,0.0,0.0,0.0,0.0,0.0,0.0,0.0,0.0,0.0,0.0,0.0,0.0,0.0,0.0,0.0,0.0,0.0,0.0,0.0,0.0,0.0,0.0,0.0,0.0,0.0,0.0,0.0,0.0,0.0,0.0,0.0,0.0,0.0,0.0,0.0,0.0,0.0,0.0,0.0,0.0,0.0,0.0,0.0,0.0,0.0,0.0,0.0,0.0,0.0,0.0,0.0,0.0,0.0,0.0,0.0,0.0,0.0,0.0,0.0,0.0,0.0,0.0,0.0,0.0,0.0,0.0,0.0,0.0,0.0,0.0,0.0,0.0,0.0,0.0,0.0,0.0,0.0,0.0,0.0,0.0,0.0,0.0,0.0,0.0,0.0,0.0,0.0,0.0,0.0,0.0,0.0,0.0,0.0,0.0,0.0,0.0,0.0,0.0,0.0,0.0,0.0,0.0,0.0,0.0,0.0,0.0,0.0,0.0,0.0,0.0,0.0,0.0,0.0,0.0,0.0,0.0,0.0,0.0,0.0,0.0,0.0,0.0,0.0,0.0,0.0,0.0,0.0,0.0,0.0,0.0,0.0,0.0,0.0,0.0,0.0,0.0,0.0,0.0,0.0,0.0,0.0,0.0,0.0,0.0,0.0,0.0,0.0,0.0,0.0,0.0,0.0,0.0,0.0,0.0,0.0,0.0,0.0,0.0,2.5639,0.0,0.0,0.0,2.5511,0.0,0.0,0.0,0.0,0.0,0.0,0.0,0.0,0.0,0.0,0.0,0.0,0.0,0.0,0.0,0.0,0.0,0.0,0.0,0.0,0.0,0.0,0.0,0.0,0.0,0.0,0.0,0.0,0.0,0.0,0.0,0.0,0.0,0.0,0.0,0.0,0.0,0.0,0.0,0.0,0.0,0.0,0.0,0.0,0.0,0.0,0.0,0.0,0.0,0.0,0.0,0.0,0.0,0.0,0.0,0.0,0.0,0.0,0.0,0.0,0.0,0.0,0.0,0.0,0.0,0.0,0.0,0.0,0.0,0.0,0.0,0.0,0.0,0.0,0.0,0.0,0.0,0.0,0.0,0.0,0.0,0.0,0.0,0.0,0.0,0.0,0.0,0.0,0.0,0.0,0.0,0.0,0.0,0.0,0.0,0.0,0.0,0.0,0.0,0.0,0.0,0.0,0.0,0.0,0.0,0.0,0.0,0.0,0.0,0.0,2.56,2.5644,2.5538,2.5437,2.5271,0.0,0.0,0.0,0.0,0.0,0.0,0.0,0.0,0.0,0.0,0.0,0.0,0.0,0.0,0.0,0.0,0.0,0.0,0.0,0.0,0.0,0.0,0.0,0.0,0.0,0.0,0.0,0.0,0.0,0.0,0.0,0.0,0.0,0.0,0.0,0.0,0.0,0.0,0.0,0.0,0.0,0.0,0.0,0.0,0.0,0.0,0.0,0.0,0.0,0.0,0.0,0.0,0.0,0.0,0.0,0.0,0.0,0.0,0.0,0.0,0.0,0.0,0.0,0.0,0.0,0.0,0.0,0.0,0.0,0.0,0.0,0.0,0.0,0.0,0.0,0.0,0.0,0.0,0.0,0.0,0.0,0.0,0.0,0.0,0.0,0.0,0.0,0.0,0.0,0.0,0.0,0.0,0.0,0.0,0.0,0.0,0.0,0.0,0.0,0.0,0.0,0.0,0.0,0.0,0.0,0.0,0.0,0.0,0.0,0.0,0.0,0.0,2.5369,2.4973,2.4393,0.0,0.0,0.0,0.0,0.0,0.0,0.0,0.0,0.0,0.0,0.0,0.0,0.0,0.0,0.0,0.0,0.0,0.0,0.0,0.0,0.0,0.0,0.0,0.0,0.0,0.0,0.0,0.0,0.0,0.0,0.0,0.0,0.0,0.0,0.0,0.0,0.0,0.0,0.0,0.0,0.0,0.0,0.0,0.0,0.0,0.0,0.0,0.0,0.0,0.0,0.0,0.0,0.0,0.0,0.0,0.0,0.0,0.0,0.0,0.0,0.0,0.0,0.0,0.0,0.0,0.0,0.0,0.0,0.0,0.0,0.0,0.0,0.0,0.0,0.0,0.0,0.0,0.0,0.0,0.0,0.0,0.0,0.0,0.0,0.0,0.0,0.0,0.0,0.0,0.0,0.0,0.0,0.0,0.0,0.0,0.0,0.0,0.0,0.0,0.0,0.0,0.0,0.0,0.0,0.0,0.0,0.0,0.0,0.0,0.0,2.5437,2.5413,2.4706,0.0,2.2248,0.0,0.0,0.0,0.0,0.0,0.0,0.0,0.0,0.0,0.0,0.0,0.0,0.0,0.0,0.0,0.0,0.0,0.0,0.0,0.0,0.0,0.0,0.0,0.0,0.0,0.0,0.0,0.0,0.0,0.0,0.0,0.0,0.0,0.0,0.0,0.0,0.0,0.0,0.0,0.0,0.0,0.0,0.0,0.0,0.0,0.0,0.0,0.0,0.0,0.0,0.0,0.0,0.0,0.0,0.0,0.0,0.0,0.0,0.0,0.0,0.0,0.0,0.0,0.0,0.0,0.0,0.0,0.0,0.0,0.0,0.0,0.0,0.0,0.0,0.0,0.0,0.0,0.0,0.0,0.0,0.0,0.0,0.0,0.0,0.0,0.0,0.0,0.0,0.0,0.0,0.0,0.0,0.0,0.0,0.0,0.0,0.0,0.0,0.0,0.0,0.0,0.0,0.0,0.0,0.0,0.0,0.0,0.0,0.0,0.0,1.1603,1.2182,1.2581,1.3119,0.0,0.0,0.0,0.0,0.0,0.0,0.0,0.0,0.0,0.0,0.0,0.0,0.0,0.0,0.0,0.0,0.0,0.0,0.0,0.0,0.0,0.0,0.0,0.0,0.0,0.0,0.0,0.0,0.0,0.0,0.0,0.0,0.0,0.0,0.0,0.0,0.0,0.0,0.0,0.0,0.0,0.0,0.0,0.0,0.0,0.0,0.0,0.0,0.0,0.0,0.0,0.0,0.0,0.0,0.0,0.0,0.0,0.0,0.0,0.0,0.0,0.0,0.0,0.0,0.0,0.0,0.0,0.0,0.0,0.0,0.0,0.0,0.0,0.0,0.0,0.0,0.0,0.0,0.0,0.0,0.0,0.0,0.0,0.0,0.0,0.0,0.0,0.0,0.0,0.0,0.0,0.0,0.0,0.0,0.0,0.0,0.0,0.0,0.0,0.0,0.0,0.0,0.0,0.0,0.0,0.0,0.0,0.0,0.0,0.0,0.1008,-0.1993,0.2381,0.3326,0.4666,0.6721,0.0,0.0,0.0,0.0,0.0,0.0,0.0,0.0,0.0,0.0,0.0,0.0,0.0,0.0,0.0,0.0,0.0,0.0,0.0,0.0,0.0,0.0,0.0,0.0,0.0,0.0,0.0,0.0,0.0,0.0,0.0,0.0,0.0,0.0,0.0,0.0,0.0,0.0,0.0,0.0,0.0,0.0,0.0,0.0,0.0,0.0,0.0,0.0,0.0,0.0,0.0,0.0,0.0,0.0,0.0,0.0,0.0,0.0,0.0,0.0,0.0,0.0,0.0,0.0,0.0,0.0,0.0,0.0,0.0,0.0,0.0,0.0,0.0,0.0,0.0,0.0,0.0,0.0,0.0,0.0,0.0,0.0,0.0,0.0,0.0,0.0,0.0,0.0,0.0,0.0,0.0,0.0,0.0,0.0,0.0,0.0,0.0,0.0,0.0,0.0,0.0,0.0,0.0,0.0,0.0,0.0,0.0,0.0,0.453,-1.0523,-1.2147,0.0656,0.1094,0.1662,0.0,0.0,0.0,0.0,0.0,0.0,0.0,0.0,0.0,0.0,0.0,0.0,0.0,0.0,0.0,0.0,0.0,0.0,0.0,0.0,0.0,0.0,0.0,0.0,0.0,0.0,0.0,0.0,0.0,0.0,0.0,0.0,0.0,0.0,0.0,0.0,0.0,0.0,0.0,0.0,0.0,0.0,0.0,0.0,0.0,0.0,0.0,0.0,0.0,0.0,0.0,0.0,0.0,0.0,0.0,0.0,0.0,0.0,0.0,0.0,0.0,0.0,0.0,0.0,0.0,0.0,0.0,0.0,0.0,0.0,0.0,0.0,0.0,0.0,0.0,0.0,0.0,0.0,0.0,0.0,0.0,0.0,0.0,0.0,0.0,0.0,0.0,0.0,0.0,0.0,0.0,0.0,0.0,0.0,0.0,0.0,0.0,0.0,0.0,0.0,0.0,0.0,0.0,0.0,0.0,0.0,0.0,0.0,0.0,-0.368,-1.3891,-1.7117,-1.2526,-1.1148,-0.9229,0.0,0.0,0.0,0.0,0.0,0.0,0.0,0.0,0.0,0.0,0.0,0.0,0.0,0.0,0.0,0.0,0.0,0.0,0.0,0.0,0.0,0.0,0.0,0.0,0.0,0.0,0.0,0.0,0.0,0.0,0.0,0.0,0.0,0.0,0.0,0.0,0.0,0.0,0.0,0.0,0.0,0.0,0.0,0.0,0.0,0.0,0.0,0.0,0.0,0.0,0.0,0.0,0.0,0.0,0.0,0.0,0.0,0.0,0.0,0.0,0.0,0.0,0.0,0.0,0.0,0.0,0.0,0.0,0.0,0.0,0.0,0.0,0.0,0.0,0.0,0.0,0.0,0.0,0.0,0.0,0.0,0.0,0.0,0.0,0.0,0.0,0.0,0.0,0.0,0.0,0.0,0.0,0.0,0.0,0.0,0.0,0.0,0.0,0.0,0.0,0.0,0.0,0.0,0.0,0.0,0.0,0.0,0.0,0.0,-1.1995,0.0,-1.9507,-2.0141,-1.838,-1.5932,0.0,0.0,0.0,0.0,0.0,0.0,0.0,0.0,0.0,0.0,0.0,0.0,0.0,0.0,0.0,0.0,0.0,0.0,0.0,0.0,0.0,0.0,0.0,0.0,0.0,0.0,0.0,0.0,0.0,0.0,0.0,0.0,0.0,0.0,0.0,0.0,0.0,0.0,0.0,0.0,0.0,0.0,0.0,0.0,0.0,0.0,0.0,0.0,0.0,0.0,0.0,0.0,0.0,0.0,0.0,0.0,0.0,0.0,0.0,0.0,0.0,0.0,0.0,0.0,0.0,0.0,0.0,0.0,0.0,0.0,0.0,0.0,0.0,0.0,0.0,0.0,0.0,0.0,0.0,0.0,0.0,0.0,0.0,0.0,0.0,0.0,0.0,0.0,0.0,0.0,0.0,0.0,0.0,0.0,0.0,0.0,0.0,0.0,0.0,0.0,0.0,0.0,0.0,0.0,0.0,0.0,0.0,0.0,-1.5389,-2.008,-1.9624,-1.972,-2.052,-1.9141,-1.7343,0.0,0.0,0.0,0.0,0.0,0.0,0.0,0.0,0.0,0.0,0.0,0.0,0.0,0.0,0.0,0.0,0.0,0.0,0.0,0.0,0.0,0.0,0.0,0.0,0.0,0.0,0.0,0.0,0.0,0.0,0.0,0.0,0.0,0.0,0.0,0.0,0.0,0.0,0.0,0.0,0.0,0.0,0.0,0.0,0.0,0.0,0.0,0.0,0.0,0.0,0.0,0.0,0.0,0.0,0.0,0.0,0.0,0.0,0.0,0.0,0.0,0.0,0.0,0.0,0.0,0.0,0.0,0.0,0.0,0.0,0.0,0.0,0.0,0.0,0.0,0.0,0.0,0.0,0.0,0.0,0.0,0.0,0.0,0.0,0.0,0.0,0.0,0.0,0.0,0.0,0.0,0.0,0.0,0.0,0.0,0.0,0.0,0.0,0.0,0.0,0.0,0.0,0.0,0.0,0.0,0.0,0.0,0.0,0.0,-1.9834,-1.9975,-2.0247,-2.0732,-1.9519,-1.8018,0.0,0.0,0.0,0.0,0.0,0.0,0.0,0.0,0.0,0.0,0.0,0.0,0.0,0.0,0.0,0.0,0.0,0.0,0.0,0.0,0.0,0.0,0.0,0.0,0.0,0.0,0.0,0.0,0.0,0.0,0.0,0.0,0.0,0.0,0.0,0.0,0.0,0.0,0.0,0.0,0.0,0.0,0.0,0.0,0.0,0.0,0.0,0.0,0.0,0.0,0.0,0.0,0.0,0.0,0.0,0.0,0.0,0.0,0.0,0.0,0.0,0.0,0.0,0.0,0.0,0.0,0.0,0.0,0.0,0.0,0.0,0.0,0.0,0.0,0.0,0.0,0.0,0.0,0.0,0.0,0.0,0.0,0.0,0.0,0.0,0.0,0.0,0.0,0.0,0.0,0.0,0.0,0.0,0.0,0.0,0.0,0.0,0.0,0.0,0.0,0.0,0.0,0.0,0.0,0.0,0.0,0.0,0.0,0.0,-2.0751,-2.0972,-2.1278,-2.1824,-2.0576,-1.8995,-1.7057,0.0,0.0,0.0,0.0,0.0,0.0,0.0,0.0,0.0,0.0,0.0,0.0,0.0,0.0,0.0,0.0,0.0,0.0,0.0,0.0,0.0,0.0,0.0,0.0,0.0,0.0,0.0,0.0,0.0,0.0,0.0,0.0,0.0,0.0,0.0,0.0,0.0,0.0,0.0,0.0,0.0,0.0,0.0,0.0,0.0,0.0,0.0,0.0,0.0,0.0,0.0,0.0,0.0,0.0,0.0,0.0,0.0,0.0,0.0,0.0,0.0,0.0,0.0,0.0,0.0,0.0,0.0,0.0,0.0,0.0,0.0,0.0,0.0,0.0,0.0,0.0,0.0,0.0,0.0,0.0,0.0,0.0,0.0,0.0,0.0,0.0,0.0,0.0,0.0,0.0,0.0,0.0,0.0,0.0,0.0,0.0,0.0,0.0,0.0,0.0,0.0,0.0,0.0,0.0,0.0,0.0,0.0,0.0,-2.2785,-2.2637,-2.2876,-2.3412,-2.2102,-2.0186,0.0,0.0,0.0,0.0,0.0,0.0,0.0,0.0,0.0,0.0,0.0,0.0,0.0,0.0,0.0,0.0,0.0,0.0,0.0,0.0,0.0,0.0,0.0,0.0,0.0,0.0,0.0,0.0,0.0,0.0,0.0,0.0,0.0,0.0,0.0,0.0,0.0,0.0,0.0,0.0,0.0,0.0,0.0,0.0,0.0,0.0,0.0,0.0,0.0,0.0,0.0,0.0,0.0,0.0,0.0,0.0,0.0,0.0,0.0,0.0,0.0,0.0,0.0,0.0,0.0,0.0,0.0,0.0,0.0,0.0,0.0,0.0,0.0,0.0,0.0,0.0,0.0,0.0,0.0,0.0,0.0,0.0,0.0,0.0,0.0,0.0,0.0,0.0,0.0,0.0,0.0,0.0,0.0,0.0,0.0,0.0,0.0,0.0,0.0,0.0,0.0,0.0,0.0,0.0,0.0,0.0,0.0,0.0,0.0,-2.5122,-2.5707,-2.5425,-2.4241,-2.2364,-2.0604,0.0,0.0,0.0,0.0,0.0,0.0,0.0,0.0,0.0,0.0,0.0,0.0,0.0,0.0,0.0,0.0,0.0,0.0,0.0,0.0,0.0,0.0,0.0,0.0,0.0,0.0,0.0,0.0,0.0,0.0,0.0,0.0,0.0,0.0,0.0,0.0,0.0,0.0,0.0,0.0,0.0,0.0,0.0,0.0,0.0,0.0,0.0,0.0,0.0,0.0,0.0,0.0,0.0,0.0,0.0,0.0,0.0,0.0,0.0,0.0,0.0,0.0,0.0,0.0,0.0,0.0,0.0,0.0,0.0,0.0,0.0,0.0,0.0,0.0,0.0,0.0,0.0,0.0,0.0,0.0,0.0,0.0,0.0,0.0,0.0,0.0,0.0,0.0,0.0,0.0,0.0,0.0,0.0,0.0,0.0,0.0,0.0,0.0,0.0,0.0,0.0,0.0,0.0,0.0,0.0,0.0,0.0,0.0,-2.4541,-2.622,-2.7451,-2.7391,-2.598,-2.3513,-2.1254,0.0,0.0,0.0,0.0,0.0,0.0,0.0,0.0,0.0,0.0,0.0,0.0,0.0,0.0,0.0,0.0,0.0,0.0,0.0,0.0,0.0,0.0,0.0,0.0,0.0,0.0,0.0,0.0,0.0,0.0,0.0,0.0,0.0,0.0,0.0,0.0,0.0,0.0,0.0,0.0,0.0,0.0,0.0,0.0,0.0,0.0,0.0,0.0,0.0,0.0,0.0,0.0,0.0,0.0,0.0,0.0,0.0,0.0,0.0,0.0,0.0,0.0,0.0,0.0,0.0,0.0,0.0,0.0,0.0,0.0,0.0,0.0,0.0,0.0,0.0,0.0,0.0,0.0,0.0,0.0,0.0,0.0,0.0,0.0,0.0,0.0,0.0,0.0,0.0,0.0,0.0,0.0,0.0,0.0,0.0,0.0,0.0,0.0,0.0,0.0,0.0,0.0,0.0,0.0,0.0,0.0,0.0,0.0,-2.6091,-2.6591,-2.8263,-2.8779,-2.7871,-2.4925,-2.2103,0.0,0.0,0.0,0.0,0.0,0.0,0.0,0.0,0.0,0.0,0.0,0.0,0.0,0.0,0.0,0.0,0.0,0.0,0.0,0.0,0.0,0.0,0.0,0.0,0.0,0.0,0.0,0.0,0.0,0.0,0.0,0.0,0.0,0.0,0.0,0.0,0.0,0.0,0.0,0.0,0.0,0.0,0.0,0.0,0.0,0.0,0.0,0.0,0.0,0.0,0.0,0.0,0.0,0.0,0.0,0.0,0.0,0.0,0.0,0.0,0.0,0.0,0.0,0.0,0.0,0.0,0.0,0.0,0.0,0.0,0.0,0.0,0.0,0.0,0.0,0.0,0.0,0.0,0.0,0.0,0.0,0.0,0.0,0.0,0.0,0.0,0.0,0.0,0.0,0.0,0.0,0.0,0.0,0.0,0.0,0.0,0.0,0.0,0.0,0.0,0.0,0.0,0.0,0.0,0.0,0.0,0.0,0.0,-2.6199,-2.7662,-2.861,-2.8748,-2.7898,-2.5091,-2.2593,0.0,0.0,0.0,0.0,0.0,0.0,0.0,0.0,0.0,0.0,0.0,0.0,0.0,0.0,0.0,0.0,0.0,0.0,0.0,0.0,0.0,0.0,0.0,0.0,0.0,0.0,0.0,0.0,0.0,0.0,0.0,0.0,0.0,0.0,0.0,0.0,0.0,0.0,0.0,0.0,0.0,0.0,0.0,0.0,0.0,0.0,0.0,0.0,-0.8771,0.0,0.0,0.0,0.0,0.0,0.0,0.0,0.0,0.0,0.0,0.0,0.0,0.0,0.0,0.0,0.0,0.0,0.0,0.0,0.0,0.0,0.0,0.0,0.0,0.0,0.0,0.0,0.0,0.0,0.0,0.0,0.0,0.0,0.0,0.0,0.0,0.0,0.0,0.0,0.0,0.0,0.0,0.0,0.0,0.0,0.0,0.0,0.0,0.0,0.0,0.0,0.0,0.0,0.0,0.0,0.0,0.0,0.0,0.0,-2.6324,-2.8017,-2.8598,-2.8511,-2.7853,-2.583,-2.3504,0.0,0.0,0.0,0.0,0.0,0.0,0.0,0.0,0.0,0.0,0.0,0.0,0.0,0.0,0.0,0.0,0.0,0.0,0.0,0.0,0.0,0.0,0.0,0.0,0.0,0.0,0.0,0.0,0.0,0.0,0.0,0.0,0.0,0.0,0.0,0.0,0.0,0.0,0.0,0.0,0.0,0.0,0.0,0.0,0.0,0.0,0.0,0.0,0.0,0.0,0.0,0.0,0.0,0.0,0.0,0.0,0.0,0.0,0.0,0.0,0.0,0.0,0.0,0.0,0.0,0.0,0.0,0.0,0.0,0.0,0.0,0.0,0.0,0.0,0.0,0.0,0.0,0.0,0.0,0.0,0.0,0.0,0.0,0.0,0.0,0.0,0.0,0.0,0.0,0.0,0.0,0.0,0.0,0.0,0.0,0.0,0.0,0.0,0.0,0.0,0.0,0.0,0.0,0.0,0.0,0.0,0.0,-2.5277,-2.6583,-2.8363,-2.856,-2.8367,-2.7898,-2.6723,-2.4447,-2.0993,0.0,0.0,0.0,0.0,0.0,0.0,0.0,0.0,0.0,0.0,0.0,0.0,0.0,0.0,0.0,0.0,0.0,0.0,0.0,0.0,0.0,0.0,0.0,0.0,0.0,0.0,0.0,0.0,0.0,0.0,0.0,0.0,0.0,0.0,0.0,0.0,0.0,0.0,-0.6578,-0.9767,0.0,0.0,0.0,0.0,0.0,0.0,0.0,0.0,-1.3265,0.0,0.0,0.0,0.0,0.0,0.0,0.0,0.0,0.0,0.0,0.0,0.0,0.0,0.0,0.0,0.0,0.0,0.0,0.0,0.0,0.0,0.0,0.0,0.0,0.0,0.0,0.0,0.0,0.0,0.0,0.0,0.0,0.0,0.0,0.0,0.0,0.0,0.0,0.0,0.0,0.0,0.0,0.0,0.0,0.0,0.0,0.0,0.0,0.0,0.0,0.0,0.0,0.0,0.0,0.0,0.0,-2.5615,-2.6156,-2.7429,-2.9479,-2.918,-2.8669,-2.7883,-2.689,-2.4601,-2.1082,0.0,0.0,0.0,0.0,0.0,0.0,0.0,0.0,0.0,0.0,0.0,0.0,0.0,0.0,0.0,0.0,0.0,0.0,0.0,0.0,0.0,0.0,0.0,0.0,0.0,0.0,0.0,0.0,0.0,0.0,0.0,0.0,0.0,0.0,0.0,0.0,0.0,0.0,0.0,-1.5164,-1.5713,0.0,0.0,0.0,0.0,0.0,0.0,0.0,0.0,-1.5581,0.0,0.0,0.0,0.0,0.0,0.0,0.0,0.0,0.0,0.0,0.0,0.0,0.0,0.0,0.0,0.0,0.0,0.0,0.0,0.0,0.0,0.0,0.0,0.0,0.0,0.0,0.0,0.0,0.0,0.0,0.0,0.0,0.0,0.0,0.0,0.0,0.0,0.0,0.0,0.0,0.0,0.0,0.0,0.0,0.0,0.0,0.0,0.0,0.0,0.0,0.0,0.0,0.0,0.0,0.0,-2.5406,-2.6455,-2.7769,-2.9345,-2.9198,-2.8732,-2.7947,-2.6939,-2.465,0.0,0.0,0.0,0.0,0.0,0.0,0.0,0.0,0.0,0.0,0.0,0.0,0.0,0.0,0.0,0.0,0.0,0.0,0.0,0.0,0.0,0.0,0.0,0.0,0.0,0.0,0.0,0.0,0.0,0.0,0.0,0.0,0.0,0.0,0.0,0.0,0.0,0.0,0.0,0.0,-1.9042,-1.9071,-2.011,0.0,0.0,0.0,0.0,0.0,0.0,-1.7203,-1.7059,0.0,0.0,0.0,0.0,0.0,0.0,0.0,0.0,0.0,0.0,0.0,0.0,0.0,0.0,0.0,0.0,0.0,0.0,0.0,0.0,0.0,0.0,0.0,0.0,0.0,0.0,0.0,0.0,0.0,0.0,0.0,0.0,0.0,0.0,0.0,0.0,0.0,0.0,0.0,0.0,0.0,0.0,0.0,0.0,0.0,0.0,0.0,0.0,0.0,0.0,0.0,0.0,0.0,0.0,0.0,-2.51,-2.6691,-2.8049,-2.9058,-2.9029,-2.8622,-2.7898,-2.6643,-2.4373,0.0,0.0,0.0,0.0,0.0,0.0,0.0,0.0,0.0,0.0,0.0,0.0,0.0,0.0,0.0,0.0,0.0,0.0,0.0,0.0,0.0,0.0,0.0,0.0,0.0,0.0,0.0,0.0,0.0,0.0,0.0,0.0,0.0,0.0,0.0,0.0,0.0,0.0,0.0,0.0,0.0,-2.1837,-2.2983,-2.135,0.0,0.0,0.0,0.0,-1.903,-1.8663,0.0,0.0,0.0,0.0,0.0,0.0,0.0,0.0,0.0,0.0,0.0,0.0,0.0,0.0,0.0,0.0,0.0,0.0,0.0,0.0,0.0,0.0,0.0,0.0,0.0,0.0,0.0,0.0,0.0,0.0,0.0,0.0,0.0,0.0,0.0,0.0,0.0,0.0,0.0,0.0,0.0,0.0,0.0,0.0,0.0,0.0,0.0,0.0,0.0,0.0,0.0,0.0,0.0,0.0,0.0,0.0,-2.5147,-2.7185,-2.8526,-2.9044,-2.8716,-2.8352,-2.7883,-2.5751,-2.3385,0.0,0.0,0.0,0.0,0.0,0.0,0.0,0.0,0.0,0.0,0.0,0.0,0.0,0.0,0.0,0.0,0.0,0.0,0.0,0.0,0.0,0.0,0.0,0.0,0.0,0.0,0.0,0.0,0.0,0.0,0.0,0.0,0.0,0.0,0.0,0.0,0.0,0.0,0.0,0.0,0.0,-2.2948,-2.3696,-2.2425,-2.1277,0.0,0.0,-2.0787,-2.0204,-2.0239,0.0,0.0,0.0,0.0,0.0,0.0,0.0,0.0,0.0,0.0,0.0,0.0,0.0,0.0,0.0,0.0,0.0,0.0,0.0,0.0,0.0,0.0,0.0,0.0,0.0,0.0,0.0,0.0,0.0,0.0,0.0,0.0,0.0,0.0,0.0,0.0,0.0,0.0,0.0,0.0,0.0,0.0,0.0,0.0,0.0,0.0,0.0,0.0,0.0,0.0,0.0,0.0,0.0,0.0,0.0,-2.4776,-2.5541,-2.7664,-2.876,-2.8764,-2.8574,-2.8238,-2.7595,-2.5394,-2.3167,0.0,0.0,0.0,0.0,0.0,0.0,0.0,0.0,0.0,0.0,0.0,0.0,0.0,0.0,0.0,0.0,0.0,0.0,0.0,0.0,0.0,0.0,0.0,0.0,0.0,0.0,0.0,0.0,0.0,0.0,0.0,0.0,0.0,0.0,0.0,0.0,0.0,0.0,0.0,0.0,0.0,0.0,-2.417,-2.3354,0.0,0.0,0.0,-2.1856,-2.0949,0.0,0.0,0.0,0.0,0.0,0.0,0.0,0.0,0.0,0.0,0.0,0.0,0.0,0.0,0.0,0.0,0.0,0.0,0.0,0.0,0.0,0.0,0.0,0.0,0.0,0.0,0.0,0.0,0.0,0.0,0.0,0.0,0.0,0.0,0.0,0.0,0.0,0.0,0.0,0.0,0.0,0.0,0.0,0.0,0.0,0.0,0.0,0.0,0.0,0.0,0.0,0.0,0.0,0.0,0.0,0.0,0.0,-2.5827,-2.7913,-2.8811,-2.8511,-2.8334,-2.7894,-2.7188,-2.5197,0.0,0.0,0.0,0.0,0.0,0.0,0.0,0.0,0.0,0.0,0.0,0.0,0.0,0.0,0.0,0.0,0.0,0.0,0.0,0.0,0.0,0.0,0.0,0.0,0.0,0.0,0.0,-0.9146,0.0,0.0,0.0,0.0,0.0,0.0,0.0,0.0,0.0,0.0,0.0,0.0,0.0,0.0,-2.4834,-2.4476,-2.4253,-2.3875,0.0,0.0,-2.2612,-2.1937,-2.2325,-2.2279,0.0,0.0,0.0,0.0,0.0,0.0,0.0,0.0,0.0,0.0,0.0,0.0,0.0,0.0,0.0,0.0,0.0,0.0,0.0,0.0,0.0,0.0,0.0,0.0,0.0,0.0,0.0,0.0,0.0,0.0,0.0,0.0,0.0,0.0,0.0,0.0,0.0,0.0,0.0,0.0,0.0,0.0,0.0,0.0,0.0,0.0,0.0,0.0,0.0,0.0,0.0,0.0,0.0,0.0,-2.5004,-2.5905,-2.7641,-2.8511,-2.8463,-2.7825,-2.7203,-2.6558,-2.5084,-2.2936,0.0,0.0,0.0,0.0,0.0,0.0,0.0,0.0,0.0,0.0,0.0,0.0,0.0,0.0,0.0,0.0,0.0,0.0,0.0,0.0,0.0,0.0,0.0,0.0,0.0,0.0,0.0,0.0,0.0,0.0,0.0,0.0,0.0,0.0,0.0,0.0,0.0,0.0,0.0,0.0,0.0,-2.5158,-2.4673,-2.4861,-2.4986,0.0,-2.3714,-2.3115,-2.3466,-2.3,-2.2305,-2.1393,0.0,0.0,0.0,0.0,0.0,0.0,0.0,0.0,0.0,0.0,0.0,0.0,0.0,0.0,0.0,0.0,0.0,0.0,0.0,0.0,0.0,0.0,0.0,0.0,0.0,0.0,0.0,0.0,0.0,0.0,0.0,0.0,0.0,0.0,0.0,0.0,0.0,0.0,0.0,0.0,0.0,0.0,0.0,0.0,0.0,0.0,0.0,0.0,0.0,0.0,0.0,0.0,0.0,-2.504,-2.5949,-2.7612,-2.8071,-2.7255,-2.6912,-2.6205,-2.5075,-2.3723,-2.2018,0.0,0.0,0.0,0.0,0.0,0.0,0.0,0.0,0.0,0.0,0.0,0.0,0.0,0.0,0.0,0.0,0.0,0.0,0.0,0.0,0.0,0.0,0.0,0.0,0.0,0.0,0.0,0.0,-1.8366,-2.021,-2.2109,0.0,0.0,0.0,0.0,0.0,0.0,0.0,0.0,0.0,0.0,-2.4901,-2.4991,-2.4902,0.0,0.0,-2.438,-2.4028,-2.3366,-2.3577,-2.3231,-2.1457,-2.0941,0.0,0.0,0.0,0.0,0.0,0.0,0.0,0.0,0.0,0.0,0.0,0.0,0.0,0.0,0.0,0.0,0.0,0.0,0.0,0.0,0.0,0.0,0.0,0.0,0.0,0.0,0.0,0.0,0.0,0.0,0.0,0.0,0.0,0.0,0.0,0.0,0.0,0.0,0.0,0.0,0.0,0.0,0.0,0.0,0.0,0.0,0.0,0.0,0.0,0.0,0.0,0.0,-2.4759,-2.5667,-2.7115,-2.7306,-2.6143,-2.5997,-2.527,-2.3872,-2.3008,-2.1534,0.0,0.0,0.0,0.0,0.0,0.0,0.0,0.0,0.0,0.0,0.0,0.0,0.0,0.0,0.0,0.0,0.0,0.0,0.0,0.0,0.0,0.0,0.0,0.0,0.0,0.0,0.0,0.0,-2.0159,-2.1781,-2.2888,0.0,0.0,0.0,0.0,0.0,0.0,0.0,0.0,0.0,0.0,-2.5148,-2.5142,-2.4878,-2.4579,-2.4307,-2.4293,-2.4008,-2.3202,-2.3553,-2.3326,-2.1731,0.0,0.0,0.0,0.0,0.0,0.0,0.0,0.0,0.0,0.0,0.0,0.0,0.0,0.0,0.0,0.0,0.0,0.0,0.0,0.0,0.0,0.0,0.0,0.0,0.0,0.0,0.0,-1.4898,0.0,0.0,-1.344,0.0,0.0,0.0,0.0,0.0,0.0,0.0,0.0,0.0,0.0,0.0,0.0,0.0,0.0,0.0,0.0,0.0,0.0,0.0,0.0,0.0,0.0,-2.41,-2.4806,-2.5929,-2.6113,-2.5444,-2.5106,-2.4405,-2.3264,-2.3146,-2.1668,-1.8483,0.0,0.0,0.0,0.0,0.0,0.0,0.0,0.0,0.0,0.0,0.0,0.0,0.0,0.0,0.0,0.0,0.0,0.0,0.0,0.0,0.0,0.0,0.0,0.0,0.0,0.0,-1.8464,-2.0836,-2.2342,0.0,0.0,0.0,0.0,0.0,0.0,0.0,0.0,0.0,-2.4984,-2.5781,-2.5963,-2.4956,-2.4889,-2.4713,-2.404,-2.3321,-2.2938,-2.3148,-2.2738,-2.232,0.0,0.0,0.0,0.0,0.0,0.0,0.0,0.0,0.0,0.0,0.0,0.0,0.0,0.0,0.0,0.0,0.0,0.0,0.0,0.0,0.0,0.0,0.0,0.0,0.0,0.0,0.0,-1.5903,-1.576,0.0,0.0,0.0,0.0,0.0,0.0,0.0,0.0,0.0,0.0,0.0,-2.0039,-1.9976,0.0,0.0,0.0,0.0,0.0,0.0,0.0,0.0,0.0,0.0,0.0,0.0,-2.3405,-2.434,-2.5642,-2.5714,-2.4461,-2.4425,-2.3621,-2.2056,-2.1966,-2.0437,-1.7129,0.0,0.0,0.0,0.0,0.0,0.0,0.0,0.0,0.0,0.0,0.0,0.0,0.0,0.0,0.0,0.0,0.0,0.0,0.0,0.0,0.0,0.0,0.0,0.0,0.0,-1.8742,0.0,0.0,0.0,0.0,0.0,0.0,0.0,0.0,0.0,0.0,0.0,-2.4927,-2.5425,-2.4961,-2.4573,-2.465,-2.423,-2.4107,0.0,0.0,0.0,0.0,0.0,0.0,0.0,0.0,0.0,0.0,0.0,0.0,0.0,0.0,-2.1117,-2.1017,-2.1251,-2.1642,-2.2385,0.0,0.0,0.0,0.0,0.0,0.0,0.0,0.0,0.0,0.0,0.0,0.0,0.0,0.0,-1.6602,0.0,-1.5786,0.0,0.0,0.0,0.0,0.0,0.0,0.0,0.0,-1.9083,-1.9758,-2.0256,-2.0474,-2.0648,0.0,-2.0489,-2.0335,0.0,0.0,0.0,0.0,0.0,0.0,0.0,0.0,-2.2673,-2.3589,-2.4887,-2.4902,-2.3615,-2.3447,-2.2748,-2.1444,-2.0657,-1.901,-1.6352,-1.4972,-1.3449,0.0,0.0,0.0,0.0,0.0,0.0,0.0,0.0,0.0,0.0,0.0,0.0,0.0,0.0,0.0,0.0,0.0,0.0,0.0,0.0,0.0,0.0,0.0,-1.9939,0.0,0.0,0.0,0.0,0.0,0.0,0.0,0.0,0.0,-2.4627,-2.4912,-2.5258,-2.5757,-2.4872,-2.4224,-2.423,0.0,0.0,0.0,0.0,0.0,0.0,0.0,-2.227,-2.1812,-2.1875,-2.2081,-2.2444,-2.2286,-2.2211,-2.2415,0.0,0.0,-2.2062,-2.2379,-2.2871,-2.3437,-2.3644,-2.4119,-2.524,-2.5639,-2.5914,0.0,0.0,0.0,0.0,0.0,0.0,0.0,0.0,-1.7959,-1.7074,0.0,-1.6752,0.0,0.0,0.0,0.0,-1.5215,-1.6895,0.0,0.0,-2.0182,-2.0785,-2.04,-2.0949,-2.1332,-2.1463,-2.0943,-2.1112,-2.1733,-2.0539,0.0,0.0,0.0,0.0,0.0,0.0,-2.1851,-2.2569,-2.3627,-2.3734,-2.2886,-2.2225,-2.173,-2.1321,-1.9218,-1.7512,-1.6296,-1.4734,-1.357,-1.2755,-1.106,0.0,0.0,0.0,0.0,0.0,0.0,0.0,0.0,0.0,0.0,0.0,0.0,0.0,0.0,0.0,0.0,0.0,0.0,0.0,0.0,-1.9468,0.0,0.0,0.0,0.0,0.0,0.0,0.0,0.0,0.0,0.0,-2.4537,-2.5258,-2.5771,-2.5801,0.0,0.0,0.0,0.0,-2.3888,-2.283,-2.3132,-2.3128,-2.2188,-2.2353,-2.2495,-2.2182,0.0,0.0,-2.3036,-2.2737,-2.252,-2.2628,-2.3063,-2.3292,-2.3111,-2.3432,-2.3845,-2.3951,-2.4002,-2.4348,-2.5357,-2.5445,-2.5383,-2.5251,0.0,0.0,0.0,0.0,-1.9254,-1.9113,-1.967,-1.8742,-1.8291,-1.8224,-1.7564,0.0,0.0,0.0,0.0,0.0,0.0,-1.7528,-1.9094,-1.9907,-2.0461,-2.0905,-2.1101,-2.1163,-2.1206,-2.1084,-2.1087,-2.1353,-2.1905,-2.1441,-2.008,0.0,0.0,0.0,0.0,-2.1079,-2.1766,-2.2752,-2.2814,-2.1813,-2.1643,-2.1135,-2.0231,-1.8412,-1.6834,-1.5621,-1.479,-1.3506,-1.1673,-1.1081,0.0,0.0,0.0,0.0,0.0,0.0,0.0,0.0,0.0,0.0,0.0,0.0,0.0,0.0,0.0,0.0,0.0,0.0,0.0,-1.9412,-2.0551,-2.11,0.0,0.0,0.0,0.0,0.0,0.0,0.0,0.0,0.0,-2.4597,-2.5059,-2.5464,0.0,0.0,-2.4332,-2.3828,-2.3685,-2.3829,-2.4381,-2.3979,0.0,-2.3579,-2.3204,-2.283,-2.2644,-2.3141,-2.3586,-2.3645,-2.3618,-2.3673,-2.3747,-2.3923,-2.4033,-2.4139,-2.4307,-2.4544,-2.4915,-2.5024,-2.5436,-2.65,-2.6929,-2.7158,-2.6197,-2.4532,-2.2735,-2.1892,-2.1699,-2.0377,-2.0023,-2.0325,-1.9371,-1.8702,-1.8258,-1.7896,-1.6738,-1.516,-1.487,0.0,0.0,0.0,-1.7369,-1.8879,-1.934,-1.9823,-2.0268,-2.0576,-2.0715,-2.0677,-2.0715,-2.0842,-2.1112,-2.1354,-2.1008,-2.0101,0.0,0.0,-1.9856,-2.0154,-2.0637,-2.1259,-2.1794,-2.189,-2.1431,-2.0953,-2.0181,-1.9101,-1.7599,-1.627,-1.5012,-1.4264,-1.3091,-1.1457,-1.0954,-1.0332,0.0,0.0,0.0,0.0,0.0,0.0,0.0,0.0,0.0,0.0,0.0,-1.1654,-1.2233,0.0,0.0,0.0,-1.8467,-1.9784,-2.0858,-2.1319,0.0,0.0,0.0,0.0,0.0,0.0,0.0,-2.2909,-2.3674,-2.4311,-2.4639,-2.4833,-2.5142,-2.5531,-2.4864,-2.4128,-2.3685,0.0,-2.4297,-2.4913,-2.4498,-2.4136,-2.4109,-2.366,-2.3214,-2.3065,-2.3456,-2.3819,-2.3891,-2.3995,-2.4112,-2.4203,-2.4203,-2.4261,-2.4421,-2.4536,-2.4694,-2.5244,-2.5439,-2.5786,-2.6621,-2.6992,-2.7248,-2.6283,-2.5423,-2.3576,-2.2962,-2.3076,-2.1404,-2.09,-2.1197,-1.9663,-1.842,-1.7412,-1.7726,-1.6853,-1.5046,-1.4849,0.0,-1.5571,-1.6531,-1.7331,-1.7969,-1.8654,-1.8931,-1.8931,-1.9562,-1.989,-1.989,-1.9911,-2.0268,-2.0767,-1.9683,-1.9242,-1.9469,-1.9499,-1.95,-1.9528,-1.9768,-2.0197,-2.0769,-2.0735,-2.0868,-2.1086,-2.0067,-1.8996,-1.7961,-1.6834,-1.5651,-1.441,-1.3373,-1.2466,-1.1677,-1.0828,-1.0329,-1.0302,0.0,0.0,0.0,0.0,0.0,0.0,0.0,0.0,0.0,0.0,0.0,0.0,0.0,0.0,-1.7912,-2.0331,0.0,-2.2089,-2.1914,0.0,0.0,0.0,-2.2793,-2.3626,-2.3928,-2.3928,-2.3658,0.0,0.0,-2.4604,-2.4688,-2.4783,-2.5156,-2.4824,-2.431,-2.3603,-2.4464,-2.5011,-2.4692,-2.4668,-2.4512,-2.3837,-2.3502,-2.3262,-2.3187,-2.3446,-2.3564,-2.3819,-2.3936,-2.4054,-2.4054,-2.4067,-2.4112,-2.4247,-2.4292,-2.4465,-2.4991,-2.53,-2.5481,-2.584,-2.595,-2.6059,-2.5011,-2.3487,-2.2912,-2.2639,-2.2575,-2.0951,-1.9998,-1.9621,-1.8694,-1.8113,-1.7822,-1.7375,-1.6555,-1.5558,-1.494,-1.506,-1.5765,-1.5974,-1.6504,-1.7139,-1.7345,-1.7413,-1.7413,-1.7591,-1.7929,-1.8499,-1.8482,-1.8701,-1.9041,-1.9059,-1.8818,-1.8284,-1.7575,-1.7599,-1.8454,-1.9096,-1.9196,-1.8768,-1.9064,-1.8952,-1.8431,-1.8001,-1.7446,-1.6711,-1.6005,-1.4855,-1.3252,-1.2948,-1.2158,-1.0744,-1.0639,-1.0397,-0.9874,-0.9687,0.0,0.0,0.0,0.0,0.0,0.0,0.0,0.0,0.0,-1.3186,-1.3822,0.0,-1.6979,0.0,-2.0971,-2.2429,-2.223,-2.2196,0.0,0.0,-2.2803,-2.3142,-2.3798,-2.4239,-2.4285,-2.3647,-2.3953,-2.4229,-2.4353,-2.4394,-2.4559,-2.4998,-2.4997,-2.497,-2.4667,-2.4857,-2.4955,-2.4626,-2.445,-2.4055,-2.3191,-2.2428,-2.216,-2.2493,-2.2698,-2.2967,-2.3458,-2.3628,-2.376,-2.3891,-2.3949,-2.3995,-2.4099,-2.4247,-2.435,-2.4523,-2.4778,-2.5075,-2.5481,-2.5605,-2.5647,-2.3893,-2.2895,-2.2089,-2.1675,-2.1602,-2.0582,-1.9615,-1.865,-1.8221,-1.7628,-1.7001,-1.6245,-1.5613,-1.5267,-1.4776,-1.4848,-1.5267,-1.5621,-1.6035,-1.6376,-1.6724,-1.6941,-1.6932,-1.6876,-1.7048,-1.7264,-1.7225,-1.7216,-1.7318,-1.8082,-1.8033,-1.7113,-1.6655,-1.6708,-1.7346,-1.8255,-1.8536,-1.8093,-1.834,-1.824,-1.7761,-1.7158,-1.6581,-1.6036,-1.4802,-1.357,-1.2404,-1.1696,-1.0919,-0.9977,-0.9939,-0.9826,-0.9628,-0.964,-0.9622,0.0,0.0,0.0,0.0,0.0,0.0,0.0,0.0,0.0,0.0,0.0,-1.7823,-1.9486,-2.1486,-2.2577,-2.2255,-2.218,-2.2401,-2.3014,-2.3191,-2.3635,-2.4484,-2.487,-2.4818,-2.4272,-2.4477,-2.4627,-2.4627,-2.4627,-2.4585,-2.4611,-2.4667,-2.4667,-2.4598,-2.4611,-2.4518,-2.4251,-2.3716,-2.3069,-2.2211,-2.1771,-2.1537,-2.1914,-2.2116,-2.2344,-2.2719,-2.2828,-2.3007,-2.3309,-2.3431,-2.3593,-2.3943,-2.4099,-2.4261,-2.4421,-2.4536,-2.4721,-2.5089,-2.5201,-2.53,-2.2907,-2.2579,-2.1152,-2.0478,-2.0385,-2.0116,-1.9337,-1.8193,-1.7852,-1.6932,-1.5621,-1.4919,-1.4569,-1.4497,-1.4561,-1.4497,-1.4418,-1.5267,-1.5621,-1.5613,-1.6306,-1.6558,-1.6513,-1.6513,-1.6356,-1.6108,-1.609,-1.5964,-1.5789,-1.6918,-1.6951,-1.5916,-1.6095,-1.6144,-1.6192,-1.7168,-1.7699,-1.7809,-1.782,-1.7754,-1.7644,-1.661,-1.5895,-1.5375,-1.3543,-1.2241,-1.1535,-1.0222,-0.9427,-0.9382,-0.9047,-0.9072,-0.946,-0.9514,-0.9652,0.0,-0.9909,0.0,0.0,0.0,0.0,0.0,0.0,0.0,0.0,-1.7324,-1.8787,-2.0752,-2.1958,-2.2493,-2.2179,-2.2129,-2.2443,-2.3332,-2.3543,-2.4048,-2.5231,-2.5369,-2.5313,-2.5005,-2.5005,-2.4991,-2.4856,-2.4896,-2.4666,-2.4123,-2.3947,-2.3893,-2.3838,-2.3893,-2.3905,-2.3565,-2.2657,-2.1792,-2.1234,-2.1063,-2.1144,-2.1441,-2.1534,-2.1682,-2.1933,-2.1933,-2.2129,-2.2552,-2.2724,-2.3005,-2.358,-2.3748,-2.3935,-2.4204,-2.4204,-2.4288,-2.4694,-2.4835,-2.4962,-2.1854,-2.0835,-2.0409,-1.9879,-1.9333,-1.868,-1.8271,-1.7946,-1.6736,-1.5692,-1.4848,-1.4633,-1.4346,-1.3977,-1.4425,-1.4137,-1.3331,-1.4346,-1.4561,-1.4186,-1.4768,-1.4898,-1.4629,-1.462,-1.4765,-1.5024,-1.4998,-1.5056,-1.5237,-1.5852,-1.5702,-1.4827,-1.4803,-1.4883,-1.4883,0.0,0.0,0.0,-1.6301,-1.5968,-1.5216,-1.505,-1.4492,-1.3407,-1.2572,0.0,-1.0186,-0.9601,-0.9149,-0.8751,-0.8817,0.0,0.0,0.0,0.0,0.0,0.0,0.0,0.0,0.0,0.0,0.0,-1.4246,-1.5349,-1.5982,-1.8019,-2.0036,-2.1723,-2.2137,-2.2396,-2.2542,-2.2578,-2.2867,-2.3469,-2.3573,-2.3929,-2.4738,-2.4838,-2.4838,-2.5005,-2.5005,-2.4815,-2.4326,-2.4286,-2.4055,-2.3459,-2.3284,-2.3016,-2.2519,-2.3001,-2.316,-2.2576,-2.1572,-2.0579,-1.998,-1.9977,-2.0241,-2.0665,-2.0869,-2.1033,-2.1441,-2.1554,-2.1635,-2.1868,-2.1911,-2.2048,-2.2339,-2.248,-2.2799,-2.3176,-2.338,-2.3695,-2.4614,-2.4778,-2.4848,-2.1175,-2.0398,-1.9486,-1.8988,0.0,-1.712,-1.6438,-1.6457,-1.5964,-1.5196,-1.4201,-1.3912,-1.3622,-1.3404,-1.3622,-1.3477,-1.2886,-1.3388,-1.3386,-1.3157,-1.356,-1.3531,-1.3096,-1.3362,-1.3388,-1.3199,-1.3395,-1.3516,-1.3484,-1.3952,-1.4161,-1.3983,-1.3681,-1.3859,-1.446,-1.4469,-1.4697,-1.5138,-1.5216,-1.4942,-1.4529,-1.3837,-1.3169,-1.253,-1.1271,0.0,0.0,0.0,0.0,0.0,0.0,0.0,0.0,-0.9652,0.0,-1.0134,-1.0398,-1.0874,-1.149,-1.2068,-1.2687,-1.3476,-1.4917,-1.6051,-1.6818,-1.8882,-2.0504,-2.1451,-2.1925,-2.2309,-2.2494,-2.2494,-2.2665,-2.3185,-2.3245,-2.359,-2.4337,-2.4496,-2.4624,-2.4894,-2.4691,-2.4338,-2.4041,-2.3676,-2.3218,-2.2628,-2.2233,-2.1865,-2.1391,-2.203,-2.2345,-2.1464,-2.0781,-2.0093,-1.9525,-1.942,-1.9534,-2.003,-2.0145,-2.031,-2.0602,-2.0665,-2.0794,-2.11,-2.123,-2.1415,-2.1763,-2.1992,-2.2247,-2.2548,-2.2695,-2.2926,-2.3615,-2.4123,-2.4593,-2.0409,-2.0009,-1.8556,-1.7978,-1.7794,-1.579,-1.4737,-1.4574,0.0,0.0,0.0,-1.3112,-1.2826,-1.2746,-1.2844,-1.275,-1.2503,-1.2501,-1.2361,-1.2284,-1.256,-1.2467,-1.202,-1.2416,-1.2196,-1.1516,-1.1949,-1.1968,-1.1766,-1.2305,-1.2825,-1.312,-1.2704,-1.3017,-1.3978,-1.4118,-1.4126,-1.4057,-1.4174,-1.4163,-1.3983,-1.2724,-1.2011,-1.187,-1.0147,-0.912,-0.8915,-0.8139,-0.7855,-0.8162,-0.826,-0.8449,-0.8898,-0.9509,-0.9819,-0.9884,-1.0323,-1.1077,-1.2216,-1.2451,-1.3056,-1.441,-1.5604,-1.6853,-1.8051,-1.9684,-2.07,-2.0955,-2.1737,-2.2247,-2.2359,-2.2247,-2.2371,-2.2726,-2.2787,-2.3138,-2.3956,-2.4203,-2.439,-2.4654,-2.4115,-2.3645,-2.3661,-2.2977,-2.2352,-2.1796,-2.1393,-2.0875,-2.0476,-2.1079,-2.1287,-2.0374,-2.0093,-1.9875,-1.938,-1.9223,-1.9275,-1.955,-1.9641,-1.9656,-1.9759,-1.9798,-1.9987,-2.0426,-2.0661,-2.0891,-2.1272,-2.1444,-2.1735,-2.207,-2.2055,-2.2094,-2.2522,-2.3247,-2.3966,-1.8946,-1.8297,-1.7482,-1.7079,-1.701,-1.5508,-1.425,-1.3214,-1.3266,-1.3185,-1.3046,-1.2973,-1.2599,-1.2144,-1.2411,-1.1995,-1.1044,-1.1818,-1.1902,-1.1421,-1.1983,-1.203,-1.1664,-1.1715,-1.1553,-1.1157,-1.1381,-1.1479,-1.1544,-1.2204,-1.2409,-1.2083,-1.1928,-1.2047,-1.2217,-1.2698,-1.2698,-1.221,-1.2978,-1.2992,-1.2166,-1.171,-1.1185,-1.0671,-0.9925,-0.9361,-0.898,-0.8328,-0.7962,-0.8032,-0.8016,-0.7964,-0.8105,-0.8918,-0.9558,-0.9788,-1.0384,-1.0858,-1.1255,-1.2098,-1.3273,-1.4673,-1.5745,-1.7161,-1.9138,-1.9987,-2.0677,-2.1262,-2.1788,-2.2197,-2.2247,-2.2197,-2.2247,-2.2321,-2.2321,-2.2543,-2.3078,-2.3692,-2.4106,-2.4137,-2.3267,-2.2682,-2.2709,-2.1982,-2.1303,-2.1139,-2.0959,-2.0767,-2.0373,-2.022,-2.0041,-1.9784,-1.9668,-1.9512,-1.9275,-1.9182,-1.9275,-1.942,-1.9512,-1.9617,-1.9604,-1.9708,-1.9861,-1.9924,-2.0039,-2.0064,-2.0164,-2.0205,-2.0576,-2.1038,-2.1194,-2.1416,-2.2018,-2.2356,-2.2609,-1.8365,-1.7823,-1.6419,-1.579,-1.5703,-1.3892,-1.2458,-1.1553,-1.1475,-1.1781,-1.2136,-1.1854,-1.1452,-1.1087,-1.1237,-1.102,-1.0508,-1.0802,-1.0786,-1.051,-1.089,-1.0969,-1.0731,-1.0995,-1.0936,-1.0631,-1.1022,-1.1216,-1.1303,-1.1859,-1.2126,-1.1969,-1.1812,-1.1737,-1.1812,-1.2098,-1.2091,-1.1812,-1.2248,-1.223,-1.1804,-1.1206,-1.081,-1.0538,-0.9356,-0.8595,-0.8432,-0.7611,-0.7173,-0.7298,-0.7521,-0.757,-0.7383,-0.819,-0.8879,-0.9329,-0.957,-1.0171,-1.1242,-1.2083,-1.3178,-1.4609,-1.51,-1.6149,-1.8007,-1.9156,-2.0085,-2.0805,-2.1325,-2.18,-2.2123,-2.2197,-2.2197,-2.2197,-2.2197,-2.2371,-2.28,-2.2994,-2.3157,-2.3083,-2.2198,-2.1462,-2.1326,-2.0526,-2.0072,-2.0258,-2.0334,-2.0131,-1.9759,-1.95,-1.9448,-1.9565,-1.9617,-1.946,-1.9158,-1.9105,-1.917,-1.9275,-1.9316,-1.9473,-1.9565,-1.9668,-1.9708,-1.9798,-1.9798,-1.9798,-1.9798,-1.9862,-2.0053,-2.0295,-2.0474,-2.0719,-2.1016,-2.1107,-2.1484,-1.7187,-1.6908,-1.5038,-1.4136,-1.3674,-1.205,-1.0719,-0.984,-0.984,-1.0189,-1.0667,-1.045,-1.0242,-1.0036,-0.984,-0.9759,-0.9711,-0.9438,-0.9336,-0.9438,-0.9782,-0.9896,-0.9799,-1.0288,-1.0535,-1.0321,-1.059,-1.0748,-1.0823,-1.1331,-1.158,-1.1567,-1.1388,-1.1305,-1.1394,-1.1534,-1.154,-1.1394,-1.1248,-1.1259,-1.1485,-1.0729,-1.0293,-1.0233,-0.8785,-0.7962,-0.8006,-0.7065,-0.6534,-0.6731,-0.706,-0.706,-0.6793,-0.7351,-0.7986,-0.8468,-0.8647,-0.9447,-1.1069,-1.1929,-1.2879,-1.4027,-1.4601,-1.5384,-1.6576,-1.8094,-1.9309,-2.0031,-2.0549,-2.1135,-2.1537,-2.1862,-2.1925,-2.1925,-2.2111,-2.2309,-2.2665,-2.2482,-2.2284,-2.2097,-2.1227,-2.0358,-1.9922,-1.9287,-1.9052,-1.9512,-1.9643,-1.9436,-1.9028,-1.8934,-1.9081,-1.9198,-1.9344,-1.9356,-1.904,-1.8999,-1.9052,-1.917,-1.917,-1.9328,-1.9473,-1.9512,-1.9604,-1.9708,-1.9747,-1.9798,-1.9798,-1.9798,-1.9875,-1.9977,-2.0002,-2.0016,-2.022,-2.0271,-2.0605,-1.4446,-1.4164,-1.2938,-1.1682,-1.071,-1.0402,-0.9614,-0.8468,-0.8413,-0.831,-0.8328,-0.9072,-0.9346,-0.9232,-0.8457,-0.8132,-0.8059,-0.7783,-0.7783,-0.8015,-0.8679,-0.9073,-0.9222,-0.9939,-1.0309,-1.0166,-0.985,-0.9657,-0.9746,-1.0638,-1.0778,-1.0179,-1.0278,-1.0244,-1.0135,-1.0576,-1.0582,-1.0071,-0.9541,-0.9699,-1.0484,-0.9753,-0.926,-0.9238,-0.8529,-0.8168,-0.8055,-0.724,-0.6754,-0.6754,-0.6455,-0.6317,-0.6306,-0.6545,-0.6887,-0.7203,-0.7957,-0.9067,-1.045,-1.1335,-1.2003,-1.2586,-1.4386,-1.5525,-1.5886,-1.7217,-1.8395,-1.911,-1.9759,-2.0226,-2.0291,-2.0805,-2.1198,-2.1262,-2.1726,-2.2259,-2.2163,-2.2211,-2.1984,-2.1546,-2.0385,-1.9737,-1.9538,-1.8818,-1.8494,-1.8975,-1.9239,-1.9121,-1.8685,-1.8685,-1.8643,-1.8494,-1.8667,-1.8999,-1.8999,-1.8987,-1.8987,-1.904,-1.9117,-1.9235,-1.9263,-1.942,-1.9604,-1.9656,-1.9708,-1.9747,-1.9798,-1.9798,-1.9798,-1.985,-1.9862,-1.9862,-1.9978,-2.008,-2.0425,-1.3801,-1.3388,-1.1655,-1.0125,-0.8843,-0.8769,-0.8419,-0.7774,-0.7702,-0.7655,-0.7522,-0.7113,-0.7382,-0.8117,-0.7702,-0.7527,-0.7555,-0.7559,-0.7539,-0.7559,-0.795,-0.8187,-0.8303,-0.86,-0.8814,-0.9018,-0.8891,-0.8851,-0.8956,-0.9382,-0.918,-0.8273,-0.825,-0.8491,-0.8846,-0.9069,-0.9069,-0.8846,-0.8385,-0.8294,-0.867,-0.8577,-0.8446,-0.8182,-0.7594,-0.7178,-0.6944,-0.6294,-0.5871,-0.5871,-0.5871,-0.58,-0.5519,-0.5745,-0.6129,-0.6638,-0.7777,-0.8877,-1.0051,-1.0443,-1.1111,-1.2231,-1.3164,-1.4243,-1.5534,-1.6306,-1.7148,-1.8259,-1.8977,-1.9497,-1.9814,-2.0074,-2.0268,-2.059,-2.0921,-2.1083,-2.1155,-2.0932,-2.0544,-1.9773,-1.9091,-1.8578,-1.8372,-1.8242,-1.8213,-1.8483,-1.8804,-1.8869,-1.8525,-1.8566,-1.8429,-1.8236,-1.8302,-1.8518,-1.8721,-1.8774,-1.8827,-1.8934,-1.9052,-1.9052,-1.917,-1.9275,-1.942,-1.9565,-1.9656,-1.9708,-1.9798,-1.9798,-1.9798,-1.9798,-1.9798,-1.9811,-1.9875,-1.9914,-2.0016,-1.2445,-1.1852,-1.0196,-0.869,-0.7405,-0.7194,-0.6914,-0.6535,-0.6326,-0.633,-0.633,-0.5335,-0.5342,-0.602,-0.6448,-0.6693,-0.6949,-0.7082,-0.7112,-0.6962,-0.7237,-0.7462,-0.748,-0.7716,-0.7935,-0.8058,-0.7999,-0.7846,-0.7774,-0.7931,-0.7604,-0.6809,-0.6489,-0.6809,-0.7698,-0.7859,-0.7944,-0.7949,-0.7561,-0.7334,-0.733,-0.7249,-0.7331,-0.7356,-0.6749,-0.6325,-0.6148,-0.5482,-0.512,-0.512,-0.5411,-0.5341,-0.5052,-0.5164,-0.5545,-0.6226,-0.7317,-0.833,-0.9221,-0.969,-1.0368,-1.1558,-1.2137,-1.3302,-1.4799,-1.5666,-1.6515,-1.751,-1.8172,-1.8767,-1.9079,-1.9278,-1.9475,-1.9738,-1.9846,-1.9968,-2.0166,-1.9756,-1.919,-1.8563,-1.8282,-1.7807,-1.7478,-1.7645,-1.7886,-1.7952,-1.8224,-1.8452,-1.8213,-1.8104,-1.8061,-1.792,-1.7877,-1.8084,-1.8452,-1.8614,-1.8721,-1.8934,-1.8987,-1.9052,-1.9117,-1.917,-1.9235,-1.942,-1.9512,-1.9565,-1.9604,-1.9656,-1.9747,-1.9798,-1.9798,-1.9798,-1.9798,-1.9798,-1.9862,-0.939,-0.921,-0.8057,-0.7091,-0.6412,-0.5675,-0.508,-0.448,-0.3813,-0.3685,-0.4223,-0.4023,-0.3551,-0.3015,-0.412,-0.5035,-0.5584,-0.5806,-0.5844,-0.5815,-0.6511,-0.6907,-0.7,-0.7689,-0.7995,-0.7774,-0.7165,-0.6637,-0.6106,-0.6325,-0.6398,-0.6237,-0.5594,-0.5745,-0.6784,-0.7196,-0.7439,-0.7204,-0.6828,-0.6769,-0.6691,-0.5736,-0.5712,-0.6528,-0.6234,-0.5912,-0.5832,-0.5303,-0.4993,-0.4999,-0.5063,-0.5068,-0.4985,-0.4887,-0.5127,-0.5806,-0.6406,-0.7155,-0.7986,-0.9079,-0.9916,-1.0288,-1.1896,-1.3346,-1.378,-1.535,-1.6507,-1.6932,-1.7354,-1.7696,-1.7901,-1.8432,-1.87,-1.868,-1.8835,-1.9104,-1.957,-1.8829,-1.8436,-1.8339,-1.7991,-1.7601,-1.7345,-1.7278,-1.7379,-1.739,-1.7379,-1.7434,-1.749,-1.7445,-1.7445,-1.7434,-1.7445,-1.7656,-1.8344,-1.8333,-1.856,-1.8774,-1.8827,-1.8934,-1.9052,-1.9105,-1.917,-1.9223,-1.9316,-1.9356,-1.942,-1.9512,-1.9656,-1.9759,-1.9798,-1.9798,-1.9798,-1.9798,-1.9811,-0.8189,-0.6694,-0.6248,-0.5533,-0.4749,-0.4209,-0.3675,-0.3147,-0.3213,-0.3487,-0.3758,-0.3288,-0.2883,-0.2614,-0.2412,-0.2981,-0.4085,-0.4295,-0.4418,-0.4603,-0.498,-0.5354,-0.5712,-0.6025,-0.6099,-0.6103,-0.5873,-0.5879,-0.6126,-0.6278,-0.6278,-0.6126,-0.5404,-0.5246,-0.5643,-0.5805,-0.541,-0.438,-0.4148,-0.4075,-0.3995,-0.3604,-0.3599,-0.4059,-0.4932,-0.5332,-0.5335,-0.5101,-0.5026,-0.5026,-0.5026,-0.5101,-0.5174,-0.5054,-0.5177,-0.5784,-0.609,-0.6492,-0.7234,-0.8008,-0.877,-0.9367,-1.0415,-1.1883,-1.3186,-1.4196,-1.5067,-1.5948,-1.6306,-1.6515,-1.701,-1.7491,-1.791,-1.8065,-1.7929,-1.7991,-1.8279,-1.798,-1.7615,-1.7698,-1.7523,-1.7401,-1.7334,-1.7278,-1.7278,-1.7278,-1.7278,-1.7278,-1.7278,-1.7278,-1.7278,-1.7278,-1.7334,-1.7434,-1.792,-1.7733,-1.7722,-1.817,-1.8441,-1.8494,-1.8602,-1.8655,-1.8655,-1.9105,-1.921,-1.9251,-1.9303,-1.9473,-1.9617,-1.9708,-1.9747,-1.9798,-1.9798,-1.9695,-1.9747,-0.6082,-0.4392,-0.399,-0.3465,-0.2876,-0.2272,-0.1805,-0.1537,-0.1605,-0.194,-0.221,-0.1675,-0.1272,-0.0939,-0.0273,-0.0563,-0.1752,-0.2564,-0.2967,-0.2868,-0.2937,-0.3285,-0.3839,-0.3917,-0.4075,-0.4157,-0.4157,-0.455,-0.5104,-0.5662,-0.5584,-0.5031,-0.3999,-0.3684,-0.4157,-0.4716,-0.4399,-0.3372,-0.2272,-0.1251,-0.0313,-0.0078,-0.0391,-0.0938,-0.2033,-0.3132,-0.4079,-0.4157,-0.4157,-0.4157,-0.4235,-0.455,-0.5179,-0.5101,-0.5174,-0.5553,-0.5783,-0.617,-0.6861,-0.7472,-0.8161,-0.8836,-0.9528,-1.0726,-1.2478,-1.3048,-1.3932,-1.4958,-1.5463,-1.5807,-1.6376,-1.6742,-1.7097,-1.7619,-1.7293,-1.7181,-1.7622,-1.7155,-1.694,-1.7059,-1.7244,-1.7289,-1.7278,-1.7278,-1.7278,-1.7278,-1.7278,-1.7278,-1.7278,-1.7278,-1.7278,-1.7278,-1.7099,-1.7099,-1.7134,-1.6832,-1.7379,-1.7941,-1.8104,-1.8159,-1.8321,-1.8321,-1.8429,-1.8881,-1.9093,-1.9146,-1.9251,-1.9356,-1.9512,-1.9604,-1.9708,-1.9708,-1.9656,-1.9552,-1.9643,-0.286,-0.2071,-0.1199,-0.0865,-0.0532,0.0067,0.0467,0.0734,0.1204,0.107,0.0601,0.0937,0.1541,0.2285,0.2423,0.2124,0.1344,-0.0511,-0.1192,-0.0752,-0.046,-0.0699,-0.1325,-0.1481,-0.1796,-0.2189,-0.2347,-0.2425,-0.2659,-0.3841,-0.3841,-0.2268,-0.0703,-0.0703,-0.2347,-0.353,-0.4487,-0.3614,-0.1255,0.1412,0.4489,0.4328,0.361,0.2504,0.2189,0.0781,-0.2033,-0.2268,-0.2347,-0.2503,-0.2504,-0.3288,-0.4396,-0.4711,-0.4945,-0.5096,-0.5556,-0.617,-0.6707,-0.7326,-0.7859,-0.8466,-0.9311,-1.0062,-1.1168,-1.2178,-1.3128,-1.4027,-1.4601,-1.5305,-1.5877,-1.5965,-1.6394,-1.7217,-1.6947,-1.6817,-1.7048,-1.6466,-1.6058,-1.6618,-1.7002,-1.7255,-1.73,-1.7233,-1.7222,-1.7222,-1.7278,-1.7278,-1.7278,-1.7278,-1.7278,-1.7222,-1.7099,-1.6976,-1.6457,-1.6036,-1.6978,-1.7765,-1.7875,-1.7995,-1.8321,-1.8375,-1.8267,-1.8548,-1.8483,-1.8536,-1.859,-1.8762,-1.8975,-1.9121,-1.9344,-1.9552,-1.9604,-1.9552,-1.9552,-0.1333,-0.0602,-0.02,0.0933,0.2267,0.2134,0.2666,0.3664,0.3332,0.2996,0.293,0.2996,0.3806,0.4821,0.4686,0.4576,0.4778,0.3504,0.2536,0.1875,0.1898,0.231,0.2574,0.1718,0.1093,0.0938,0.0938,0.0312,-0.0703,-0.1328,-0.0234,0.2268,0.3054,0.2582,0.0938,0.0391,0.0156,0.0313,0.1174,0.2272,0.3372,0.4401,0.4716,0.4316,0.4238,0.3604,0.266,0.1563,0.0391,-0.0626,-0.0783,-0.1017,-0.1643,-0.2662,-0.3761,-0.4862,-0.5171,-0.5323,-0.5634,-0.6173,-0.6861,-0.7472,-0.8084,-0.9003,-1.0062,-1.0565,-1.1378,-1.2432,-1.2799,-1.3295,-1.4386,-1.4681,-1.5392,-1.7088,-1.6754,-1.6579,-1.6967,-1.6846,-1.6805,-1.686,-1.6837,-1.6732,-1.6767,-1.6806,-1.696,-1.6938,-1.7164,-1.7344,-1.73,-1.7333,-1.7278,-1.7278,-1.7099,-1.6864,-1.6457,-1.6161,-1.6482,-1.7034,-1.7202,-1.7479,-1.7929,-1.8213,-1.8093,-1.8147,-1.8038,-1.8038,-1.8104,-1.8159,-1.8375,-1.8643,-1.8898,-1.9174,-1.95,-1.95,-1.9331,0.1461,0.2128,0.2591,0.3716,0.5252,0.4779,0.5242,0.6113,0.5567,0.5298,0.5367,0.5367,0.5909,0.6728,0.6453,0.6523,0.6881,0.6431,0.5728,0.489,0.4494,0.4963,0.5541,0.4844,0.4373,0.4373,0.4373,0.3511,0.1951,0.1951,0.2891,0.4711,0.5031,0.4474,0.3526,0.3446,0.3446,0.3446,0.3446,0.3446,0.3602,0.4472,0.5026,0.5026,0.5026,0.5026,0.4945,0.3917,0.2974,0.1957,0.133,0.0704,-0.0,-0.1095,-0.2345,-0.3756,-0.4698,-0.5093,-0.5326,-0.5786,-0.6325,-0.7092,-0.7553,-0.8389,-0.9533,-0.9679,-1.0126,-1.1174,-1.1248,-1.1694,-1.3011,-1.3375,-1.4235,-1.6018,-1.6207,-1.6324,-1.6703,-1.698,-1.6973,-1.6858,-1.6765,-1.6707,-1.6719,-1.6968,-1.7095,-1.7143,-1.7503,-1.7682,-1.7628,-1.7573,-1.7497,-1.7331,-1.7043,-1.6807,-1.6637,-1.64,-1.6161,-1.6265,-1.6368,-1.6754,-1.7191,-1.749,-1.7501,-1.7929,-1.7984,-1.8038,-1.8104,-1.7655,-1.7644,-1.8027,-1.8405,-1.875,-1.8975,-1.8857,-1.875,0.5176,0.5825,0.6563,0.7019,0.7598,0.7663,0.7792,0.7996,0.7926,0.7857,0.7921,0.7792,0.7926,0.7996,0.7996,0.8001,0.8001,0.8057,0.8077,0.7877,0.7529,0.7281,0.6893,0.708,0.7165,0.7326,0.7253,0.6475,0.4908,0.4598,0.5085,0.5332,0.5413,0.5182,0.5174,0.5104,0.5098,0.5096,0.5176,0.5174,0.5165,0.5168,0.5249,0.5323,0.5323,0.5323,0.5323,0.5243,0.5015,0.4789,0.3288,0.2035,0.0704,0.0235,-0.0625,-0.2267,-0.3837,-0.4854,-0.555,-0.5709,-0.6247,-0.7246,-0.7553,-0.8313,-0.9306,-0.9301,-0.9523,-1.0346,-1.0121,-1.0565,-1.1829,-1.2271,-1.307,-1.4378,-1.535,-1.5852,-1.6278,-1.6655,-1.6722,-1.6622,-1.6841,-1.7053,-1.6928,-1.7286,-1.7523,-1.7646,-1.798,-1.7969,-1.7857,-1.7627,-1.764,-1.7348,-1.6995,-1.6784,-1.6604,-1.6367,-1.6128,-1.6009,-1.6068,-1.6328,-1.6726,-1.6955,-1.7312,-1.7678,-1.7699,-1.7875,-1.7655,-1.7034,-1.7034,-1.7479,-1.782,-1.8224,-1.8387,-1.8321,-1.8321,0.6685,0.6941,0.7335,0.7862,0.8447,0.865,0.9041,0.943,0.9494,0.9551,0.9494,0.943,0.9494,0.943,0.95,0.943,0.9624,0.977,0.9934,1.0155,1.0331,0.9579,0.8764,0.8732,0.8817,0.8817,0.8523,0.7672,0.6805,0.5803,0.5742,0.6857,0.6938,0.6857,0.6857,0.678,0.6857,0.6857,0.6857,0.6857,0.6853,0.6853,0.6853,0.6853,0.685,0.6853,0.685,0.6853,0.6163,0.5098,0.4631,0.4235,0.3448,0.2426,0.1015,-0.0,-0.0,-0.2655,-0.4618,-0.5249,-0.5634,-0.6321,-0.6861,-0.7476,-0.8241,-0.8399,-0.8775,-0.9372,-0.9296,-0.9674,-1.1025,-1.1397,-1.2204,-1.352,-1.4386,-1.5138,-1.5765,-1.6026,-1.6258,-1.6637,-1.6579,-1.6506,-1.6553,-1.6696,-1.6904,-1.702,-1.7335,-1.7657,-1.7595,-1.7522,-1.7469,-1.7307,-1.7032,-1.6767,-1.6582,-1.6334,-1.6105,-1.5892,-1.5937,-1.6115,-1.6519,-1.6782,-1.7244,-1.7645,-1.7112,-1.709,-1.6482,-1.5864,-1.6312,-1.6922,-1.7157,-1.7501,-1.7886,-1.7995,-1.8038,0.9243,0.9617,0.9737,1.0134,1.0725,1.0864,1.1128,1.1384,1.1454,1.1454,1.1454,1.1447,1.1589,1.1699,1.1714,1.1858,1.2055,1.2239,1.2432,1.2564,1.2888,1.1971,1.0707,1.0318,1.0461,1.0673,1.0088,0.9541,0.8895,0.7677,0.7631,0.8286,0.8937,0.8927,0.8206,0.8286,0.8282,0.8206,0.8286,0.8286,0.8286,0.8286,0.8206,0.8206,0.821,0.821,0.791,0.7833,0.7302,0.624,0.5712,0.5326,0.4935,0.4148,0.25,-0.0,-0.0,-0.1249,-0.3443,-0.4545,-0.5171,-0.5473,-0.5931,-0.6703,-0.7553,-0.7868,-0.8169,-0.8623,-0.8479,-0.8927,-0.983,-1.0357,-1.1174,-1.2211,-1.2865,-1.373,-1.51,-1.5305,-1.5471,-1.5773,-1.5791,-1.5781,-1.6005,-1.6294,-1.66,-1.6994,-1.7575,-1.763,-1.7543,-1.7376,-1.7243,-1.7056,-1.705,-1.6898,-1.6743,-1.649,-1.6465,-1.6204,-1.6149,-1.6345,-1.6255,-1.6595,-1.6895,-1.7056,-1.6576,-1.6218,-1.5982,-1.576,-1.5864,-1.6312,-1.6492,-1.6775,-1.7224,-1.7501,-1.7611,1.2387,1.2943,1.2951,1.327,1.3537,1.3674,1.3571,1.3735,1.3692,1.3796,1.3839,1.3805,1.396,1.4416,1.4202,1.4591,1.4945,1.485,1.4955,1.5071,1.512,1.4361,1.2736,1.2405,1.2625,1.2837,1.2352,1.1697,1.1034,1.0302,1.0204,1.0703,1.1633,1.1228,1.0381,0.9991,0.9836,0.9985,0.9894,0.9974,1.0054,1.0135,1.006,0.9846,0.9632,0.9557,0.9185,0.8964,0.859,0.799,0.6927,0.6083,0.5378,0.5237,0.375,0.1404,-0.0,-0.0312,-0.2033,-0.3368,-0.4392,-0.4535,-0.4846,-0.5622,-0.6934,-0.7249,-0.748,-0.771,-0.7799,-0.8174,-0.8851,-0.9448,-1.0271,-1.1025,-1.1099,-1.205,-1.3506,-1.4307,-1.453,-1.4601,-1.4665,-1.5108,-1.5683,-1.6306,-1.6826,-1.6975,-1.7341,-1.7035,-1.6988,-1.6883,-1.6816,-1.6775,-1.6828,-1.7061,-1.686,-1.6741,-1.679,-1.6728,-1.673,-1.6696,-1.6205,-1.6333,-1.6497,-1.6532,-1.6757,-1.6722,-1.655,-1.6335,-1.5992,-1.6046,-1.6389,-1.657,-1.6751,-1.6909,-1.7067,1.4458,1.4711,1.477,1.4779,1.4906,1.4915,1.5223,1.5571,1.5561,1.5846,1.6108,1.6166,1.6214,1.6311,1.6383,1.6379,1.6617,1.6815,1.691,1.7188,1.7178,1.6747,1.5668,1.5192,1.4942,1.4871,1.4506,1.3784,1.2971,1.2215,1.2415,1.4126,1.439,1.4198,1.31,1.2774,1.3006,1.2846,1.227,1.227,1.2767,1.2774,1.249,1.2004,1.1514,1.152,1.1662,1.1304,1.0944,1.0265,0.867,0.7375,0.6919,0.6314,0.5223,0.3895,0.2497,0.1249,-0.0234,-0.1095,-0.1722,-0.2971,-0.3984,-0.516,-0.5467,-0.6402,-0.6553,-0.6626,-0.6857,-0.7633,-0.847,-0.9372,-0.982,-1.0045,-1.0196,-1.034,-1.1149,-1.2631,-1.3738,-1.4386,-1.4966,-1.5621,-1.5762,-1.6184,-1.6603,-1.6968,-1.6733,-1.641,-1.6347,-1.6345,-1.621,-1.6138,-1.6291,-1.6446,-1.6379,-1.6236,-1.637,-1.6446,-1.655,-1.6902,-1.6402,-1.6204,-1.6408,-1.6839,-1.7301,-1.7155,-1.6691,-1.629,-1.5761,-1.606,-1.6296,-1.6296,-1.6353,-1.6467,-1.6591,1.7391,1.7794,1.7517,1.7575,1.7794,1.7851,1.7994,1.8261,1.8225,1.8427,1.8625,1.8669,1.8791,1.8929,1.8951,1.91,1.9291,1.9449,1.9585,1.9791,1.976,1.9392,1.8833,1.8255,1.7668,1.6489,1.5587,1.5263,1.5151,1.4434,1.4451,1.6147,1.7122,1.6731,1.557,1.5317,1.5503,1.5382,1.4417,1.4214,1.5134,1.5151,1.4814,1.4283,1.3795,1.3723,1.3708,1.3426,1.307,1.2398,1.0977,0.9487,0.8523,0.7685,0.6758,0.5681,0.452,0.2885,0.1637,0.0391,-0.0469,-0.125,-0.2265,-0.3515,-0.4533,-0.5547,-0.5854,-0.6083,-0.6626,-0.7403,-0.8016,-0.8389,-0.8836,-0.9296,-0.9296,-0.9448,-1.004,-1.1391,-1.2505,-1.3004,-1.352,-1.4106,-1.4681,-1.5242,-1.5534,-1.5525,-1.5604,-1.5288,-1.5367,-1.5317,-1.5334,-1.532,-1.552,-1.5677,-1.5668,-1.5721,-1.5817,-1.58,-1.5774,-1.6258,-1.6514,-1.6437,-1.6431,-1.6821,-1.7153,-1.683,-1.6417,-1.6009,-1.5802,-1.5906,-1.6029,-1.6019,-1.6124,-1.6353,-1.642,2.0552,2.1126,2.0552,2.0621,2.1126,2.1088,2.1126,2.1238,2.1263,2.1338,2.1387,2.1375,2.1654,2.1857,2.186,2.2157,2.2357,2.2335,2.2226,2.225,2.2079,2.1661,2.1163,2.0785,2.0008,1.7765,1.7023,1.7226,1.7451,1.695,1.6486,1.7436,1.8932,1.8801,1.7619,1.7347,1.7542,1.7755,1.6733,1.6365,1.7154,1.7173,1.684,1.66,1.5983,1.5826,1.5677,1.5466,1.5043,1.4395,1.3772,1.2384,1.0765,0.92,0.8353,0.7214,0.6213,0.474,0.3108,0.1793,0.0938,0.0546,0.0235,-0.1172,-0.3278,-0.4137,-0.4606,-0.5229,-0.5774,-0.6318,-0.7015,-0.7088,-0.7472,-0.8008,-0.8313,-0.8689,-0.9442,-1.0282,-1.0726,-1.1174,-1.197,-1.2698,-1.3063,-1.3411,-1.3787,-1.4091,-1.4163,-1.4227,-1.4155,-1.4235,-1.4091,-1.4235,-1.445,-1.4657,-1.4665,-1.4657,-1.4799,-1.4879,-1.4807,-1.5367,-1.6053,-1.6051,-1.6008,-1.6562,-1.6786,-1.6597,-1.6582,-1.6406,-1.6228,-1.5929,-1.5808,-1.5904,-1.6077,-1.6249,-1.6249,2.3049,2.3218,2.3049,2.3114,2.318,2.3193,2.3455,2.385,2.3838,2.4137,2.4449,2.4517,2.4434,2.4569,2.461,2.4691,2.4576,2.4376,2.4218,2.4173,2.3897,2.3416,2.2902,2.283,2.2079,2.1112,2.0029,1.9553,1.901,1.8223,1.8334,1.9647,2.0139,1.9747,1.9649,1.9541,1.9509,1.9814,1.9251,1.9131,1.9401,1.9367,1.9291,1.9048,1.8198,1.7842,1.7986,1.7639,1.7027,1.6435,1.6235,1.5317,1.3807,1.163,1.0387,0.9573,0.8362,0.6736,0.5029,0.4278,0.3355,0.2421,0.1796,0.1015,-0.0623,-0.1794,-0.2574,-0.3283,-0.3675,-0.4139,-0.5315,-0.5625,-0.5854,-0.6391,-0.678,-0.7011,-0.7855,-0.8542,-0.9145,-0.9508,-1.0392,-1.1286,-1.1656,-1.1944,-1.2311,-1.2538,-1.2618,-1.2384,-1.2084,-1.2398,-1.2631,-1.2917,-1.3281,-1.3491,-1.3636,-1.3556,-1.3556,-1.37,-1.378,-1.4148,-1.4712,-1.518,-1.5521,-1.5668,-1.6598,-1.7249,-1.713,-1.6635,-1.6304,-1.5809,-1.5782,-1.576,-1.572,-1.571,-1.5951,2.5394,2.5437,2.5114,2.5157,2.5449,2.548,2.5617,2.5833,2.5845,2.5979,2.6193,2.6265,2.6212,2.6212,2.6212,2.6212,2.6158,2.6051,2.5957,2.5849,2.5686,2.5273,2.4703,2.4646,2.4279,2.369,2.2984,2.1945,2.0745,1.9602,1.9946,2.0576,2.1037,2.1152,2.1152,2.1129,2.1495,2.1744,2.1513,2.1315,2.1483,2.1358,2.1106,2.0882,2.0467,2.0061,1.9825,1.976,1.9183,1.8562,1.816,1.7406,1.6218,1.4877,1.3085,1.187,1.0323,0.8964,0.7331,0.6587,0.5351,0.4748,0.3895,0.2882,0.1869,0.0778,-0.0312,-0.156,-0.2264,-0.2807,-0.4373,-0.4611,-0.5157,-0.5467,-0.5464,-0.5696,-0.6086,-0.6546,-0.7073,-0.7749,-0.903,-0.9932,-1.0479,-1.0765,-1.0902,-1.1057,-1.0995,-1.0611,-1.0082,-1.0381,-1.076,-1.0989,-1.1273,-1.1575,-1.179,-1.1944,-1.1931,-1.2078,-1.2458,-1.2823,-1.2968,-1.3186,-1.3765,-1.4222,-1.5392,-1.6305,-1.6312,-1.5462,-1.5551,-1.5562,-1.5233,-1.4916,-1.5027,-1.5167,-1.5284,2.748,2.7449,2.6983,2.7019,2.7336,2.7335,2.7339,2.738,2.7303,2.7399,2.7515,2.75,2.75,2.75,2.75,2.75,2.7464,2.7399,2.7348,2.7246,2.699,2.6753,2.6747,2.6486,2.6193,2.5737,2.5628,2.4622,2.2652,2.1524,2.1451,2.2225,2.276,2.282,2.2902,2.2902,2.3546,2.3541,2.3366,2.3107,2.3344,2.2927,2.2577,2.2577,2.2529,2.2104,2.1908,2.1673,2.1146,2.0534,1.9879,1.9325,1.8542,1.7668,1.6209,1.4237,1.2364,1.1137,0.9927,0.8769,0.7698,0.7042,0.622,0.5206,0.4271,0.326,0.2177,0.0466,-0.0466,-0.1011,-0.218,-0.3117,-0.3428,-0.3659,-0.3659,-0.3895,-0.4048,-0.4356,-0.475,-0.5819,-0.7503,-0.8116,-0.8192,-0.8353,-0.8263,-0.8401,-0.8335,-0.8259,-0.788,-0.8339,-0.8647,-0.8888,-0.9115,-0.9427,-0.9728,-1.0104,-1.0018,-1.0071,-1.0605,-1.1131,-1.1051,-1.0965,-1.1611,-1.2191,-1.2694,-1.345,-1.377,-1.4304,-1.4255,-1.421,-1.4077,-1.4027,-1.3943,-1.3976,-1.4127,2.9225,2.8826,2.8764,2.8574,2.8296,2.825,2.8235,2.8253,2.8268,2.851,2.8732,2.8826,2.8779,2.8779,2.8779,2.8826,2.8732,2.848,2.8321,2.8225,2.7735,2.7739,2.8054,2.7758,2.7644,2.748,2.7495,2.6136,2.46,2.3806,2.4117,2.4859,2.4981,2.4927,2.483,2.4676,2.5024,2.5149,2.5079,2.5245,2.5521,2.4865,2.463,2.456,2.4231,2.3897,2.3929,2.3696,2.3059,2.2091,2.1856,2.1397,2.0553,1.9391,1.8777,1.7543,1.5957,1.3757,1.2344,1.1224,1.0181,0.9236,0.8344,0.7567,0.6565,0.5896,0.5054,0.4428,0.311,0.1945,0.1087,0.0856,0.0544,-0.0155,-0.0854,-0.1085,-0.1315,-0.2882,-0.3196,-0.3115,-0.457,-0.4969,-0.5132,-0.5375,-0.5538,-0.5681,-0.5752,-0.5671,-0.5825,-0.628,-0.682,-0.7057,-0.7218,-0.7528,-0.7757,-0.8067,-0.8138,-0.8049,-0.8509,-0.9195,-0.9185,-0.91,-0.9331,-0.9916,-1.0358,-1.1169,-1.2084,-1.265,-1.2752,-1.2847,-1.2816,-1.2767,-1.2687,-1.2859,-1.3166,3.0558,2.9483,2.9499,2.9404,2.9216,2.9171,2.9182,2.9198,2.9198,2.9319,2.9483,2.9483,2.9483,2.9556,2.9483,2.9483,2.9438,2.9316,2.921,2.9239,2.8887,2.8902,2.9175,2.9175,2.91,2.9069,2.9023,2.8667,2.7164,2.6199,2.6133,2.6562,2.7321,2.7164,2.6509,2.6126,2.6169,2.6265,2.6361,2.6525,2.6582,2.6365,2.6119,2.6265,2.5889,2.5672,2.5494,2.5384,2.4856,2.4076,2.4006,2.3651,2.2968,2.2152,2.1653,2.0871,1.9781,1.7389,1.4427,1.3367,1.2424,1.1409,1.0444,0.9461,0.8543,0.7888,0.7226,0.636,0.5505,0.465,0.3643,0.2561,0.2172,0.1784,0.1551,0.1009,0.0388,-0.1012,-0.1874,-0.1717,-0.1402,-0.1555,-0.1863,-0.2093,-0.2636,-0.342,-0.3571,-0.3571,-0.3887,-0.4513,-0.498,-0.5446,-0.5529,-0.569,-0.5922,-0.623,-0.6227,-0.6224,-0.63,-0.6839,-0.7302,-0.7452,-0.7596,-0.791,-0.8362,-0.9326,-1.0433,-1.1028,-1.1172,-1.1365,-1.1532,-1.172,-1.2007,-1.2531,-1.2834,3.1627,3.0427,3.0285,3.012,2.9966,3.0022,3.0093,3.0079,3.0067,3.0159,3.0243,3.0285,3.0327,3.0369,3.0352,3.0311,3.0285,3.0243,3.0285,3.0269,3.0236,3.0328,3.0516,3.0573,3.0492,3.0508,3.0328,3.0054,2.958,2.8682,2.7906,2.7987,2.9185,2.9074,2.8076,2.7633,2.7762,2.792,2.7887,2.7902,2.7819,2.755,2.75,2.7449,2.7246,2.6938,2.6634,2.6424,2.609,2.5711,2.5628,2.5286,2.4832,2.4329,2.3848,2.3198,2.2416,2.0751,1.8019,1.6309,1.4985,1.3935,1.294,1.2025,1.1132,1.0129,0.912,0.8491,0.7934,0.7163,0.61,0.4563,0.4642,0.426,0.3492,0.2797,0.233,0.1854,0.1698,0.2162,0.247,0.2092,0.1778,0.1312,0.0464,-0.0854,-0.1322,-0.1321,-0.171,-0.2101,-0.2649,-0.3034,-0.3269,-0.3583,-0.4288,-0.437,-0.445,-0.445,-0.4453,-0.4763,-0.5372,-0.5684,-0.5915,-0.6153,-0.6468,-0.6615,-0.7343,-0.8477,-0.9595,-1.0087,-1.061,-1.1086,-1.1476,-1.1944,-1.2112,3.2466,3.2074,3.1647,3.1028,3.0352,3.0645,3.0853,3.0857,3.0845,3.1053,3.135,3.1445,3.1647,3.1845,3.1595,3.1448,3.1465,3.1482,3.1448,3.1339,3.123,3.145,3.1668,3.1704,3.1633,3.156,3.1411,3.1302,3.1107,3.037,3.0269,3.0791,3.0685,3.053,2.9941,2.9339,2.9294,2.9387,2.9342,2.9387,2.9207,2.8903,2.856,2.8591,2.7849,2.7276,2.766,2.7449,2.7187,2.6792,2.6931,2.6931,2.674,2.6208,2.5728,2.5298,2.4652,2.3277,2.1546,1.9715,1.8629,1.7446,1.6078,1.4866,1.4269,1.3331,1.2278,1.1107,1.0683,0.9958,0.909,0.8295,0.7925,0.7828,0.7266,0.6961,0.6572,0.627,0.6187,0.6377,0.6529,0.6504,0.6029,0.5761,0.3991,0.2618,0.1703,0.1548,0.1396,0.1009,0.0156,-0.0311,-0.0778,-0.1402,-0.2493,-0.2727,-0.2567,-0.2644,-0.2724,-0.3193,-0.3738,-0.3973,-0.3885,-0.4441,-0.4748,-0.445,-0.4538,-0.6364,-0.7956,-0.8939,-0.9606,-0.9972,-1.0263,-1.0588,-1.0641,3.3395,3.3117,3.2985,3.2385,3.1533,3.1688,3.1777,3.1742,3.1777,3.1845,3.2057,3.2229,3.2378,3.2506,3.2612,3.2559,3.2541,3.2456,3.2423,3.236,3.226,3.2331,3.2517,3.258,3.238,3.2396,3.2279,3.2229,3.2193,3.1725,3.19,3.1982,3.1684,3.1005,3.0626,3.041,3.0243,3.0185,3.01,3.0031,2.9946,2.9772,2.9553,2.9553,2.9419,2.9025,2.9178,2.9071,2.8886,2.8778,2.8824,2.8716,2.8561,2.8121,2.7719,2.7275,2.6601,2.5799,2.4498,2.2427,2.0277,1.9123,1.8029,1.7379,1.7197,1.5826,1.4952,1.4174,1.3682,1.2956,1.2767,1.1767,1.1126,1.1509,1.1424,1.0961,1.0645,1.0244,1.0143,1.0132,1.101,1.1642,1.0997,1.0356,0.8198,0.6152,0.5248,0.4488,0.4332,0.3876,0.2948,0.2406,0.2015,0.1629,0.0543,-0.0,-0.0543,-0.0698,-0.0853,-0.1085,-0.1317,-0.1625,-0.17,-0.2402,-0.3265,-0.3659,-0.4206,-0.5143,-0.6371,-0.7816,-0.8486,-0.8801,-0.9013,-0.9359,-0.9527,3.4117,3.3792,3.3884,3.3413,3.263,3.2613,3.2677,3.2746,3.2755,3.2791,3.2885,3.3076,3.314,3.3229,3.3351,3.3486,3.346,3.3387,3.3368,3.3312,3.3263,3.323,3.3259,3.3299,3.3377,3.327,3.3183,3.3146,3.3201,3.2955,3.2862,3.2781,3.2615,3.1992,3.1414,3.1021,3.0886,3.0909,3.0886,3.0784,3.0801,3.0542,3.0369,3.0285,3.0031,2.9886,2.9886,2.98,2.9929,3.0031,3.0133,3.0234,3.0133,2.9903,2.9597,2.9087,2.8513,2.7856,2.6549,2.4473,2.2412,2.2006,2.1,2.0545,1.9838,1.8736,1.7959,1.7216,1.6624,1.6225,1.606,1.4706,1.4291,1.4579,1.4174,1.3855,1.4011,1.3762,1.3809,1.3863,1.4579,1.4849,1.4714,1.3738,1.2118,0.9579,0.7223,0.6836,0.7266,0.6601,0.5561,0.5098,0.4788,0.4407,0.3947,0.339,0.2843,0.2315,0.2083,0.1774,0.1463,0.1379,0.1074,0.0539,-0.0617,-0.2478,-0.2786,-0.2312,-0.433,-0.6923,-0.743,-0.7975,-0.8411,-0.8811,-0.8914,3.4431,3.4197,3.4179,3.3821,3.3263,3.3339,3.3484,3.3625,3.3671,3.3778,3.3943,3.4074,3.4086,3.4091,3.4144,3.4236,3.4236,3.4209,3.4204,3.4204,3.4091,3.4269,3.4292,3.4228,3.4091,3.4297,3.4073,3.3894,3.4062,3.3332,3.3268,3.3542,3.3526,3.3169,3.2749,3.2731,3.2699,3.2699,3.2502,3.2213,3.1933,3.1499,3.1253,3.0999,3.0744,3.0647,3.0558,3.0558,3.0616,3.0666,3.0771,3.0788,3.0699,3.0608,3.0385,3.0091,2.9625,2.9268,2.8779,2.6689,2.5728,2.527,2.4075,2.3867,2.3907,2.2865,2.1354,2.0641,1.9835,1.8846,1.8081,1.7635,1.7885,1.8021,1.778,1.7725,1.7985,1.8124,1.8299,1.8385,1.751,1.6961,1.7205,1.6908,1.5573,1.3186,0.9939,0.9234,1.0211,1.0075,0.9268,0.8956,0.8788,0.8556,0.8171,0.6957,0.6208,0.5616,0.5503,0.5744,0.5715,0.5821,0.5179,0.4109,0.2118,0.0298,0.0604,0.1225,-0.1458,-0.4157,-0.655,-0.7388,-0.7861,-0.8094,-0.8103,3.4772,3.4711,3.4545,3.4357,3.4181,3.3986,3.3998,3.4067,3.4092,3.4124,3.4245,3.4375,3.4489,3.4572,3.4754,3.4851,3.4851,3.4714,3.4714,3.4694,3.4572,3.4467,3.4489,3.4532,3.451,3.4467,3.4383,3.4364,3.4375,3.3764,3.3826,3.4128,3.416,3.3689,3.3045,3.2795,3.2795,3.2781,3.2731,3.2666,3.2601,3.24,3.2213,3.2057,3.1827,3.1647,3.1459,3.1422,3.1418,3.1376,3.1435,3.1511,3.147,3.1435,3.1439,3.0993,3.0476,3.0573,3.0311,2.9279,2.8373,2.7546,2.6899,2.6528,2.613,2.5554,2.4761,2.4218,2.3392,2.2889,2.3054,2.2799,2.2981,2.3171,2.3076,2.3023,2.3145,2.3228,2.3328,2.3358,2.2859,2.2297,2.2225,2.1116,1.9717,1.888,1.6178,1.4356,1.4706,1.4587,1.4042,1.3636,1.3386,1.3089,1.2501,1.1287,1.0647,1.0269,1.0569,1.1057,1.0949,1.0437,1.069,1.0363,0.6659,0.3377,0.5156,0.5749,0.1821,-0.1221,-0.254,-0.5004,-0.6257,-0.6557,-0.6905,3.4964,3.4983,3.4851,3.4813,3.4832,3.4439,3.4255,3.4344,3.4435,3.4476,3.4524,3.4713,3.4831,3.4945,3.5073,3.5196,3.5193,3.5072,3.5001,3.4982,3.4851,3.4793,3.4755,3.4735,3.4813,3.4754,3.4715,3.4715,3.4653,3.4425,3.4475,3.4658,3.4666,3.4195,3.3642,3.3478,3.3478,3.3497,3.3487,3.3277,3.3148,3.2996,3.2858,3.2763,3.2648,3.2634,3.2519,3.2437,3.2369,3.2266,3.2266,3.2283,3.2266,3.2266,3.2265,3.1771,3.1499,3.1522,3.1244,3.1151,3.0112,2.9215,2.8971,2.8683,2.8248,2.7684,2.7463,2.7134,2.6819,2.6613,2.6519,2.6466,2.6545,2.6668,2.6614,2.6503,2.6453,2.6388,2.6323,2.6612,2.6533,2.6497,2.6374,2.5554,2.4095,2.3453,2.2604,2.0922,1.9105,1.8547,1.8232,1.7815,1.7409,1.6965,1.6468,1.5673,1.5128,1.4926,1.5186,1.5548,1.5335,1.4798,1.5705,1.6459,1.404,1.2188,1.1715,1.0566,0.7655,0.5056,0.3086,0.0147,-0.367,-0.4633,-0.4654,3.5001,3.5038,3.5092,3.5174,3.5184,3.4659,3.451,3.4653,3.4889,3.4963,3.5001,3.5091,3.5162,3.5181,3.5209,3.5239,3.5235,3.5203,3.5219,3.5223,3.5168,3.5168,3.5187,3.5187,3.5136,3.5155,3.5138,3.5016,3.4926,3.4889,3.502,3.5092,3.4945,3.4653,3.443,3.4345,3.4278,3.4176,3.4049,3.388,3.3723,3.3505,3.3364,3.323,3.31,3.3009,3.2903,3.2827,3.2763,3.2749,3.2781,3.2749,3.2716,3.2734,3.2734,3.2634,3.2398,3.2176,3.2004,3.1969,3.1882,3.1219,3.1036,3.092,3.0468,2.9753,2.9571,2.9275,2.8914,2.865,2.8516,2.8561,2.8605,2.8637,2.8653,2.8579,2.8564,2.8503,2.8426,2.8365,2.8089,2.7982,2.786,2.7394,2.7411,2.7191,2.6475,2.5906,2.4013,2.2018,2.1716,2.1389,2.0997,2.0676,2.0222,1.9969,1.9855,1.9722,1.9171,1.9324,1.9111,1.9532,2.0547,2.1378,2.1813,2.0641,1.7823,1.6123,1.4655,1.2105,0.9264,0.4028,-0.0222,-0.1202,-0.1566,3.5302,3.5353,3.5366,3.5425,3.5483,3.5254,3.5155,3.5117,3.5234,3.5209,3.5092,3.5321,3.533,3.5217,3.5383,3.5418,3.5412,3.5425,3.547,3.547,3.5451,3.5489,3.5489,3.5464,3.5418,3.5364,3.5307,3.5281,3.5138,3.52,3.52,3.5148,3.5108,3.5016,3.4981,3.4981,3.4793,3.4593,3.4483,3.4375,3.4265,3.4104,3.3944,3.3869,3.3723,3.3616,3.3439,3.3266,3.3166,3.289,3.3063,3.3063,3.2813,3.3184,3.3419,3.3154,3.3027,3.2947,3.2898,3.2867,3.288,3.2827,3.2574,3.2194,3.1881,3.1578,3.1418,3.1096,3.0991,3.0813,3.0721,3.0755,3.0768,3.0709,3.0627,3.0426,3.0409,3.0432,3.0359,3.0381,3.0089,2.9952,2.9782,2.9938,2.9985,3.0182,3.0045,2.9493,2.8547,2.6378,2.5206,2.4949,2.4855,2.4587,2.4791,2.4688,2.4638,2.445,2.3514,2.3167,2.3822,2.4447,2.5463,2.5606,2.5077,2.3683,2.1685,2.0346,1.928,1.777,1.4828,0.8798,0.3983,0.3117,0.1353,3.5456,3.5485,3.5535,3.5599,3.5631,3.564,3.56,3.5469,3.5449,3.5366,3.5273,3.5432,3.5477,3.5417,3.5521,3.5546,3.5488,3.5535,3.5585,3.5585,3.5629,3.5596,3.5607,3.5618,3.5543,3.5495,3.547,3.5432,3.535,3.5316,3.5297,3.5189,3.5189,3.5181,3.5171,3.5122,3.5016,3.4851,3.4715,3.4655,3.4614,3.4572,3.4489,3.4489,3.4371,3.4165,3.3968,3.3742,3.3561,3.3325,3.3542,3.3661,3.3459,3.3813,3.4018,3.3802,3.3784,3.3784,3.3739,3.3758,3.3776,3.3784,3.3739,3.3506,3.3161,3.2883,3.2823,3.2739,3.2919,3.3033,3.301,3.2985,3.288,3.2755,3.2482,3.2213,3.2213,3.2264,3.2316,3.2384,3.2281,3.2195,3.2178,3.2334,3.223,3.1847,3.1725,3.1707,3.1033,2.9772,2.8866,2.8506,2.8562,2.8574,2.8672,2.8217,2.7546,2.6939,2.6236,2.6323,2.7758,2.7887,2.7607,2.7592,2.759,2.622,2.4901,2.4351,2.332,2.1663,1.9826,1.546,1.0772,0.8174,0.5745,3.5538,3.5549,3.5579,3.566,3.5729,3.5833,3.5807,3.5702,3.5601,3.5527,3.5535,3.5599,3.5626,3.5558,3.562,3.5621,3.5611,3.564,3.5688,3.5649,3.5669,3.5678,3.5706,3.564,3.5669,3.565,3.5609,3.5579,3.5577,3.5512,3.5393,3.5245,3.5251,3.5287,3.5311,3.5296,3.5232,3.5171,3.5034,3.4944,3.4851,3.4714,3.4551,3.4593,3.4529,3.4461,3.4348,3.4284,3.4307,3.4141,3.4117,3.4307,3.4284,3.4284,3.4398,3.4401,3.4297,3.4353,3.4353,3.433,3.4379,3.4467,3.4574,3.4411,3.4116,3.3765,3.3663,3.3611,3.3647,3.3681,3.3655,3.355,3.3488,3.3479,3.3312,3.3179,3.3179,3.3198,3.3205,3.327,3.3212,3.3153,3.3189,3.3189,3.361,3.3188,3.3436,3.3702,3.3196,3.2429,3.1829,3.1431,3.097,3.0704,3.0465,3.0011,2.9575,2.8973,2.8548,2.8672,2.9597,2.954,2.917,2.9106,2.9013,2.9066,2.8279,2.7267,2.6039,2.469,2.2942,2.1384,1.8144,1.4164,1.0337,3.5811,3.5801,3.582,3.5833,3.5866,3.5883,3.5883,3.5846,3.5827,3.5724,3.563,3.5732,3.5749,3.5631,3.5749,3.5755,3.5703,3.5748,3.5807,3.5807,3.5794,3.5807,3.5884,3.5841,3.583,3.5788,3.5733,3.5685,3.5641,3.562,3.5646,3.567,3.5593,3.55,3.547,3.547,3.5445,3.5388,3.5307,3.52,3.5105,3.5088,3.5016,3.4963,3.4889,3.4773,3.4653,3.4548,3.4486,3.4379,3.4423,3.4464,3.4442,3.4486,3.4435,3.4381,3.4536,3.4651,3.4711,3.4694,3.4676,3.4735,3.4794,3.487,3.4756,3.4417,3.4226,3.4184,3.4184,3.4233,3.4233,3.4147,3.4055,3.4074,3.4022,3.4022,3.4022,3.4054,3.4043,3.4031,3.4006,3.4092,3.4141,3.4351,3.4692,3.5138,3.569,3.5824,3.5235,3.4515,3.3662,3.314,3.2446,3.2143,3.198,3.1759,3.1271,3.1288,3.1038,3.1212,3.1422,3.1153,3.0823,3.0418,3.0218,3.021,2.9837,2.8949,2.7789,2.6657,2.5854,2.4218,2.2502,1.905,1.5257,3.5894,3.5889,3.5889,3.5889,3.5889,3.5889,3.5889,3.5889,3.5889,3.5853,3.5741,3.5853,3.584,3.5714,3.5852,3.5869,3.5791,3.5869,3.5869,3.589,3.5892,3.5896,3.5955,3.5964,3.5935,3.5888,3.5851,3.5794,3.5741,3.5729,3.5779,3.5814,3.5727,3.5718,3.5659,3.56,3.5568,3.5489,3.5476,3.5432,3.5311,3.527,3.519,3.5141,3.5107,3.4982,3.4908,3.4793,3.4714,3.4614,3.4593,3.4793,3.4851,3.4908,3.4851,3.4812,3.485,3.4908,3.4963,3.4962,3.4939,3.5026,3.5151,3.5328,3.5355,3.5066,3.4983,3.495,3.4918,3.4935,3.4845,3.4773,3.4624,3.4566,3.4384,3.4255,3.4502,3.473,3.4839,3.5004,3.5229,3.5721,3.5773,3.581,3.61,3.6085,3.6807,3.7062,3.6629,3.6464,3.5653,3.4896,3.4215,3.3603,3.3341,3.3158,3.2922,3.3071,3.3136,3.285,3.257,3.2631,3.2491,3.1895,3.1405,3.1103,3.0684,2.9953,2.9164,2.7992,2.7554,2.7024,2.5194,2.3059,1.8848,3.5795,3.588,3.5894,3.5889,3.5889,3.5889,3.5889,3.5889,3.5889,3.5889,3.5878,3.5883,3.5889,3.5889,3.5889,3.5889,3.5889,3.5889,3.5894,3.5885,3.5885,3.5919,3.5929,3.5932,3.594,3.5945,3.5899,3.5879,3.5857,3.5861,3.5856,3.5794,3.5814,3.5885,3.5713,3.5648,3.5638,3.5601,3.56,3.5568,3.547,3.534,3.5281,3.5254,3.5226,3.5105,3.5053,3.5,3.4926,3.4925,3.4906,3.5047,3.52,3.5247,3.523,3.5192,3.5211,3.5268,3.5316,3.5347,3.5412,3.5496,3.565,3.5697,3.5706,3.5699,3.5623,3.5608,3.5572,3.5495,3.5416,3.5316,3.5189,3.5165,3.4924,3.4793,3.5153,3.559,3.5894,3.6102,3.6519,3.7107,3.7203,3.724,3.7374,3.7337,3.7452,3.7528,3.7603,3.768,3.7343,3.6668,3.6044,3.5477,3.4797,3.4454,3.4245,3.3957,3.3902,3.3799,3.3641,3.35,3.3342,3.3209,3.2734,3.2214,3.162,3.0912,3.0063,2.9307,2.8354,2.7773,2.7018,2.4627,2.1221,3.533,3.5892,3.5885,3.5889,3.5889,3.5889,3.5889,3.5889,3.5894,3.5889,3.5894,3.5894,3.5889,3.5889,3.5889,3.5894,3.5899,3.5899,3.5899,3.5892,3.5892,3.5932,3.5947,3.5953,3.5954,3.5936,3.5898,3.5898,3.5898,3.5957,3.5957,3.5857,3.5858,3.5893,3.5876,3.5822,3.5773,3.5749,3.5729,3.5732,3.565,3.5543,3.5457,3.5405,3.5369,3.5266,3.5207,3.5174,3.52,3.5254,3.5334,3.5393,3.5438,3.5488,3.5458,3.543,3.5458,3.5508,3.553,3.5591,3.5631,3.566,3.5752,3.5818,3.5849,3.5909,3.5912,3.6073,3.6009,3.5902,3.5816,3.5733,3.5643,3.5939,3.5916,3.6029,3.6272,3.6922,3.7482,3.7533,3.7658,3.7961,3.8089,3.8339,3.8799,3.8911,3.9358,3.9373,3.8931,3.8942,3.8907,3.8388,3.7771,3.6899,3.6045,3.5647,3.5382,3.5002,3.4678,3.4542,3.4376,3.4139,3.3992,3.4003,3.3673,3.3156,3.2511,3.1936,3.127,3.0421,2.9005,2.8112,2.7674,2.6107,2.2667]},{"header":{"parameterUnit":"m.s-1","parameterCategory":1,"la1":31.0,"la2":29.5877,"lo1":-88.7671,"lo2":-86.6584,"dy":0.0162,"dx":0.0185,"nx":115,"ny":88,"refTime":"2023-07-26T12:00:00:Z","depth":0,"parameterNumber":3,"parameterNumberName":"V-component_of_WINDS"},"data":[0.0,0.0,0.0,0.0,0.0,0.0,0.0,0.0,0.0,0.0,0.0,0.0,0.0,0.0,0.0,0.0,0.0,0.0,0.0,0.0,0.0,0.0,0.0,0.0,0.0,0.0,0.0,0.0,0.0,0.0,0.0,0.0,0.0,0.0,0.0,0.0,0.0,0.0,0.0,0.0,0.0,0.0,0.0,0.0,0.0,0.0,0.0,0.0,0.0,0.0,0.0,0.0,0.0,0.0,0.0,0.0,0.0,0.0,0.0,0.0,0.0,0.0,0.0,0.0,0.0,0.0,0.0,0.0,0.0,0.0,0.0,0.0,0.0,0.0,0.0,0.0,0.0,0.0,0.0,0.0,0.0,0.0,0.0,0.0,0.0,0.0,0.0,0.0,0.0,0.0,0.0,0.0,0.0,0.0,0.0,0.0,0.0,0.0,0.0,0.0,0.0,0.0,0.0,0.0,0.0,0.0,0.0,0.0,0.0,0.0,0.0,0.0,0.0,0.0,0.0,0.0,0.0,0.0,0.0,0.0,0.0,0.0,0.0,0.0,0.0,0.0,0.0,0.0,0.0,0.0,0.0,0.0,0.0,0.0,0.0,0.0,0.0,0.0,0.0,0.0,0.0,0.0,0.0,0.0,0.0,0.0,0.0,0.0,0.0,0.0,0.0,0.0,0.0,0.0,0.0,0.0,0.0,0.0,0.0,0.0,0.0,0.0,0.0,0.0,0.0,0.0,0.0,0.0,0.0,0.0,0.0,0.0,0.0,0.0,0.0,0.0,0.0,0.0,0.0,0.0,0.0,0.0,0.0,0.0,0.0,0.0,0.0,0.0,0.0,0.0,0.0,0.0,0.0,0.0,0.0,0.0,0.0,0.0,0.0,0.0,0.0,0.0,0.0,0.0,0.0,0.0,0.0,0.0,0.0,0.0,0.0,0.0,0.0,0.0,0.0,0.0,0.0,0.0,0.0,0.0,0.0,0.0,0.0,0.0,0.0,0.0,0.0,0.0,0.0,0.0,0.0,0.0,0.0,0.0,0.0,0.0,0.0,0.0,0.0,0.0,0.0,0.0,0.0,0.0,0.0,0.0,0.0,0.0,0.0,0.0,0.0,0.0,0.0,0.0,0.0,0.0,0.0,0.0,0.0,0.0,0.0,0.0,0.0,0.0,0.0,0.0,0.0,0.0,0.0,0.0,0.0,0.0,0.0,0.0,0.0,0.0,0.0,0.0,0.0,0.0,0.0,0.0,0.0,0.0,0.0,0.0,0.0,0.0,0.0,0.0,0.0,0.0,0.0,0.0,0.0,0.0,0.0,0.0,0.0,0.0,0.0,0.0,0.0,0.0,0.0,0.0,0.0,0.0,0.0,0.0,0.0,0.0,0.0,0.0,0.0,0.0,0.0,0.0,0.0,0.0,0.0,0.0,0.0,0.0,0.0,0.0,0.0,0.0,0.0,0.0,0.0,0.0,0.0,0.0,0.0,0.0,0.0,0.0,0.0,0.0,0.0,0.0,0.0,0.0,0.0,0.0,0.0,0.0,0.0,0.0,0.0,0.0,0.0,0.0,0.0,0.0,0.0,0.0,0.0,0.0,0.0,0.0,0.0,0.0,0.0,0.0,0.0,0.0,0.0,0.0,0.0,0.0,0.0,0.0,0.0,0.0,0.0,0.0,0.0,0.0,0.0,0.0,0.0,0.0,0.0,0.0,0.0,0.0,0.0,0.0,0.0,0.0,0.0,0.0,0.0,0.0,0.0,0.0,0.0,0.0,0.0,0.0,0.0,0.0,0.0,0.0,0.0,0.0,0.0,0.0,0.0,0.0,0.0,0.0,0.0,0.0,0.0,0.0,0.0,0.0,0.0,0.0,0.0,0.0,0.0,0.0,0.0,0.0,0.0,0.0,0.0,0.0,0.0,0.0,0.0,0.0,0.0,0.0,0.0,0.0,0.0,0.0,0.0,0.0,0.0,0.0,0.0,0.0,0.0,0.0,0.0,0.0,0.0,0.0,0.0,0.0,0.0,0.0,0.0,0.0,0.0,0.0,0.0,0.0,0.0,0.0,0.0,0.0,0.0,0.0,0.0,0.0,0.0,0.0,0.0,0.0,0.0,0.0,0.0,0.0,0.0,0.0,0.0,0.0,0.0,0.0,0.0,0.0,0.0,0.0,0.0,0.0,0.0,0.0,0.0,0.0,0.0,0.0,0.0,0.0,0.0,0.0,0.0,0.0,0.0,0.0,0.0,0.0,0.0,0.0,0.0,0.0,0.0,0.0,0.0,0.0,0.0,0.0,0.0,0.0,0.0,0.0,0.0,0.0,0.0,0.0,0.0,0.0,0.0,0.0,0.0,0.0,0.0,0.0,0.0,0.0,0.0,0.0,0.0,0.0,0.0,0.0,0.0,0.0,0.0,0.0,0.0,0.0,0.0,0.0,0.0,0.0,0.0,0.0,0.0,0.0,0.0,0.0,0.0,0.0,0.0,0.0,0.0,0.0,0.0,0.0,0.0,0.0,0.0,0.0,0.0,0.0,0.0,0.0,0.0,0.0,0.0,0.0,0.0,0.0,0.0,0.0,0.0,0.0,0.0,0.0,0.0,0.0,0.0,0.0,0.0,0.0,0.0,0.0,0.0,0.0,0.0,0.0,0.0,0.0,0.0,0.0,0.0,0.0,0.0,0.0,0.0,0.0,0.0,0.0,0.0,0.0,0.0,0.0,0.0,0.0,0.0,0.0,0.0,0.0,0.0,0.0,0.0,0.0,0.0,0.0,0.0,0.0,0.0,0.0,0.0,0.0,0.0,0.0,0.0,0.0,0.0,0.0,0.0,0.0,0.0,0.0,0.0,0.0,0.0,0.0,0.0,0.0,0.0,0.0,0.0,0.0,0.0,0.0,0.0,0.0,0.0,0.0,0.0,0.0,0.0,0.0,0.0,0.0,0.0,0.0,0.0,0.0,0.0,0.0,0.0,0.0,0.0,0.0,0.0,0.0,0.0,0.0,0.0,0.0,0.0,0.0,0.0,0.0,0.0,0.0,0.0,0.0,0.0,0.0,0.0,0.0,0.0,0.0,0.0,0.0,0.0,0.0,0.0,0.0,0.0,0.0,0.0,0.0,0.0,0.0,0.0,0.0,0.0,0.0,0.0,0.0,0.0,0.0,0.0,0.0,0.0,0.0,0.0,0.0,0.0,0.0,0.0,0.0,0.0,0.0,0.0,0.0,0.0,0.0,0.0,0.0,0.0,0.0,0.0,0.0,0.0,0.0,0.0,0.0,0.0,0.0,0.0,0.0,0.0,0.0,0.0,0.0,0.0,0.0,0.0,0.0,0.0,0.0,0.0,0.0,0.0,0.0,0.0,0.0,0.0,0.0,0.0,0.0,0.0,0.0,0.0,0.0,0.0,0.0,0.0,0.0,0.0,0.0,0.0,0.0,0.0,0.0,0.0,0.0,0.0,0.0,0.0,0.0,0.0,0.0,0.0,0.0,0.0,0.0,0.0,0.0,0.0,0.0,0.0,0.0,0.0,0.0,0.0,0.0,0.0,0.0,0.0,0.0,0.0,0.0,0.0,0.0,0.0,0.0,0.0,0.0,0.0,0.0,0.0,0.0,0.0,0.0,0.0,0.0,0.0,0.0,0.0,0.0,0.0,0.0,0.0,0.0,0.0,0.0,0.0,0.0,0.0,0.0,0.0,0.0,0.0,0.0,0.0,0.0,0.0,0.0,0.0,0.0,0.0,0.0,0.0,0.0,0.0,0.0,0.0,0.0,0.0,0.0,0.0,0.0,0.0,0.0,0.0,0.0,0.0,0.0,0.0,0.0,0.0,0.0,0.0,0.0,0.0,0.0,0.0,0.0,0.0,0.0,0.0,0.0,0.0,0.0,0.0,0.0,0.0,0.0,0.0,0.0,0.0,0.0,0.0,0.0,0.0,0.0,0.0,0.0,0.0,0.0,0.0,0.0,0.0,0.0,0.0,0.0,0.0,0.0,0.0,0.0,0.0,0.0,0.0,0.0,0.0,0.0,0.0,0.0,0.0,0.0,0.0,0.0,0.0,0.0,0.0,0.0,0.0,0.0,0.0,0.0,0.0,0.0,0.0,0.0,0.0,0.0,0.0,0.0,0.0,0.0,0.0,0.0,0.0,0.0,0.0,0.0,0.0,0.0,0.0,0.0,0.0,0.0,0.0,0.0,0.0,0.0,0.0,0.0,0.0,0.0,0.0,0.0,0.0,0.0,0.0,0.0,0.0,0.0,-0.2074,0.0,0.0,0.0,-0.3132,0.0,0.0,0.0,0.0,0.0,0.0,0.0,0.0,0.0,0.0,0.0,0.0,0.0,0.0,0.0,0.0,0.0,0.0,0.0,0.0,0.0,0.0,0.0,0.0,0.0,0.0,0.0,0.0,0.0,0.0,0.0,0.0,0.0,0.0,0.0,0.0,0.0,0.0,0.0,0.0,0.0,0.0,0.0,0.0,0.0,0.0,0.0,0.0,0.0,0.0,0.0,0.0,0.0,0.0,0.0,0.0,0.0,0.0,0.0,0.0,0.0,0.0,0.0,0.0,0.0,0.0,0.0,0.0,0.0,0.0,0.0,0.0,0.0,0.0,0.0,0.0,0.0,0.0,0.0,0.0,0.0,0.0,0.0,0.0,0.0,0.0,0.0,0.0,0.0,0.0,0.0,0.0,0.0,0.0,0.0,0.0,0.0,0.0,0.0,0.0,0.0,0.0,0.0,0.0,0.0,0.0,0.0,0.0,0.0,0.0,-0.2296,-0.2244,-0.3079,-0.3688,-0.4003,0.0,0.0,0.0,0.0,0.0,0.0,0.0,0.0,0.0,0.0,0.0,0.0,0.0,0.0,0.0,0.0,0.0,0.0,0.0,0.0,0.0,0.0,0.0,0.0,0.0,0.0,0.0,0.0,0.0,0.0,0.0,0.0,0.0,0.0,0.0,0.0,0.0,0.0,0.0,0.0,0.0,0.0,0.0,0.0,0.0,0.0,0.0,0.0,0.0,0.0,0.0,0.0,0.0,0.0,0.0,0.0,0.0,0.0,0.0,0.0,0.0,0.0,0.0,0.0,0.0,0.0,0.0,0.0,0.0,0.0,0.0,0.0,0.0,0.0,0.0,0.0,0.0,0.0,0.0,0.0,0.0,0.0,0.0,0.0,0.0,0.0,0.0,0.0,0.0,0.0,0.0,0.0,0.0,0.0,0.0,0.0,0.0,0.0,0.0,0.0,0.0,0.0,0.0,0.0,0.0,0.0,0.0,0.0,0.0,0.0,0.0,0.0,-0.4132,-0.5194,-0.6308,0.0,0.0,0.0,0.0,0.0,0.0,0.0,0.0,0.0,0.0,0.0,0.0,0.0,0.0,0.0,0.0,0.0,0.0,0.0,0.0,0.0,0.0,0.0,0.0,0.0,0.0,0.0,0.0,0.0,0.0,0.0,0.0,0.0,0.0,0.0,0.0,0.0,0.0,0.0,0.0,0.0,0.0,0.0,0.0,0.0,0.0,0.0,0.0,0.0,0.0,0.0,0.0,0.0,0.0,0.0,0.0,0.0,0.0,0.0,0.0,0.0,0.0,0.0,0.0,0.0,0.0,0.0,0.0,0.0,0.0,0.0,0.0,0.0,0.0,0.0,0.0,0.0,0.0,0.0,0.0,0.0,0.0,0.0,0.0,0.0,0.0,0.0,0.0,0.0,0.0,0.0,0.0,0.0,0.0,0.0,0.0,0.0,0.0,0.0,0.0,0.0,0.0,0.0,0.0,0.0,0.0,0.0,0.0,0.0,0.0,-0.3405,-0.3289,-0.5139,0.0,-1.0791,0.0,0.0,0.0,0.0,0.0,0.0,0.0,0.0,0.0,0.0,0.0,0.0,0.0,0.0,0.0,0.0,0.0,0.0,0.0,0.0,0.0,0.0,0.0,0.0,0.0,0.0,0.0,0.0,0.0,0.0,0.0,0.0,0.0,0.0,0.0,0.0,0.0,0.0,0.0,0.0,0.0,0.0,0.0,0.0,0.0,0.0,0.0,0.0,0.0,0.0,0.0,0.0,0.0,0.0,0.0,0.0,0.0,0.0,0.0,0.0,0.0,0.0,0.0,0.0,0.0,0.0,0.0,0.0,0.0,0.0,0.0,0.0,0.0,0.0,0.0,0.0,0.0,0.0,0.0,0.0,0.0,0.0,0.0,0.0,0.0,0.0,0.0,0.0,0.0,0.0,0.0,0.0,0.0,0.0,0.0,0.0,0.0,0.0,0.0,0.0,0.0,0.0,0.0,0.0,0.0,0.0,0.0,0.0,0.0,0.0,-0.63,-0.6376,-0.8933,-1.1404,0.0,0.0,0.0,0.0,0.0,0.0,0.0,0.0,0.0,0.0,0.0,0.0,0.0,0.0,0.0,0.0,0.0,0.0,0.0,0.0,0.0,0.0,0.0,0.0,0.0,0.0,0.0,0.0,0.0,0.0,0.0,0.0,0.0,0.0,0.0,0.0,0.0,0.0,0.0,0.0,0.0,0.0,0.0,0.0,0.0,0.0,0.0,0.0,0.0,0.0,0.0,0.0,0.0,0.0,0.0,0.0,0.0,0.0,0.0,0.0,0.0,0.0,0.0,0.0,0.0,0.0,0.0,0.0,0.0,0.0,0.0,0.0,0.0,0.0,0.0,0.0,0.0,0.0,0.0,0.0,0.0,0.0,0.0,0.0,0.0,0.0,0.0,0.0,0.0,0.0,0.0,0.0,0.0,0.0,0.0,0.0,0.0,0.0,0.0,0.0,0.0,0.0,0.0,0.0,0.0,0.0,0.0,0.0,0.0,0.0,-0.7787,-0.872,-0.9732,-1.2414,-1.4687,-1.6327,0.0,0.0,0.0,0.0,0.0,0.0,0.0,0.0,0.0,0.0,0.0,0.0,0.0,0.0,0.0,0.0,0.0,0.0,0.0,0.0,0.0,0.0,0.0,0.0,0.0,0.0,0.0,0.0,0.0,0.0,0.0,0.0,0.0,0.0,0.0,0.0,0.0,0.0,0.0,0.0,0.0,0.0,0.0,0.0,0.0,0.0,0.0,0.0,0.0,0.0,0.0,0.0,0.0,0.0,0.0,0.0,0.0,0.0,0.0,0.0,0.0,0.0,0.0,0.0,0.0,0.0,0.0,0.0,0.0,0.0,0.0,0.0,0.0,0.0,0.0,0.0,0.0,0.0,0.0,0.0,0.0,0.0,0.0,0.0,0.0,0.0,0.0,0.0,0.0,0.0,0.0,0.0,0.0,0.0,0.0,0.0,0.0,0.0,0.0,0.0,0.0,0.0,0.0,0.0,0.0,0.0,0.0,0.0,-0.8386,-0.8636,-1.0013,-1.2522,-1.4725,-1.6871,0.0,0.0,0.0,0.0,0.0,0.0,0.0,0.0,0.0,0.0,0.0,0.0,0.0,0.0,0.0,0.0,0.0,0.0,0.0,0.0,0.0,0.0,0.0,0.0,0.0,0.0,0.0,0.0,0.0,0.0,0.0,0.0,0.0,0.0,0.0,0.0,0.0,0.0,0.0,0.0,0.0,0.0,0.0,0.0,0.0,0.0,0.0,0.0,0.0,0.0,0.0,0.0,0.0,0.0,0.0,0.0,0.0,0.0,0.0,0.0,0.0,0.0,0.0,0.0,0.0,0.0,0.0,0.0,0.0,0.0,0.0,0.0,0.0,0.0,0.0,0.0,0.0,0.0,0.0,0.0,0.0,0.0,0.0,0.0,0.0,0.0,0.0,0.0,0.0,0.0,0.0,0.0,0.0,0.0,0.0,0.0,0.0,0.0,0.0,0.0,0.0,0.0,0.0,0.0,0.0,0.0,0.0,0.0,0.0,-0.9403,-1.0707,-1.2493,-1.4602,-1.6605,-1.851,0.0,0.0,0.0,0.0,0.0,0.0,0.0,0.0,0.0,0.0,0.0,0.0,0.0,0.0,0.0,0.0,0.0,0.0,0.0,0.0,0.0,0.0,0.0,0.0,0.0,0.0,0.0,0.0,0.0,0.0,0.0,0.0,0.0,0.0,0.0,0.0,0.0,0.0,0.0,0.0,0.0,0.0,0.0,0.0,0.0,0.0,0.0,0.0,0.0,0.0,0.0,0.0,0.0,0.0,0.0,0.0,0.0,0.0,0.0,0.0,0.0,0.0,0.0,0.0,0.0,0.0,0.0,0.0,0.0,0.0,0.0,0.0,0.0,0.0,0.0,0.0,0.0,0.0,0.0,0.0,0.0,0.0,0.0,0.0,0.0,0.0,0.0,0.0,0.0,0.0,0.0,0.0,0.0,0.0,0.0,0.0,0.0,0.0,0.0,0.0,0.0,0.0,0.0,0.0,0.0,0.0,0.0,0.0,0.0,-1.0612,0.0,-1.3786,-1.5525,-1.729,-1.8986,0.0,0.0,0.0,0.0,0.0,0.0,0.0,0.0,0.0,0.0,0.0,0.0,0.0,0.0,0.0,0.0,0.0,0.0,0.0,0.0,0.0,0.0,0.0,0.0,0.0,0.0,0.0,0.0,0.0,0.0,0.0,0.0,0.0,0.0,0.0,0.0,0.0,0.0,0.0,0.0,0.0,0.0,0.0,0.0,0.0,0.0,0.0,0.0,0.0,0.0,0.0,0.0,0.0,0.0,0.0,0.0,0.0,0.0,0.0,0.0,0.0,0.0,0.0,0.0,0.0,0.0,0.0,0.0,0.0,0.0,0.0,0.0,0.0,0.0,0.0,0.0,0.0,0.0,0.0,0.0,0.0,0.0,0.0,0.0,0.0,0.0,0.0,0.0,0.0,0.0,0.0,0.0,0.0,0.0,0.0,0.0,0.0,0.0,0.0,0.0,0.0,0.0,0.0,0.0,0.0,0.0,0.0,0.0,-1.3318,-1.2125,-1.2562,-1.3617,-1.5184,-1.6712,-1.8276,0.0,0.0,0.0,0.0,0.0,0.0,0.0,0.0,0.0,0.0,0.0,0.0,0.0,0.0,0.0,0.0,0.0,0.0,0.0,0.0,0.0,0.0,0.0,0.0,0.0,0.0,0.0,0.0,0.0,0.0,0.0,0.0,0.0,0.0,0.0,0.0,0.0,0.0,0.0,0.0,0.0,0.0,0.0,0.0,0.0,0.0,0.0,0.0,0.0,0.0,0.0,0.0,0.0,0.0,0.0,0.0,0.0,0.0,0.0,0.0,0.0,0.0,0.0,0.0,0.0,0.0,0.0,0.0,0.0,0.0,0.0,0.0,0.0,0.0,0.0,0.0,0.0,0.0,0.0,0.0,0.0,0.0,0.0,0.0,0.0,0.0,0.0,0.0,0.0,0.0,0.0,0.0,0.0,0.0,0.0,0.0,0.0,0.0,0.0,0.0,0.0,0.0,0.0,0.0,0.0,0.0,0.0,0.0,0.0,-1.2154,-1.2848,-1.385,-1.4994,-1.6451,-1.7862,0.0,0.0,0.0,0.0,0.0,0.0,0.0,0.0,0.0,0.0,0.0,0.0,0.0,0.0,0.0,0.0,0.0,0.0,0.0,0.0,0.0,0.0,0.0,0.0,0.0,0.0,0.0,0.0,0.0,0.0,0.0,0.0,0.0,0.0,0.0,0.0,0.0,0.0,0.0,0.0,0.0,0.0,0.0,0.0,0.0,0.0,0.0,0.0,0.0,0.0,0.0,0.0,0.0,0.0,0.0,0.0,0.0,0.0,0.0,0.0,0.0,0.0,0.0,0.0,0.0,0.0,0.0,0.0,0.0,0.0,0.0,0.0,0.0,0.0,0.0,0.0,0.0,0.0,0.0,0.0,0.0,0.0,0.0,0.0,0.0,0.0,0.0,0.0,0.0,0.0,0.0,0.0,0.0,0.0,0.0,0.0,0.0,0.0,0.0,0.0,0.0,0.0,0.0,0.0,0.0,0.0,0.0,0.0,0.0,-1.3156,-1.375,-1.4488,-1.521,-1.6737,-1.7947,-1.8861,0.0,0.0,0.0,0.0,0.0,0.0,0.0,0.0,0.0,0.0,0.0,0.0,0.0,0.0,0.0,0.0,0.0,0.0,0.0,0.0,0.0,0.0,0.0,0.0,0.0,0.0,0.0,0.0,0.0,0.0,0.0,0.0,0.0,0.0,0.0,0.0,0.0,0.0,0.0,0.0,0.0,0.0,0.0,0.0,0.0,0.0,0.0,0.0,0.0,0.0,0.0,0.0,0.0,0.0,0.0,0.0,0.0,0.0,0.0,0.0,0.0,0.0,0.0,0.0,0.0,0.0,0.0,0.0,0.0,0.0,0.0,0.0,0.0,0.0,0.0,0.0,0.0,0.0,0.0,0.0,0.0,0.0,0.0,0.0,0.0,0.0,0.0,0.0,0.0,0.0,0.0,0.0,0.0,0.0,0.0,0.0,0.0,0.0,0.0,0.0,0.0,0.0,0.0,0.0,0.0,0.0,0.0,0.0,-1.4868,-1.5269,-1.5576,-1.5866,-1.7424,-1.8416,0.0,0.0,0.0,0.0,0.0,0.0,0.0,0.0,0.0,0.0,0.0,0.0,0.0,0.0,0.0,0.0,0.0,0.0,0.0,0.0,0.0,0.0,0.0,0.0,0.0,0.0,0.0,0.0,0.0,0.0,0.0,0.0,0.0,0.0,0.0,0.0,0.0,0.0,0.0,0.0,0.0,0.0,0.0,0.0,0.0,0.0,0.0,0.0,0.0,0.0,0.0,0.0,0.0,0.0,0.0,0.0,0.0,0.0,0.0,0.0,0.0,0.0,0.0,0.0,0.0,0.0,0.0,0.0,0.0,0.0,0.0,0.0,0.0,0.0,0.0,0.0,0.0,0.0,0.0,0.0,0.0,0.0,0.0,0.0,0.0,0.0,0.0,0.0,0.0,0.0,0.0,0.0,0.0,0.0,0.0,0.0,0.0,0.0,0.0,0.0,0.0,0.0,0.0,0.0,0.0,0.0,0.0,0.0,0.0,-1.5928,-1.7422,-1.8136,-1.7938,-1.8191,-1.8798,0.0,0.0,0.0,0.0,0.0,0.0,0.0,0.0,0.0,0.0,0.0,0.0,0.0,0.0,0.0,0.0,0.0,0.0,0.0,0.0,0.0,0.0,0.0,0.0,0.0,0.0,0.0,0.0,0.0,0.0,0.0,0.0,0.0,0.0,0.0,0.0,0.0,0.0,0.0,0.0,0.0,0.0,0.0,0.0,0.0,0.0,0.0,0.0,0.0,0.0,0.0,0.0,0.0,0.0,0.0,0.0,0.0,0.0,0.0,0.0,0.0,0.0,0.0,0.0,0.0,0.0,0.0,0.0,0.0,0.0,0.0,0.0,0.0,0.0,0.0,0.0,0.0,0.0,0.0,0.0,0.0,0.0,0.0,0.0,0.0,0.0,0.0,0.0,0.0,0.0,0.0,0.0,0.0,0.0,0.0,0.0,0.0,0.0,0.0,0.0,0.0,0.0,0.0,0.0,0.0,0.0,0.0,0.0,-1.6321,-1.7109,-1.8955,-2.0084,-2.0298,-1.9469,-1.9476,0.0,0.0,0.0,0.0,0.0,0.0,0.0,0.0,0.0,0.0,0.0,0.0,0.0,0.0,0.0,0.0,0.0,0.0,0.0,0.0,0.0,0.0,0.0,0.0,0.0,0.0,0.0,0.0,0.0,0.0,0.0,0.0,0.0,0.0,0.0,0.0,0.0,0.0,0.0,0.0,0.0,0.0,0.0,0.0,0.0,0.0,0.0,0.0,0.0,0.0,0.0,0.0,0.0,0.0,0.0,0.0,0.0,0.0,0.0,0.0,0.0,0.0,0.0,0.0,0.0,0.0,0.0,0.0,0.0,0.0,0.0,0.0,0.0,0.0,0.0,0.0,0.0,0.0,0.0,0.0,0.0,0.0,0.0,0.0,0.0,0.0,0.0,0.0,0.0,0.0,0.0,0.0,0.0,0.0,0.0,0.0,0.0,0.0,0.0,0.0,0.0,0.0,0.0,0.0,0.0,0.0,0.0,0.0,-1.727,-1.8275,-1.9975,-2.1393,-2.2469,-2.1008,-2.0342,0.0,0.0,0.0,0.0,0.0,0.0,0.0,0.0,0.0,0.0,0.0,0.0,0.0,0.0,0.0,0.0,0.0,0.0,0.0,0.0,0.0,0.0,0.0,0.0,0.0,0.0,0.0,0.0,0.0,0.0,0.0,0.0,0.0,0.0,0.0,0.0,0.0,0.0,0.0,0.0,0.0,0.0,0.0,0.0,0.0,0.0,0.0,0.0,0.0,0.0,0.0,0.0,0.0,0.0,0.0,0.0,0.0,0.0,0.0,0.0,0.0,0.0,0.0,0.0,0.0,0.0,0.0,0.0,0.0,0.0,0.0,0.0,0.0,0.0,0.0,0.0,0.0,0.0,0.0,0.0,0.0,0.0,0.0,0.0,0.0,0.0,0.0,0.0,0.0,0.0,0.0,0.0,0.0,0.0,0.0,0.0,0.0,0.0,0.0,0.0,0.0,0.0,0.0,0.0,0.0,0.0,0.0,0.0,-1.7671,-1.8223,-2.0126,-2.1565,-2.2592,-2.1716,-2.1533,0.0,0.0,0.0,0.0,0.0,0.0,0.0,0.0,0.0,0.0,0.0,0.0,0.0,0.0,0.0,0.0,0.0,0.0,0.0,0.0,0.0,0.0,0.0,0.0,0.0,0.0,0.0,0.0,0.0,0.0,0.0,0.0,0.0,0.0,0.0,0.0,0.0,0.0,0.0,0.0,0.0,0.0,0.0,0.0,0.0,0.0,0.0,0.0,-3.0339,0.0,0.0,0.0,0.0,0.0,0.0,0.0,0.0,0.0,0.0,0.0,0.0,0.0,0.0,0.0,0.0,0.0,0.0,0.0,0.0,0.0,0.0,0.0,0.0,0.0,0.0,0.0,0.0,0.0,0.0,0.0,0.0,0.0,0.0,0.0,0.0,0.0,0.0,0.0,0.0,0.0,0.0,0.0,0.0,0.0,0.0,0.0,0.0,0.0,0.0,0.0,0.0,0.0,0.0,0.0,0.0,0.0,0.0,0.0,-1.8008,-1.9166,-2.0682,-2.1877,-2.2555,-2.2355,-2.2304,0.0,0.0,0.0,0.0,0.0,0.0,0.0,0.0,0.0,0.0,0.0,0.0,0.0,0.0,0.0,0.0,0.0,0.0,0.0,0.0,0.0,0.0,0.0,0.0,0.0,0.0,0.0,0.0,0.0,0.0,0.0,0.0,0.0,0.0,0.0,0.0,0.0,0.0,0.0,0.0,0.0,0.0,0.0,0.0,0.0,0.0,0.0,0.0,0.0,0.0,0.0,0.0,0.0,0.0,0.0,0.0,0.0,0.0,0.0,0.0,0.0,0.0,0.0,0.0,0.0,0.0,0.0,0.0,0.0,0.0,0.0,0.0,0.0,0.0,0.0,0.0,0.0,0.0,0.0,0.0,0.0,0.0,0.0,0.0,0.0,0.0,0.0,0.0,0.0,0.0,0.0,0.0,0.0,0.0,0.0,0.0,0.0,0.0,0.0,0.0,0.0,0.0,0.0,0.0,0.0,0.0,0.0,-1.7291,-1.8356,-2.0138,-2.123,-2.2063,-2.2592,-2.2723,-2.2698,-2.2512,0.0,0.0,0.0,0.0,0.0,0.0,0.0,0.0,0.0,0.0,0.0,0.0,0.0,0.0,0.0,0.0,0.0,0.0,0.0,0.0,0.0,0.0,0.0,0.0,0.0,0.0,0.0,0.0,0.0,0.0,0.0,0.0,0.0,0.0,0.0,0.0,0.0,0.0,-2.6138,-2.7019,0.0,0.0,0.0,0.0,0.0,0.0,0.0,0.0,-2.8446,0.0,0.0,0.0,0.0,0.0,0.0,0.0,0.0,0.0,0.0,0.0,0.0,0.0,0.0,0.0,0.0,0.0,0.0,0.0,0.0,0.0,0.0,0.0,0.0,0.0,0.0,0.0,0.0,0.0,0.0,0.0,0.0,0.0,0.0,0.0,0.0,0.0,0.0,0.0,0.0,0.0,0.0,0.0,0.0,0.0,0.0,0.0,0.0,0.0,0.0,0.0,0.0,0.0,0.0,0.0,0.0,-1.6714,-1.756,-1.8676,-2.0072,-2.091,-2.1702,-2.2579,-2.2464,-2.2444,-2.2509,0.0,0.0,0.0,0.0,0.0,0.0,0.0,0.0,0.0,0.0,0.0,0.0,0.0,0.0,0.0,0.0,0.0,0.0,0.0,0.0,0.0,0.0,0.0,0.0,0.0,0.0,0.0,0.0,0.0,0.0,0.0,0.0,0.0,0.0,0.0,0.0,0.0,0.0,0.0,-2.6134,-2.615,0.0,0.0,0.0,0.0,0.0,0.0,0.0,0.0,-2.7964,0.0,0.0,0.0,0.0,0.0,0.0,0.0,0.0,0.0,0.0,0.0,0.0,0.0,0.0,0.0,0.0,0.0,0.0,0.0,0.0,0.0,0.0,0.0,0.0,0.0,0.0,0.0,0.0,0.0,0.0,0.0,0.0,0.0,0.0,0.0,0.0,0.0,0.0,0.0,0.0,0.0,0.0,0.0,0.0,0.0,0.0,0.0,0.0,0.0,0.0,0.0,0.0,0.0,0.0,0.0,-1.7379,-1.8267,-1.9354,-2.0643,-2.1019,-2.1651,-2.2531,-2.2405,-2.239,0.0,0.0,0.0,0.0,0.0,0.0,0.0,0.0,0.0,0.0,0.0,0.0,0.0,0.0,0.0,0.0,0.0,0.0,0.0,0.0,0.0,0.0,0.0,0.0,0.0,0.0,0.0,0.0,0.0,0.0,0.0,0.0,0.0,0.0,0.0,0.0,0.0,0.0,0.0,0.0,-2.4704,-2.4854,-2.5057,0.0,0.0,0.0,0.0,0.0,0.0,-2.7665,-2.7433,0.0,0.0,0.0,0.0,0.0,0.0,0.0,0.0,0.0,0.0,0.0,0.0,0.0,0.0,0.0,0.0,0.0,0.0,0.0,0.0,0.0,0.0,0.0,0.0,0.0,0.0,0.0,0.0,0.0,0.0,0.0,0.0,0.0,0.0,0.0,0.0,0.0,0.0,0.0,0.0,0.0,0.0,0.0,0.0,0.0,0.0,0.0,0.0,0.0,0.0,0.0,0.0,0.0,0.0,0.0,-1.7986,-1.8951,-2.0007,-2.1112,-2.1285,-2.1765,-2.2592,-2.2455,-2.2432,0.0,0.0,0.0,0.0,0.0,0.0,0.0,0.0,0.0,0.0,0.0,0.0,0.0,0.0,0.0,0.0,0.0,0.0,0.0,0.0,0.0,0.0,0.0,0.0,0.0,0.0,0.0,0.0,0.0,0.0,0.0,0.0,0.0,0.0,0.0,0.0,0.0,0.0,0.0,0.0,0.0,-2.3727,-2.38,-2.4452,0.0,0.0,0.0,0.0,-2.7304,-2.7154,0.0,0.0,0.0,0.0,0.0,0.0,0.0,0.0,0.0,0.0,0.0,0.0,0.0,0.0,0.0,0.0,0.0,0.0,0.0,0.0,0.0,0.0,0.0,0.0,0.0,0.0,0.0,0.0,0.0,0.0,0.0,0.0,0.0,0.0,0.0,0.0,0.0,0.0,0.0,0.0,0.0,0.0,0.0,0.0,0.0,0.0,0.0,0.0,0.0,0.0,0.0,0.0,0.0,0.0,0.0,0.0,-1.802,-1.9301,-2.0347,-2.1198,-2.1639,-2.2051,-2.2579,-2.2683,-2.2682,0.0,0.0,0.0,0.0,0.0,0.0,0.0,0.0,0.0,0.0,0.0,0.0,0.0,0.0,0.0,0.0,0.0,0.0,0.0,0.0,0.0,0.0,0.0,0.0,0.0,0.0,0.0,0.0,0.0,0.0,0.0,0.0,0.0,0.0,0.0,0.0,0.0,0.0,0.0,0.0,0.0,-2.2848,-2.3286,-2.3631,-2.3944,0.0,0.0,-2.6016,-2.657,-2.7227,0.0,0.0,0.0,0.0,0.0,0.0,0.0,0.0,0.0,0.0,0.0,0.0,0.0,0.0,0.0,0.0,0.0,0.0,0.0,0.0,0.0,0.0,0.0,0.0,0.0,0.0,0.0,0.0,0.0,0.0,0.0,0.0,0.0,0.0,0.0,0.0,0.0,0.0,0.0,0.0,0.0,0.0,0.0,0.0,0.0,0.0,0.0,0.0,0.0,0.0,0.0,0.0,0.0,0.0,0.0,-1.8167,-1.8642,-2.0007,-2.0991,-2.1577,-2.1827,-2.2261,-2.3053,-2.2965,-2.2766,0.0,0.0,0.0,0.0,0.0,0.0,0.0,0.0,0.0,0.0,0.0,0.0,0.0,0.0,0.0,0.0,0.0,0.0,0.0,0.0,0.0,0.0,0.0,0.0,0.0,0.0,0.0,0.0,0.0,0.0,0.0,0.0,0.0,0.0,0.0,0.0,0.0,0.0,0.0,0.0,0.0,0.0,-2.2936,-2.3354,0.0,0.0,0.0,-2.5254,-2.5986,0.0,0.0,0.0,0.0,0.0,0.0,0.0,0.0,0.0,0.0,0.0,0.0,0.0,0.0,0.0,0.0,0.0,0.0,0.0,0.0,0.0,0.0,0.0,0.0,0.0,0.0,0.0,0.0,0.0,0.0,0.0,0.0,0.0,0.0,0.0,0.0,0.0,0.0,0.0,0.0,0.0,0.0,0.0,0.0,0.0,0.0,0.0,0.0,0.0,0.0,0.0,0.0,0.0,0.0,0.0,0.0,0.0,-1.9111,-2.056,-2.1514,-2.1877,-2.2137,-2.2689,-2.3531,-2.3497,0.0,0.0,0.0,0.0,0.0,0.0,0.0,0.0,0.0,0.0,0.0,0.0,0.0,0.0,0.0,0.0,0.0,0.0,0.0,0.0,0.0,0.0,0.0,0.0,0.0,0.0,0.0,-2.4792,0.0,0.0,0.0,0.0,0.0,0.0,0.0,0.0,0.0,0.0,0.0,0.0,0.0,0.0,-2.2361,-2.2724,-2.3217,-2.3771,0.0,0.0,-2.5003,-2.5571,-2.6139,-2.6434,0.0,0.0,0.0,0.0,0.0,0.0,0.0,0.0,0.0,0.0,0.0,0.0,0.0,0.0,0.0,0.0,0.0,0.0,0.0,0.0,0.0,0.0,0.0,0.0,0.0,0.0,0.0,0.0,0.0,0.0,0.0,0.0,0.0,0.0,0.0,0.0,0.0,0.0,0.0,0.0,0.0,0.0,0.0,0.0,0.0,0.0,0.0,0.0,0.0,0.0,0.0,0.0,0.0,0.0,-1.8842,-1.9169,-2.0924,-2.1877,-2.1939,-2.2836,-2.3543,-2.4124,-2.4436,-2.417,0.0,0.0,0.0,0.0,0.0,0.0,0.0,0.0,0.0,0.0,0.0,0.0,0.0,0.0,0.0,0.0,0.0,0.0,0.0,0.0,0.0,0.0,0.0,0.0,0.0,0.0,0.0,0.0,0.0,0.0,0.0,0.0,0.0,0.0,0.0,0.0,0.0,0.0,0.0,0.0,0.0,-2.1966,-2.251,-2.3285,-2.3919,0.0,-2.5208,-2.5785,-2.5386,-2.6692,-2.73,-2.5952,0.0,0.0,0.0,0.0,0.0,0.0,0.0,0.0,0.0,0.0,0.0,0.0,0.0,0.0,0.0,0.0,0.0,0.0,0.0,0.0,0.0,0.0,0.0,0.0,0.0,0.0,0.0,0.0,0.0,0.0,0.0,0.0,0.0,0.0,0.0,0.0,0.0,0.0,0.0,0.0,0.0,0.0,0.0,0.0,0.0,0.0,0.0,0.0,0.0,0.0,0.0,0.0,0.0,-1.9214,-2.0273,-2.138,-2.203,-2.2268,-2.2682,-2.3083,-2.3485,-2.362,-2.3612,0.0,0.0,0.0,0.0,0.0,0.0,0.0,0.0,0.0,0.0,0.0,0.0,0.0,0.0,0.0,0.0,0.0,0.0,0.0,0.0,0.0,0.0,0.0,0.0,0.0,0.0,0.0,0.0,-2.5163,-2.4192,-2.3096,0.0,0.0,0.0,0.0,0.0,0.0,0.0,0.0,0.0,0.0,-2.252,-2.3203,-2.3838,0.0,0.0,-2.4702,-2.4773,-2.4623,-2.5283,-2.5575,-2.4902,-2.4956,0.0,0.0,0.0,0.0,0.0,0.0,0.0,0.0,0.0,0.0,0.0,0.0,0.0,0.0,0.0,0.0,0.0,0.0,0.0,0.0,0.0,0.0,0.0,0.0,0.0,0.0,0.0,0.0,0.0,0.0,0.0,0.0,0.0,0.0,0.0,0.0,0.0,0.0,0.0,0.0,0.0,0.0,0.0,0.0,0.0,0.0,0.0,0.0,0.0,0.0,0.0,0.0,-1.9606,-2.0785,-2.1665,-2.2112,-2.223,-2.24,-2.2753,-2.3357,-2.3312,-2.3501,0.0,0.0,0.0,0.0,0.0,0.0,0.0,0.0,0.0,0.0,0.0,0.0,0.0,0.0,0.0,0.0,0.0,0.0,0.0,0.0,0.0,0.0,0.0,0.0,0.0,0.0,0.0,0.0,-2.4564,-2.3459,-2.2492,0.0,0.0,0.0,0.0,0.0,0.0,0.0,0.0,0.0,0.0,-2.2743,-2.3241,-2.392,-2.4365,-2.4307,-2.4293,-2.4218,-2.4132,-2.439,-2.4581,-2.4455,0.0,0.0,0.0,0.0,0.0,0.0,0.0,0.0,0.0,0.0,0.0,0.0,0.0,0.0,0.0,0.0,0.0,0.0,0.0,0.0,0.0,0.0,0.0,0.0,0.0,0.0,0.0,-2.2508,0.0,0.0,-2.1932,0.0,0.0,0.0,0.0,0.0,0.0,0.0,0.0,0.0,0.0,0.0,0.0,0.0,0.0,0.0,0.0,0.0,0.0,0.0,0.0,0.0,0.0,-1.9955,-2.0449,-2.1757,-2.2204,-2.1635,-2.2115,-2.2858,-2.3881,-2.3969,-2.417,-2.4639,0.0,0.0,0.0,0.0,0.0,0.0,0.0,0.0,0.0,0.0,0.0,0.0,0.0,0.0,0.0,0.0,0.0,0.0,0.0,0.0,0.0,0.0,0.0,0.0,0.0,0.0,-2.4726,-2.3655,-2.3035,0.0,0.0,0.0,0.0,0.0,0.0,0.0,0.0,0.0,-2.0232,-2.1537,-2.247,-2.2372,-2.3312,-2.3865,-2.3521,-2.4044,-2.4383,-2.4075,-2.449,-2.4898,0.0,0.0,0.0,0.0,0.0,0.0,0.0,0.0,0.0,0.0,0.0,0.0,0.0,0.0,0.0,0.0,0.0,0.0,0.0,0.0,0.0,0.0,0.0,0.0,0.0,0.0,0.0,-2.4256,-2.4858,0.0,0.0,0.0,0.0,0.0,0.0,0.0,0.0,0.0,0.0,0.0,-2.2951,-2.298,0.0,0.0,0.0,0.0,0.0,0.0,0.0,0.0,0.0,0.0,0.0,0.0,-1.9902,-2.0972,-2.1612,-2.1769,-2.1546,-2.1705,-2.2123,-2.274,-2.2746,-2.3304,-2.4463,0.0,0.0,0.0,0.0,0.0,0.0,0.0,0.0,0.0,0.0,0.0,0.0,0.0,0.0,0.0,0.0,0.0,0.0,0.0,0.0,0.0,0.0,0.0,0.0,0.0,-2.5444,0.0,0.0,0.0,0.0,0.0,0.0,0.0,0.0,0.0,0.0,0.0,-2.064,-2.0866,-2.1508,-2.2126,-2.239,-2.3297,-2.3898,0.0,0.0,0.0,0.0,0.0,0.0,0.0,0.0,0.0,0.0,0.0,0.0,0.0,0.0,-2.4292,-2.3756,-2.3914,-2.4036,-2.3589,0.0,0.0,0.0,0.0,0.0,0.0,0.0,0.0,0.0,0.0,0.0,0.0,0.0,0.0,-2.5688,0.0,-2.5511,0.0,0.0,0.0,0.0,0.0,0.0,0.0,0.0,-2.487,-2.5063,-2.5014,-2.4837,-2.4717,0.0,-2.4418,-2.36,0.0,0.0,0.0,0.0,0.0,0.0,0.0,0.0,-2.006,-2.1146,-2.1444,-2.1457,-2.1263,-2.1391,-2.1682,-2.2109,-2.2741,-2.3686,-2.4942,-2.5545,-2.5697,0.0,0.0,0.0,0.0,0.0,0.0,0.0,0.0,0.0,0.0,0.0,0.0,0.0,0.0,0.0,0.0,0.0,0.0,0.0,0.0,0.0,0.0,0.0,-2.5293,0.0,0.0,0.0,0.0,0.0,0.0,0.0,0.0,0.0,-2.0665,-2.0719,-2.0914,-2.1138,-2.1908,-2.2392,-2.23,0.0,0.0,0.0,0.0,0.0,0.0,0.0,-2.3778,-2.4225,-2.4509,-2.4849,-2.5258,-2.5189,-2.4995,-2.4785,0.0,0.0,-2.4077,-2.421,-2.4312,-2.3849,-2.3644,-2.3496,-2.3537,-2.2985,-2.2526,0.0,0.0,0.0,0.0,0.0,0.0,0.0,0.0,-2.7134,-2.6801,0.0,-2.7072,0.0,0.0,0.0,0.0,-2.5447,-2.6266,0.0,0.0,-2.8164,-2.874,-2.8079,-2.7549,-2.7303,-2.7225,-2.6566,-2.5955,-2.5334,-2.3837,0.0,0.0,0.0,0.0,0.0,0.0,-2.0555,-2.1046,-2.1367,-2.1277,-2.0788,-2.1183,-2.1635,-2.2175,-2.3945,-2.5243,-2.5952,-2.6043,-2.6207,-2.6591,-2.6537,0.0,0.0,0.0,0.0,0.0,0.0,0.0,0.0,0.0,0.0,0.0,0.0,0.0,0.0,0.0,0.0,0.0,0.0,0.0,0.0,-2.5486,0.0,0.0,0.0,0.0,0.0,0.0,0.0,0.0,0.0,0.0,-2.0772,-2.1007,-2.1244,-2.1269,0.0,0.0,0.0,0.0,-2.4309,-2.3131,-2.3437,-2.3741,-2.3587,-2.4181,-2.4765,-2.5072,0.0,0.0,-2.6038,-2.5363,-2.4901,-2.4803,-2.5279,-2.5307,-2.4461,-2.4371,-2.4159,-2.3639,-2.3587,-2.3513,-2.344,-2.3113,-2.2656,-2.4067,0.0,0.0,0.0,0.0,-2.5206,-2.6671,-2.9162,-2.8723,-2.885,-2.9307,-2.8522,0.0,0.0,0.0,0.0,0.0,0.0,-2.7646,-2.8043,-2.843,-2.8685,-2.8774,-2.8387,-2.8341,-2.8528,-2.8107,-2.7983,-2.7953,-2.7172,-2.5327,-2.2498,0.0,0.0,0.0,0.0,-2.1264,-2.1766,-2.1876,-2.1839,-2.1718,-2.1833,-2.2271,-2.3069,-2.4545,-2.5677,-2.6387,-2.6683,-2.6941,-2.7169,-2.7774,0.0,0.0,0.0,0.0,0.0,0.0,0.0,0.0,0.0,0.0,0.0,0.0,0.0,0.0,0.0,0.0,0.0,0.0,0.0,-2.5528,-2.5379,-2.4924,0.0,0.0,0.0,0.0,0.0,0.0,0.0,0.0,0.0,-2.1953,-2.1783,-2.1941,0.0,0.0,-2.3191,-2.3011,-2.3685,-2.4038,-2.3647,-2.3667,0.0,-2.4311,-2.4346,-2.4697,-2.5707,-2.6388,-2.6777,-2.6725,-2.6462,-2.6176,-2.6029,-2.6107,-2.6112,-2.5773,-2.5615,-2.5416,-2.5024,-2.4915,-2.4887,-2.482,-2.4354,-2.3922,-2.6311,-2.6422,-2.4811,-2.4963,-2.6206,-2.6437,-2.7942,-3.0275,-2.9828,-2.993,-3.0386,-2.9783,-2.9285,-2.8814,-2.8414,0.0,0.0,0.0,-2.9051,-2.9634,-2.9358,-2.9389,-2.9629,-2.9249,-2.9175,-2.9393,-2.9175,-2.9085,-2.9058,-2.8467,-2.7011,-2.4712,0.0,0.0,-2.186,-2.1612,-2.1747,-2.2207,-2.2178,-2.2082,-2.2095,-2.2469,-2.3113,-2.4013,-2.5134,-2.6038,-2.6805,-2.7255,-2.76,-2.7832,-2.8536,-2.8975,0.0,0.0,0.0,0.0,0.0,0.0,0.0,0.0,0.0,0.0,0.0,-2.9584,-2.882,0.0,0.0,0.0,-2.7122,-2.6495,-2.5758,-2.5633,0.0,0.0,0.0,0.0,0.0,0.0,0.0,-2.2219,-2.2663,-2.3071,-2.3178,-2.3057,-2.3039,-2.3395,-2.3595,-2.371,-2.3685,0.0,-2.451,-2.4164,-2.4391,-2.4668,-2.4857,-2.5152,-2.5669,-2.6533,-2.6865,-2.7041,-2.7003,-2.6884,-2.6779,-2.6645,-2.6645,-2.6592,-2.6418,-2.6312,-2.6136,-2.5688,-2.555,-2.5451,-2.5262,-2.4951,-2.4642,-2.794,-2.8359,-2.5842,-2.5502,-2.6781,-2.7519,-2.8898,-3.0555,-3.057,-3.0356,-3.0159,-3.0857,-3.072,-3.0014,-3.0112,0.0,-3.1062,-3.0606,-3.0632,-3.1123,-3.074,-3.0593,-3.0593,-3.0123,-2.9908,-2.9908,-2.9941,-2.9629,-2.9114,-2.8372,-2.7608,-2.692,-2.5412,-2.3867,-2.2464,-2.2149,-2.2235,-2.2665,-2.2431,-2.2281,-2.2317,-2.3186,-2.4096,-2.495,-2.5677,-2.6437,-2.7244,-2.7725,-2.8165,-2.8543,-2.896,-2.9576,-3.035,0.0,0.0,0.0,0.0,0.0,0.0,0.0,0.0,0.0,0.0,0.0,0.0,0.0,0.0,-2.7981,-2.7476,0.0,-2.6796,-2.6001,0.0,0.0,0.0,-2.3195,-2.3523,-2.3412,-2.3412,-2.3658,0.0,0.0,-2.4284,-2.4367,-2.4354,-2.4081,-2.4395,-2.4524,-2.4124,-2.5003,-2.5451,-2.4584,-2.5322,-2.5717,-2.5119,-2.5988,-2.6878,-2.7149,-2.721,-2.7108,-2.7041,-2.6937,-2.6832,-2.6832,-2.6846,-2.6779,-2.6578,-2.651,-2.6351,-2.5879,-2.5633,-2.5481,-2.5172,-2.5059,-2.4946,-2.7414,-2.7867,-2.7305,-2.7709,-2.8636,-2.9102,-2.9789,-3.0504,-3.0807,-3.0903,-3.0869,-3.1346,-3.1633,-3.1722,-3.2039,-3.2113,-3.1969,-3.1865,-3.1704,-3.1565,-3.1452,-3.1414,-3.1414,-3.1091,-3.0898,-3.0788,-3.0912,-3.0368,-2.9321,-2.8795,-2.7899,-2.6727,-2.5934,-2.5134,-2.4269,-2.3793,-2.3812,-2.4348,-2.3967,-2.3932,-2.4238,-2.4776,-2.5265,-2.5733,-2.6247,-2.6937,-2.7783,-2.7926,-2.8299,-2.8929,-2.9632,-3.0194,-3.0615,-3.049,0.0,0.0,0.0,0.0,0.0,0.0,0.0,0.0,0.0,-2.8934,-2.7874,0.0,-2.8397,0.0,-2.7704,-2.7452,-2.6729,-2.6452,0.0,0.0,-2.4134,-2.3755,-2.3489,-2.382,-2.3969,-2.3751,-2.4163,-2.4549,-2.4674,-2.4716,-2.4882,-2.5327,-2.5437,-2.5409,-2.5432,-2.5628,-2.5506,-2.4733,-2.488,-2.5019,-2.4761,-2.535,-2.6176,-2.6688,-2.6693,-2.6772,-2.7225,-2.7181,-2.7093,-2.7003,-2.6951,-2.6884,-2.6765,-2.6578,-2.6457,-2.6297,-2.6111,-2.5853,-2.5481,-2.5383,-2.5313,-2.7365,-2.765,-2.8273,-2.8763,-2.9061,-2.9531,-3.0205,-3.1039,-3.1089,-3.1317,-3.164,-3.2056,-3.2369,-3.2555,-3.2802,-3.277,-3.2555,-3.2386,-3.2162,-3.1967,-3.1787,-3.1694,-3.1677,-3.1573,-3.1236,-3.0827,-3.0916,-3.0428,-2.94,-2.8659,-2.7902,-2.7123,-2.6396,-2.5852,-2.5476,-2.4784,-2.4599,-2.4902,-2.4672,-2.4649,-2.49,-2.5438,-2.5655,-2.5539,-2.6296,-2.6777,-2.6907,-2.7223,-2.7543,-2.7981,-2.8864,-2.9582,-3.0079,-3.0116,-3.0286,0.0,0.0,0.0,0.0,0.0,0.0,0.0,0.0,0.0,0.0,0.0,-2.8384,-2.77,-2.7875,-2.7633,-2.6759,-2.6669,-2.6228,-2.5006,-2.4761,-2.4582,-2.4378,-2.4654,-2.4818,-2.4699,-2.5017,-2.528,-2.528,-2.528,-2.5348,-2.5486,-2.5432,-2.5432,-2.5472,-2.5486,-2.5168,-2.4251,-2.4559,-2.4955,-2.4995,-2.5379,-2.5781,-2.6001,-2.6009,-2.6046,-2.6367,-2.6376,-2.635,-2.6579,-2.6601,-2.6667,-2.6826,-2.6765,-2.6592,-2.6418,-2.6312,-2.6165,-2.5867,-2.5757,-2.5633,-2.7665,-2.7883,-2.898,-2.9246,-2.8978,-2.9544,-3.05,-3.167,-3.1392,-3.1677,-3.2386,-3.2737,-3.2916,-3.2948,-3.2898,-3.2948,-3.2961,-3.2555,-3.2386,-3.2369,-3.2003,-3.1808,-3.1721,-3.1721,-3.1252,-3.0455,-3.0421,-3.0024,-2.9231,-2.8297,-2.7798,-2.7707,-2.6786,-2.6345,-2.6293,-2.5572,-2.516,-2.5082,-2.5098,-2.5121,-2.5198,-2.5822,-2.5811,-2.5213,-2.6155,-2.6402,-2.5758,-2.6285,-2.6622,-2.668,-2.7639,-2.8554,-2.9332,-2.95,-2.9927,0.0,-3.0049,0.0,0.0,0.0,0.0,0.0,0.0,0.0,0.0,-2.8691,-2.8249,-2.7917,-2.7979,-2.7777,-2.7025,-2.6965,-2.6628,-2.58,-2.5581,-2.5564,-2.5563,-2.5592,-2.5647,-2.5893,-2.5893,-2.5879,-2.5739,-2.5781,-2.5542,-2.498,-2.4906,-2.485,-2.4793,-2.485,-2.4539,-2.3668,-2.4191,-2.474,-2.5194,-2.5439,-2.5423,-2.5327,-2.5325,-2.5275,-2.5342,-2.5342,-2.5457,-2.5943,-2.6026,-2.6117,-2.6652,-2.6607,-2.6466,-2.6299,-2.6299,-2.6275,-2.6136,-2.6056,-2.5962,-2.848,-2.921,-2.9556,-2.9892,-3.0201,-3.0633,-3.1173,-3.172,-3.1979,-3.2352,-3.277,-3.2866,-3.2993,-3.3129,-3.2979,-3.3104,-3.3415,-3.2993,-3.2898,-3.3019,-3.2784,-3.2317,-3.1732,-3.1714,-3.1129,-3.0134,-3.0082,-2.9549,-2.8507,-2.8305,-2.7896,-2.7308,-2.7122,-2.6989,-2.6989,0.0,0.0,0.0,-2.6087,-2.6315,-2.6757,-2.6873,-2.6691,-2.6312,-2.6657,0.0,-2.6362,-2.656,-2.676,-2.6934,-2.7754,0.0,0.0,0.0,0.0,0.0,0.0,0.0,0.0,0.0,0.0,0.0,-3.0035,-2.9486,-2.9282,-2.8837,-2.8483,-2.831,-2.8334,-2.8155,-2.7838,-2.7758,-2.7495,-2.688,-2.6762,-2.6576,-2.6068,-2.5946,-2.5946,-2.5893,-2.5893,-2.5697,-2.53,-2.5149,-2.491,-2.4399,-2.4323,-2.4148,-2.373,-2.4027,-2.3983,-2.3378,-2.3439,-2.3673,-2.413,-2.4234,-2.4446,-2.4627,-2.4761,-2.4955,-2.5327,-2.5461,-2.5444,-2.5604,-2.5542,-2.5475,-2.5585,-2.5409,-2.5544,-2.5966,-2.5966,-2.5972,-2.6051,-2.6111,-2.6071,-2.9012,-2.954,-3.0149,-3.0535,0.0,-3.1531,-3.2089,-3.2474,-3.2371,-3.2588,-3.3055,-3.3178,-3.3298,-3.3386,-3.3298,-3.3357,-3.3569,-3.2929,-3.2719,-3.277,-3.2139,-3.1685,-3.1423,-3.129,-3.079,-2.9998,-2.9911,-2.9319,-2.8429,-2.8137,-2.7792,-2.7444,-2.729,-2.72,-2.7195,-2.7213,-2.7068,-2.6757,-2.6757,-2.6956,-2.7181,-2.7452,-2.7302,-2.6719,-2.7211,0.0,0.0,0.0,0.0,0.0,0.0,0.0,0.0,-2.9927,0.0,-3.1188,-3.1533,-3.1806,-3.2004,-3.1853,-3.1801,-3.1941,-3.1273,-3.0508,-2.9576,-2.9214,-2.9013,-2.8858,-2.8573,-2.8299,-2.8152,-2.8152,-2.7989,-2.7509,-2.7458,-2.7137,-2.6443,-2.6269,-2.6176,-2.5892,-2.568,-2.5424,-2.5113,-2.4841,-2.4467,-2.395,-2.4052,-2.3966,-2.3447,-2.3521,-2.3546,-2.322,-2.3182,-2.3422,-2.3897,-2.3982,-2.4016,-2.419,-2.4221,-2.4312,-2.4552,-2.4627,-2.4672,-2.4924,-2.4967,-2.4964,-2.5257,-2.5188,-2.5146,-2.5374,-2.5427,-2.535,-2.5435,-2.5869,-2.6258,-2.9556,-2.9805,-3.073,-3.114,-3.1291,-3.2196,-3.2905,-3.3319,0.0,0.0,0.0,-3.3502,-3.3633,-3.3643,-3.3459,-3.3432,-3.3442,-3.2566,-3.2201,-3.221,-3.1284,-3.0858,-3.0909,-3.0731,-3.0377,-2.9806,-2.9761,-2.9437,-2.876,-2.847,-2.8304,-2.8298,-2.8037,-2.7915,-2.7884,-2.7857,-2.7875,-2.7888,-2.7521,-2.7352,-2.7444,-2.7921,-2.7789,-2.6977,-2.7691,-2.7656,-2.6839,-2.7044,-2.7169,-2.7119,-2.7884,-2.8297,-2.822,-2.9706,-3.0674,-3.0878,-3.1537,-3.217,-3.2674,-3.2648,-3.2726,-3.2943,-3.2351,-3.1364,-2.9895,-2.9599,-2.9425,-2.9243,-2.8716,-2.8348,-2.8235,-2.8348,-2.825,-2.794,-2.789,-2.7575,-2.6841,-2.6645,-2.65,-2.6094,-2.5635,-2.5246,-2.5043,-2.464,-2.4075,-2.3579,-2.3656,-2.3803,-2.3348,-2.3308,-2.3435,-2.3437,-2.3422,-2.3581,-2.404,-2.4166,-2.4124,-2.3927,-2.3827,-2.3739,-2.3653,-2.3595,-2.3819,-2.4343,-2.4298,-2.4461,-2.4906,-2.4887,-2.4893,-2.4728,-2.482,-2.4863,-2.4794,-2.5481,-2.604,-3.0468,-3.0908,-3.1376,-3.162,-3.1657,-3.2332,-3.297,-3.3546,-3.3462,-3.3473,-3.3549,-3.3577,-3.3698,-3.3823,-3.2976,-3.2735,-3.3006,-3.1821,-3.1415,-3.1593,-3.1217,-3.0737,-3.0188,-3.0126,-2.9708,-2.9065,-2.9648,-2.9904,-2.9879,-3.0396,-3.0713,-3.0675,-3.0672,-3.0584,-3.0622,-3.0468,-3.0468,-3.0603,-2.8642,-2.7862,-2.8317,-2.8446,-2.8215,-2.7619,-2.7834,-2.7576,-2.6838,-2.7027,-2.7097,-2.7117,-2.7955,-2.8477,-2.8499,-2.9869,-3.1022,-3.1768,-3.2441,-3.317,-3.3883,-3.3695,-3.327,-3.2763,-3.2283,-3.1442,-3.0186,-2.9772,-2.9393,-2.8997,-2.8653,-2.8411,-2.8348,-2.8411,-2.8348,-2.8314,-2.8314,-2.8088,-2.7625,-2.7255,-2.689,-2.6573,-2.6068,-2.5413,-2.4782,-2.4413,-2.3868,-2.3069,-2.3074,-2.3064,-2.3231,-2.3363,-2.3569,-2.3683,-2.3754,-2.3882,-2.4124,-2.4223,-2.4124,-2.3982,-2.3882,-2.3797,-2.3782,-2.3696,-2.367,-2.3744,-2.3775,-2.3805,-2.3925,-2.3762,-2.3985,-2.4309,-2.4381,-2.442,-2.4669,-2.5048,-2.511,-3.0868,-3.1184,-3.188,-3.2196,-3.2195,-3.2529,-3.2666,-3.2624,-3.2631,-3.2812,-3.312,-3.3243,-3.3259,-3.3136,-3.2404,-3.2004,-3.1867,-3.1149,-3.0886,-3.096,-3.0331,-3.0136,-3.0304,-3.021,-3.0252,-3.0443,-3.0698,-3.0815,-3.0846,-3.1097,-3.1182,-3.118,-3.1177,-3.1185,-3.1177,-3.1109,-3.1091,-3.1177,-3.0125,-2.971,-2.9966,-3.0174,-2.9903,-2.915,-2.9448,-2.9252,-2.8465,-2.8655,-2.8768,-2.8736,-2.9082,-2.9271,-2.9339,-3.0299,-3.1223,-3.2008,-3.2833,-3.353,-3.4093,-3.3887,-3.3455,-3.2813,-3.2568,-3.2039,-3.1033,-3.036,-2.9777,-2.9303,-2.8951,-2.8668,-2.8444,-2.8411,-2.8411,-2.8411,-2.8411,-2.825,-2.7905,-2.7771,-2.7354,-2.6672,-2.6221,-2.5691,-2.486,-2.4462,-2.4028,-2.3305,-2.3187,-2.3363,-2.3653,-2.3867,-2.3909,-2.3839,-2.3797,-2.3925,-2.4193,-2.4234,-2.4208,-2.4124,-2.4067,-2.394,-2.3839,-2.3754,-2.3696,-2.3595,-2.3595,-2.3595,-2.3595,-2.3566,-2.3687,-2.3763,-2.3867,-2.3939,-2.4069,-2.4068,-2.4177,-3.0848,-3.0979,-3.1886,-3.2317,-3.2409,-3.2444,-3.227,-3.1936,-3.1936,-3.2073,-3.2349,-3.2646,-3.2732,-3.2571,-3.1936,-3.143,-3.1036,-3.063,-3.0538,-3.063,-2.9885,-3.0012,-3.0844,-3.0746,-3.1034,-3.1764,-3.1881,-3.189,-3.1885,-3.1998,-3.2034,-3.1997,-3.1937,-3.1925,-3.1955,-3.1905,-3.1923,-3.1955,-3.1986,-3.1796,-3.1341,-3.1607,-3.1444,-3.0806,-3.1148,-3.1066,-3.0409,-3.0601,-3.0739,-3.0676,-3.0582,-3.0582,-3.0643,-3.0915,-3.1443,-3.2166,-3.2845,-3.3498,-3.4067,-3.3921,-3.355,-3.3045,-3.2795,-3.2435,-3.1842,-3.1027,-3.0309,-2.9837,-2.9483,-2.909,-2.8842,-2.8621,-2.8573,-2.8573,-2.8429,-2.8299,-2.7989,-2.7887,-2.7519,-2.6687,-2.6213,-2.5708,-2.5157,-2.4687,-2.4276,-2.3882,-2.3724,-2.3894,-2.4245,-2.4343,-2.4204,-2.4135,-2.3994,-2.4009,-2.4261,-2.4317,-2.4276,-2.4208,-2.4208,-2.4082,-2.394,-2.3882,-2.3782,-2.3696,-2.3638,-2.3595,-2.3595,-2.3595,-2.3581,-2.3598,-2.3627,-2.3539,-2.3467,-2.3423,-2.3495,-3.0286,-3.0375,-3.1044,-3.1455,-3.1779,-3.1778,-3.1944,-3.2166,-3.2241,-3.1844,-3.1354,-3.1899,-3.2328,-3.2463,-3.1562,-3.1163,-3.1162,-3.0366,-3.0366,-3.0992,-3.0772,-3.1127,-3.1897,-3.1763,-3.1727,-3.1998,-3.2729,-3.3133,-3.3168,-3.3999,-3.4447,-3.4364,-3.4151,-3.4039,-3.4214,-3.406,-3.4078,-3.4274,-3.4405,-3.3548,-3.1793,-3.1902,-3.2028,-3.1953,-3.2109,-3.2162,-3.201,-3.2324,-3.2469,-3.2469,-3.245,-3.2497,-3.244,-3.1814,-3.1722,-3.2492,-3.2517,-3.2975,-3.418,-3.4124,-3.3895,-3.3662,-3.289,-3.2368,-3.2214,-3.1545,-3.0918,-3.0435,-2.9995,-2.9705,-2.9661,-2.9303,-2.9044,-2.8997,-2.87,-2.8363,-2.824,-2.7428,-2.6907,-2.7209,-2.6209,-2.5376,-2.5234,-2.4973,-2.4655,-2.4287,-2.4078,-2.4147,-2.4461,-2.4461,-2.4517,-2.4655,-2.4549,-2.4317,-2.4317,-2.4302,-2.4302,-2.4261,-2.425,-2.4181,-2.4109,-2.3982,-2.3782,-2.3739,-2.3696,-2.3638,-2.3595,-2.3595,-2.3595,-2.3551,-2.3566,-2.3566,-2.3494,-2.3407,-2.3393,-3.0285,-3.0427,-3.1174,-3.1396,-3.1355,-3.1355,-3.1148,-3.0892,-3.089,-3.0701,-3.0452,-3.0811,-3.1048,-3.1107,-3.0608,-3.0471,-3.0585,-3.0604,-3.081,-3.1187,-3.1593,-3.2238,-3.2995,-3.2959,-3.3185,-3.3656,-3.4074,-3.4225,-3.4319,-3.4711,-3.4866,-3.4792,-3.4697,-3.4699,-3.4832,-3.4754,-3.4754,-3.4832,-3.4925,-3.4546,-3.3828,-3.3772,-3.3563,-3.3125,-3.3225,-3.3058,-3.2669,-3.276,-3.2878,-3.2878,-3.2878,-3.2891,-3.2979,-3.2583,-3.2672,-3.337,-3.3684,-3.4017,-3.4483,-3.4427,-3.4197,-3.3834,-3.3419,-3.2952,-3.2385,-3.2003,-3.1582,-3.0998,-3.0518,-3.0166,-2.9935,-2.9761,-2.9629,-2.9406,-2.9196,-2.8886,-2.8201,-2.7904,-2.7512,-2.6844,-2.6398,-2.5925,-2.552,-2.5108,-2.4839,-2.4639,-2.4395,-2.4369,-2.4583,-2.4527,-2.4679,-2.4871,-2.4846,-2.4686,-2.4508,-2.4467,-2.4426,-2.4343,-2.4276,-2.4276,-2.4208,-2.4124,-2.3982,-2.3839,-2.3739,-2.3696,-2.3595,-2.3595,-2.3595,-2.3595,-2.3595,-2.361,-2.3581,-2.3523,-2.3436,-3.0044,-3.0283,-3.0921,-3.1073,-3.0842,-3.0852,-3.0556,-3.0099,-3.0084,-3.0103,-3.0103,-3.0256,-3.0294,-3.0266,-3.0338,-3.0505,-3.0708,-3.1299,-3.1752,-3.2065,-3.2645,-3.3315,-3.4091,-3.4099,-3.4369,-3.4902,-3.4996,-3.503,-3.5066,-3.5051,-3.5024,-3.5028,-3.5009,-3.5028,-3.5083,-3.5088,-3.5108,-3.5127,-3.5193,-3.5261,-3.5242,-3.5239,-3.4863,-3.4238,-3.4323,-3.4126,-3.3582,-3.3658,-3.3754,-3.3754,-3.3689,-3.372,-3.3804,-3.355,-3.3588,-3.4005,-3.4426,-3.4698,-3.4714,-3.4647,-3.445,-3.4049,-3.3805,-3.3343,-3.2663,-3.2299,-3.1896,-3.1428,-3.1004,-3.0625,-3.0385,-3.026,-3.0133,-2.9962,-2.9702,-2.9054,-2.8271,-2.8083,-2.7406,-2.651,-2.623,-2.6154,-2.5669,-2.5317,-2.5075,-2.5052,-2.4855,-2.471,-2.4839,-2.4918,-2.4974,-2.5123,-2.5178,-2.5005,-2.471,-2.4589,-2.4508,-2.4343,-2.4302,-2.4276,-2.425,-2.4208,-2.4181,-2.3982,-2.3882,-2.3839,-2.3782,-2.3739,-2.3638,-2.3595,-2.3595,-2.3595,-2.3595,-2.3595,-2.3566,-2.9334,-2.9433,-2.9809,-3.0114,-3.0166,-3.0253,-3.0359,-3.0434,-3.0505,-3.056,-3.053,-3.0557,-3.0576,-3.0614,-3.1292,-3.1791,-3.2076,-3.2513,-3.3141,-3.384,-3.3892,-3.4332,-3.5189,-3.5045,-3.4977,-3.5066,-3.5216,-3.5379,-3.5534,-3.5416,-3.5383,-3.5372,-3.5321,-3.5277,-3.5311,-3.5369,-3.5379,-3.5407,-3.5541,-3.5652,-3.5667,-3.5714,-3.556,-3.522,-3.5353,-3.5329,-3.5323,-3.5485,-3.553,-3.5568,-3.5461,-3.5499,-3.5472,-3.4775,-3.4306,-3.4238,-3.415,-3.44,-3.4939,-3.4792,-3.4583,-3.4454,-3.3828,-3.3241,-3.3064,-3.2364,-3.1878,-3.1677,-3.147,-3.1278,-3.1162,-3.0828,-3.0666,-3.0633,-2.9708,-2.9,-2.8474,-2.7396,-2.6575,-2.619,-2.5814,-2.5609,-2.5594,-2.5616,-2.5524,-2.554,-2.5524,-2.5486,-2.5448,-2.5502,-2.5502,-2.5486,-2.5502,-2.5333,-2.4791,-2.4775,-2.463,-2.4467,-2.4426,-2.4343,-2.4276,-2.4234,-2.4208,-2.4166,-2.4067,-2.4009,-2.3982,-2.3882,-2.3739,-2.3653,-2.3595,-2.3595,-2.3595,-2.3595,-2.361,-2.953,-2.9884,-3.0041,-3.022,-3.0413,-3.0433,-3.0482,-3.0581,-3.0574,-3.0603,-3.061,-3.0644,-3.0646,-3.065,-3.1529,-3.2441,-3.3266,-3.318,-3.3558,-3.4381,-3.4881,-3.5299,-3.556,-3.5528,-3.5495,-3.5515,-3.5573,-3.5612,-3.5649,-3.5603,-3.5603,-3.5649,-3.5628,-3.5631,-3.563,-3.5644,-3.5666,-3.567,-3.5717,-3.5765,-3.5754,-3.5795,-3.5737,-3.5629,-3.5657,-3.5678,-3.5697,-3.5731,-3.5762,-3.5762,-3.5762,-3.5731,-3.5681,-3.5403,-3.5168,-3.5033,-3.4982,-3.5028,-3.5162,-3.5034,-3.4851,-3.4655,-3.4334,-3.3792,-3.3263,-3.2845,-3.2497,-3.2162,-3.2003,-3.1896,-3.1657,-3.1393,-3.1179,-3.0977,-3.0286,-2.9359,-2.8418,-2.7424,-2.6613,-2.5992,-2.5615,-2.5556,-2.5578,-2.5616,-2.5616,-2.5616,-2.5616,-2.5616,-2.5616,-2.5616,-2.5616,-2.5616,-2.5578,-2.5486,-2.5123,-2.5208,-2.5192,-2.4895,-2.4695,-2.4655,-2.4574,-2.4533,-2.4533,-2.4234,-2.4151,-2.4094,-2.4051,-2.394,-2.3797,-2.3696,-2.3638,-2.3595,-2.3595,-2.3681,-2.3638,-2.9895,-3.0289,-3.0305,-3.0409,-3.0568,-3.058,-3.0611,-3.0606,-3.0622,-3.0622,-3.0643,-3.0677,-3.0677,-3.0747,-3.1327,-3.228,-3.3431,-3.3515,-3.3913,-3.451,-3.5347,-3.5748,-3.5771,-3.5763,-3.5765,-3.5794,-3.5794,-3.5766,-3.5751,-3.5746,-3.5758,-3.58,-3.5793,-3.5807,-3.5794,-3.5824,-3.5825,-3.5838,-3.5866,-3.5837,-3.5838,-3.584,-3.5818,-3.5808,-3.5802,-3.5801,-3.5803,-3.5794,-3.5794,-3.5794,-3.5785,-3.5766,-3.572,-3.5731,-3.5681,-3.5565,-3.5509,-3.5443,-3.5296,-3.5152,-3.4999,-3.4794,-3.4651,-3.4279,-3.3597,-3.3338,-3.3021,-3.2634,-3.2419,-3.2231,-3.1967,-3.1821,-3.1654,-3.13,-3.0721,-2.9909,-2.8898,-2.7994,-2.6978,-2.602,-2.5686,-2.5632,-2.5616,-2.5616,-2.5616,-2.5616,-2.5616,-2.5616,-2.5616,-2.5616,-2.5616,-2.5616,-2.5712,-2.5712,-2.5642,-2.5795,-2.5406,-2.5036,-2.4918,-2.4879,-2.4759,-2.4759,-2.4679,-2.4385,-2.4219,-2.4177,-2.4094,-2.4009,-2.3882,-2.3782,-2.3696,-2.3696,-2.3739,-2.3824,-2.3724,-3.0393,-3.0574,-3.0523,-3.0495,-3.0503,-3.0547,-3.0602,-3.0577,-3.064,-3.0645,-3.0619,-3.0669,-3.0684,-3.0755,-3.0784,-3.1354,-3.2394,-3.3434,-3.4139,-3.4484,-3.5173,-3.5599,-3.5718,-3.5711,-3.5756,-3.5792,-3.5802,-3.5797,-3.578,-3.5791,-3.5791,-3.5807,-3.5794,-3.5794,-3.5802,-3.5842,-3.5892,-3.5893,-3.5935,-3.5949,-3.5912,-3.5892,-3.5854,-3.5811,-3.5792,-3.5792,-3.5802,-3.5807,-3.5802,-3.5791,-3.5811,-3.5787,-3.5805,-3.5785,-3.5753,-3.5693,-3.5584,-3.5443,-3.5326,-3.5223,-3.5088,-3.4926,-3.4751,-3.452,-3.4117,-3.3687,-3.3328,-3.3045,-3.2795,-3.2451,-3.2196,-3.2197,-3.2002,-3.1545,-3.0891,-3.0338,-2.9827,-2.881,-2.7535,-2.6465,-2.6057,-2.5702,-2.5648,-2.567,-2.5654,-2.5654,-2.5616,-2.5616,-2.5616,-2.5616,-2.5616,-2.5654,-2.5712,-2.577,-2.6082,-2.6297,-2.5652,-2.5137,-2.5059,-2.4997,-2.4759,-2.4719,-2.4799,-2.4614,-2.4639,-2.4599,-2.4558,-2.4451,-2.4287,-2.4147,-2.3994,-2.3824,-2.3782,-2.3824,-2.3824,-3.0537,-3.0639,-3.0605,-3.0552,-3.0502,-3.0511,-3.0469,-3.0385,-3.0423,-3.0419,-3.0426,-3.0419,-3.0447,-3.0441,-3.0442,-3.0617,-3.1041,-3.1996,-3.3145,-3.4343,-3.4772,-3.5237,-3.5688,-3.5759,-3.5764,-3.5808,-3.5808,-3.5799,-3.5794,-3.5796,-3.58,-3.5807,-3.5807,-3.5805,-3.5808,-3.5838,-3.5839,-3.5838,-3.586,-3.5866,-3.5838,-3.5844,-3.5824,-3.5795,-3.5805,-3.5795,-3.58,-3.5806,-3.5818,-3.5873,-3.587,-3.5864,-3.5841,-3.5819,-3.5779,-3.5725,-3.5662,-3.562,-3.5572,-3.5463,-3.5296,-3.5152,-3.5016,-3.4812,-3.452,-3.4288,-3.4006,-3.3698,-3.356,-3.3325,-3.289,-3.2781,-3.2453,-3.1637,-3.1018,-3.0535,-3.0142,-2.9178,-2.8387,-2.7922,-2.7341,-2.7038,-2.6833,-2.6508,-2.5991,-2.5959,-2.581,-2.5713,-2.5648,-2.5697,-2.5616,-2.5616,-2.5712,-2.5844,-2.6082,-2.6243,-2.5997,-2.5615,-2.5503,-2.5313,-2.502,-2.4839,-2.4902,-2.4863,-2.4942,-2.4942,-2.4918,-2.4879,-2.4719,-2.4517,-2.4297,-2.4105,-2.3867,-2.3867,-2.3979,-3.0414,-3.0433,-3.0378,-3.0261,-3.0171,-3.0171,-3.0113,-3.0048,-3.0035,-3.0044,-3.0052,-3.0052,-3.0049,-3.0037,-3.0037,-3.0042,-3.0102,-3.0581,-3.1674,-3.3216,-3.4139,-3.4765,-3.5488,-3.559,-3.5611,-3.5611,-3.5611,-3.5648,-3.5728,-3.5728,-3.5743,-3.5785,-3.58,-3.5796,-3.5803,-3.5791,-3.5791,-3.5791,-3.5791,-3.5791,-3.5776,-3.5776,-3.5762,-3.5762,-3.5762,-3.5762,-3.5753,-3.5763,-3.5795,-3.5845,-3.5854,-3.5872,-3.5879,-3.5843,-3.5783,-3.5741,-3.5688,-3.5673,-3.5639,-3.5528,-3.5416,-3.5251,-3.5155,-3.4944,-3.467,-3.4609,-3.4461,-3.4136,-3.4111,-3.3961,-3.3458,-3.3314,-3.2934,-3.2127,-3.1637,-3.1026,-3.0446,-2.9709,-2.9104,-2.8763,-2.832,-2.8082,-2.7824,-2.742,-2.6834,-2.678,-2.6569,-2.6215,-2.6134,-2.6053,-2.594,-2.5816,-2.5749,-2.5881,-2.599,-2.6118,-2.6243,-2.6156,-2.6068,-2.5799,-2.5486,-2.5329,-2.5346,-2.502,-2.4981,-2.4942,-2.4918,-2.5214,-2.5198,-2.4926,-2.4648,-2.4436,-2.4287,-2.4354,-2.4436,-3.0125,-2.9966,-2.9913,-2.981,-2.9647,-2.9631,-2.9597,-2.9583,-2.9581,-2.958,-2.9563,-2.9597,-2.9581,-2.9583,-2.9583,-2.9602,-2.9602,-2.9809,-3.041,-3.1591,-3.2939,-3.4254,-3.5051,-3.5193,-3.5216,-3.5223,-3.5258,-3.5369,-3.5482,-3.5524,-3.5615,-3.5678,-3.5685,-3.5739,-3.5681,-3.5751,-3.5712,-3.5693,-3.5701,-3.5681,-3.5623,-3.5643,-3.5651,-3.562,-3.562,-3.562,-3.562,-3.5612,-3.5684,-3.5775,-3.5787,-3.5841,-3.5872,-3.5839,-3.5795,-3.5788,-3.5752,-3.5667,-3.5546,-3.554,-3.543,-3.5219,-3.5155,-3.4963,-3.4732,-3.4713,-3.4632,-3.4375,-3.4442,-3.4288,-3.3873,-3.3715,-3.3393,-3.2872,-3.2364,-3.1795,-3.094,-3.0516,-3.0167,-2.953,-2.9022,-2.8807,-2.8881,-2.8486,-2.818,-2.8103,-2.782,-2.7408,-2.7108,-2.6885,-2.6525,-2.6461,-2.655,-2.673,-2.7095,-2.7238,-2.738,-2.745,-2.7143,-2.6645,-2.6003,-2.5738,-2.5546,-2.5246,-2.516,-2.5059,-2.5214,-2.5615,-2.5615,-2.5313,-2.5098,-2.4855,-2.4735,-2.4759,-2.4759,-2.9846,-2.9768,-2.9693,-2.9599,-2.9457,-2.9439,-2.9342,-2.924,-2.9219,-2.918,-2.9219,-2.924,-2.9219,-2.924,-2.9237,-2.924,-2.9402,-2.9848,-3.0575,-3.1489,-3.2519,-3.3684,-3.451,-3.4699,-3.4718,-3.4718,-3.4832,-3.4969,-3.5009,-3.5149,-3.5258,-3.5277,-3.5281,-3.5277,-3.5277,-3.5292,-3.5277,-3.5277,-3.5277,-3.5277,-3.5258,-3.5258,-3.5258,-3.5258,-3.5239,-3.5258,-3.5239,-3.5258,-3.5405,-3.5712,-3.5776,-3.5785,-3.5811,-3.5816,-3.5786,-3.5781,-3.5781,-3.5722,-3.5679,-3.5651,-3.5572,-3.5397,-3.5296,-3.5171,-3.5,-3.4982,-3.487,-3.4674,-3.4694,-3.4591,-3.4184,-3.4062,-3.376,-3.3255,-3.289,-3.2464,-3.1969,-3.1795,-3.1567,-3.1126,-3.0535,-3.0242,-3.0016,-2.951,-2.8986,-2.8895,-2.8707,-2.8395,-2.8158,-2.8042,-2.7822,-2.7969,-2.8068,-2.8182,-2.8292,-2.8435,-2.8611,-2.8819,-2.8458,-2.7772,-2.6825,-2.5967,-2.5686,-2.5436,-2.561,-2.5577,-2.5997,-2.6401,-2.6104,-2.5689,-2.5556,-2.5346,-2.5075,-2.4997,-2.4942,-2.9094,-2.8952,-2.8892,-2.8817,-2.8686,-2.8675,-2.8615,-2.8535,-2.8529,-2.8529,-2.8529,-2.8511,-2.8685,-2.8956,-2.8993,-2.9166,-2.9465,-2.9917,-3.0387,-3.0903,-3.1699,-3.2889,-3.3957,-3.4282,-3.4218,-3.4111,-3.433,-3.4405,-3.4396,-3.4628,-3.4778,-3.4849,-3.4869,-3.4831,-3.4848,-3.4849,-3.483,-3.4848,-3.4849,-3.4849,-3.4849,-3.4849,-3.4848,-3.4848,-3.4867,-3.4867,-3.4956,-3.4973,-3.5108,-3.5391,-3.556,-3.5639,-3.5676,-3.5717,-3.5752,-3.5781,-3.5801,-3.5779,-3.5753,-3.5728,-3.5662,-3.5558,-3.5445,-3.5307,-3.5155,-3.5126,-3.5037,-3.4908,-3.4983,-3.4831,-3.4567,-3.4413,-3.4136,-3.3778,-3.3514,-3.3148,-3.2568,-3.2451,-3.2437,-3.2161,-3.1847,-3.1481,-3.1411,-3.0644,-3.0257,-3.0037,-2.9837,-2.9487,-2.9197,-2.9206,-2.9127,-2.91,-2.8945,-2.8831,-2.8854,-2.8999,-2.9102,-2.9383,-2.9435,-2.8744,-2.7872,-2.6687,-2.6266,-2.6138,-2.6145,-2.6208,-2.6467,-2.6622,-2.6401,-2.6104,-2.6013,-2.5832,-2.5535,-2.5346,-2.5269,-2.7987,-2.7756,-2.7773,-2.7666,-2.7601,-2.7577,-2.7672,-2.77,-2.7764,-2.7822,-2.7909,-2.784,-2.8307,-2.8757,-2.8798,-2.9106,-2.965,-2.9784,-2.9994,-3.0394,-3.1001,-3.2068,-3.3396,-3.3625,-3.3543,-3.3441,-3.3707,-3.3732,-3.3709,-3.396,-3.4173,-3.4204,-3.4271,-3.4303,-3.4222,-3.4277,-3.4301,-3.4258,-3.4223,-3.422,-3.4217,-3.4214,-3.4236,-3.4339,-3.444,-3.4461,-3.4582,-3.466,-3.4775,-3.4958,-3.5224,-3.5399,-3.5454,-3.5574,-3.5682,-3.5734,-3.5762,-3.5799,-3.5802,-3.5799,-3.5766,-3.565,-3.5609,-3.5495,-3.5262,-3.5239,-3.519,-3.5141,-3.5181,-3.5056,-3.4851,-3.4653,-3.4398,-3.4184,-3.416,-3.3795,-3.3219,-3.2903,-3.2827,-3.2795,-3.2745,-3.2586,-3.2335,-3.2003,-3.1645,-3.0942,-3.0806,-3.0731,-3.0489,-3.0458,-3.0182,-2.9802,-2.9593,-2.9256,-2.935,-2.944,-2.9525,-2.9717,-2.9873,-2.951,-2.8935,-2.8007,-2.732,-2.6978,-2.6816,-2.6631,-2.6485,-2.6526,-2.6484,-2.6314,-2.6101,-2.601,-2.5917,-2.5791,-2.5663,-2.6908,-2.6815,-2.6783,-2.68,-2.6753,-2.677,-2.7045,-2.7522,-2.7505,-2.7725,-2.8182,-2.8284,-2.8369,-2.8539,-2.852,-2.8657,-2.8926,-2.942,-3.004,-3.0691,-3.083,-3.1332,-3.2125,-3.2396,-3.2598,-3.2631,-3.2773,-3.2871,-3.2928,-3.3111,-3.3204,-3.3278,-3.3293,-3.3247,-3.3255,-3.3277,-3.3229,-3.3249,-3.3258,-3.3258,-3.3259,-3.3277,-3.3405,-3.3666,-3.3919,-3.3938,-3.3869,-3.4031,-3.4189,-3.4379,-3.4775,-3.5073,-3.5185,-3.5359,-3.5477,-3.5568,-3.5713,-3.5779,-3.58,-3.5843,-3.5857,-3.5756,-3.5657,-3.5585,-3.5519,-3.5402,-3.5355,-3.5321,-3.5277,-3.5157,-3.4945,-3.4674,-3.4529,-3.4464,-3.442,-3.4357,-3.4061,-3.3561,-3.3166,-3.289,-3.2651,-3.2386,-3.2318,-3.2109,-3.1894,-3.1746,-3.1804,-3.1862,-3.1741,-3.1566,-3.1306,-3.0837,-3.0801,-3.0607,-3.0643,-3.0697,-3.0626,-3.0607,-3.064,-3.0492,-2.9898,-2.9383,-2.8708,-2.8025,-2.742,-2.7189,-2.6972,-2.6714,-2.6758,-2.6465,-2.6206,-2.6206,-2.617,-2.6099,-2.6043,-2.6526,-2.6257,-2.6466,-2.6428,-2.6257,-2.6218,-2.6428,-2.6695,-2.6767,-2.6937,-2.7227,-2.7292,-2.7469,-2.78,-2.7833,-2.792,-2.8333,-2.8699,-2.9172,-2.948,-2.9572,-2.9861,-3.0286,-3.0683,-3.107,-3.1844,-3.2316,-3.2362,-3.2307,-3.242,-3.2648,-3.2564,-3.2372,-3.2312,-3.2281,-3.2294,-3.214,-3.2068,-3.2192,-3.2304,-3.2272,-3.2307,-3.2506,-3.2849,-3.31,-3.313,-3.3094,-3.323,-3.3393,-3.3606,-3.4035,-3.4501,-3.4832,-3.5026,-3.5177,-3.5367,-3.5534,-3.5665,-3.5705,-3.5818,-3.5856,-3.5798,-3.5749,-3.5687,-3.5631,-3.5526,-3.5457,-3.5399,-3.5321,-3.5207,-3.5072,-3.4944,-3.4794,-3.4694,-3.4694,-3.4653,-3.4445,-3.4043,-3.3671,-3.3439,-3.3255,-3.3032,-3.2781,-3.2502,-3.2385,-3.2368,-3.2351,-3.2415,-3.24,-3.2294,-3.2329,-3.2119,-3.2175,-3.2142,-3.2125,-3.2055,-3.1899,-3.1864,-3.1812,-3.1567,-3.1058,-3.059,-3.0105,-2.9282,-2.8406,-2.7871,-2.7595,-2.7314,-2.696,-2.6604,-2.6415,-2.6399,-2.6312,-2.617,-2.6151,-2.5953,-2.5514,-2.5953,-2.5924,-2.5514,-2.5469,-2.5514,-2.5649,-2.5679,-2.577,-2.583,-2.5815,-2.6268,-2.6633,-2.6756,-2.7119,-2.7485,-2.7704,-2.7817,-2.7847,-2.8008,-2.8357,-2.8731,-2.9005,-2.9523,-3.1082,-3.1517,-3.1562,-3.1483,-3.1711,-3.1669,-3.1781,-3.1508,-3.129,-3.13,-3.1295,-3.1164,-3.0908,-3.1141,-3.127,-3.1268,-3.1302,-3.1504,-3.1719,-3.2057,-3.2091,-3.2142,-3.2244,-3.2444,-3.2715,-3.3046,-3.357,-3.4144,-3.4639,-3.4793,-3.5066,-3.5238,-3.5407,-3.5528,-3.5697,-3.5808,-3.5777,-3.5839,-3.5801,-3.567,-3.562,-3.5582,-3.5516,-3.5451,-3.5378,-3.5266,-3.5232,-3.5152,-3.5034,-3.4963,-3.4851,-3.4634,-3.4435,-3.4279,-3.4136,-3.3802,-3.3515,-3.3375,-3.3194,-3.3082,-3.2996,-3.2965,-3.2916,-3.2947,-3.2934,-3.2996,-3.2934,-3.284,-3.2727,-3.2745,-3.2727,-3.2663,-3.2648,-3.2681,-3.24,-3.2022,-3.1673,-3.1081,-3.0189,-2.9369,-2.8892,-2.8292,-2.7851,-2.7412,-2.6908,-2.6571,-2.6468,-2.6364,-2.6258,-2.6258,-2.3764,-2.3626,-2.3764,-2.3727,-2.3691,-2.3705,-2.4077,-2.4483,-2.4577,-2.4885,-2.5317,-2.5388,-2.5413,-2.5554,-2.5596,-2.568,-2.5898,-2.614,-2.6313,-2.6381,-2.6657,-2.7056,-2.7415,-2.745,-2.8008,-2.8793,-2.9556,-2.9966,-3.0129,-3.0179,-3.0363,-3.0254,-3.0141,-3.0119,-3.0113,-3.0091,-3.0041,-2.9794,-2.9929,-3.0029,-3.0018,-3.011,-3.0136,-3.0336,-3.074,-3.0903,-3.0842,-3.1019,-3.1359,-3.174,-3.1864,-3.2294,-3.2925,-3.3776,-3.424,-3.4517,-3.4831,-3.5062,-3.5229,-3.5485,-3.5663,-3.5738,-3.5756,-3.5767,-3.5717,-3.5717,-3.5688,-3.5728,-3.571,-3.5639,-3.5562,-3.5514,-3.5457,-3.5345,-3.5292,-3.5247,-3.5069,-3.4908,-3.4734,-3.4576,-3.4259,-3.3975,-3.385,-3.3729,-3.3597,-3.3534,-3.3524,-3.357,-3.3658,-3.3606,-3.3561,-3.3431,-3.3288,-3.3183,-3.3123,-3.3135,-3.3135,-3.3076,-3.3064,-3.2929,-3.266,-3.2553,-3.2001,-3.1254,-3.057,-3.0027,-2.9374,-2.8668,-2.7956,-2.7521,-2.7062,-2.6622,-2.6555,-2.6538,-2.6417,-2.3371,-2.3411,-2.3728,-2.3769,-2.3628,-2.3451,-2.3474,-2.3672,-2.3891,-2.412,-2.4319,-2.4385,-2.4443,-2.4443,-2.4443,-2.4443,-2.45,-2.4614,-2.4741,-2.4854,-2.5022,-2.5384,-2.5805,-2.5859,-2.615,-2.6659,-2.727,-2.8088,-2.8817,-2.8925,-2.9021,-2.9249,-2.9088,-2.898,-2.898,-2.8949,-2.8654,-2.8466,-2.842,-2.8545,-2.8639,-2.8732,-2.8917,-2.9007,-2.923,-2.9463,-2.967,-2.9713,-3.0112,-3.059,-3.083,-3.124,-3.1829,-3.2456,-3.3219,-3.3755,-3.43,-3.466,-3.4863,-3.511,-3.528,-3.5465,-3.5568,-3.5626,-3.5654,-3.5675,-3.5721,-3.5728,-3.5729,-3.5671,-3.5611,-3.5621,-3.5566,-3.5519,-3.55,-3.5463,-3.5418,-3.5316,-3.5155,-3.4952,-3.4603,-3.4355,-3.4274,-3.4144,-3.4059,-3.403,-3.4091,-3.4172,-3.4311,-3.4222,-3.4125,-3.4073,-3.3938,-3.3857,-3.3762,-3.3729,-3.3692,-3.364,-3.3542,-3.3405,-3.3348,-3.3263,-3.3028,-3.2514,-3.1911,-3.1322,-3.0679,-3.0022,-2.9093,-2.822,-2.791,-2.7616,-2.711,-2.6808,-2.6741,-2.2855,-2.3135,-2.3559,-2.3695,-2.3658,-2.345,-2.3144,-2.2975,-2.3217,-2.3195,-2.3088,-2.3075,-2.3075,-2.3075,-2.3075,-2.3075,-2.3148,-2.3195,-2.3255,-2.3374,-2.3669,-2.3878,-2.3768,-2.4058,-2.4319,-2.4745,-2.4857,-2.572,-2.7115,-2.7426,-2.7705,-2.7692,-2.761,-2.756,-2.7415,-2.7415,-2.6968,-2.6843,-2.6762,-2.6935,-2.7092,-2.7445,-2.7633,-2.7633,-2.7697,-2.8038,-2.8167,-2.8372,-2.884,-2.9326,-2.9751,-3.0044,-3.0556,-3.107,-3.1812,-3.2742,-3.3515,-3.4024,-3.4336,-3.4529,-3.4723,-3.5002,-3.5276,-3.5361,-3.5427,-3.5475,-3.5597,-3.5563,-3.5622,-3.563,-3.5636,-3.5626,-3.5597,-3.5554,-3.5554,-3.5568,-3.5532,-3.5476,-3.5484,-3.5245,-3.4926,-3.4808,-3.4791,-3.4793,-3.4754,-3.466,-3.4717,-3.4735,-3.4823,-3.4736,-3.468,-3.468,-3.4621,-3.4578,-3.4494,-3.4386,-3.437,-3.4274,-3.4153,-3.4006,-3.4011,-3.3998,-3.3721,-3.3495,-3.3286,-3.2672,-3.205,-3.1386,-3.057,-2.9792,-2.9185,-2.8601,-2.8119,-2.7579,-2.7282,-2.0846,-2.1428,-2.1479,-2.1827,-2.2407,-2.2371,-2.2359,-2.2273,-2.2285,-2.1975,-2.1553,-2.1428,-2.1491,-2.1491,-2.1491,-2.1428,-2.1553,-2.1854,-2.2027,-2.2151,-2.2761,-2.2664,-2.2116,-2.2578,-2.2687,-2.2855,-2.2867,-2.3949,-2.5033,-2.5417,-2.5526,-2.5518,-2.5644,-2.5588,-2.56,-2.5776,-2.5576,-2.548,-2.5521,-2.5577,-2.5633,-2.5974,-2.5955,-2.5994,-2.6328,-2.6657,-2.6576,-2.6784,-2.736,-2.8148,-2.8355,-2.8654,-2.9217,-3.0002,-3.0344,-3.1006,-3.183,-3.301,-3.346,-3.379,-3.4098,-3.4468,-3.4755,-3.4852,-3.4995,-3.5233,-3.5403,-3.5427,-3.5548,-3.563,-3.5589,-3.5654,-3.5601,-3.5586,-3.5576,-3.5511,-3.5444,-3.5626,-3.5638,-3.5606,-3.5311,-3.5356,-3.5392,-3.5434,-3.5469,-3.5367,-3.5316,-3.5309,-3.5284,-3.5166,-3.5085,-3.5078,-3.5085,-3.504,-3.499,-3.494,-3.4904,-3.4864,-3.4775,-3.462,-3.4582,-3.4564,-3.4523,-3.4298,-3.4147,-3.387,-3.3201,-3.2529,-3.1964,-3.1209,-3.0376,-2.9717,-2.9177,-2.8546,-2.7759,-1.8726,-2.0549,-2.056,-2.1168,-2.2016,-2.1389,-2.1008,-2.1019,-2.1019,-2.0816,-2.0549,-2.0549,-2.0549,-2.0409,-2.0549,-2.0549,-2.0613,-2.0719,-2.0835,-2.076,-2.1181,-2.1095,-2.0715,-2.0715,-2.0853,-2.083,-2.0894,-2.1019,-2.2194,-2.3179,-2.3633,-2.3916,-2.3855,-2.4033,-2.3974,-2.4363,-2.4403,-2.4385,-2.4368,-2.4305,-2.4358,-2.4478,-2.457,-2.4385,-2.4784,-2.5009,-2.5162,-2.5273,-2.5739,-2.639,-2.6428,-2.6615,-2.713,-2.7725,-2.8092,-2.8726,-2.9464,-3.0891,-3.2594,-3.3085,-3.3451,-3.3852,-3.4162,-3.4406,-3.4585,-3.4861,-3.5124,-3.5172,-3.5256,-3.532,-3.5399,-3.5513,-3.5519,-3.5522,-3.5532,-3.5552,-3.5525,-3.5669,-3.5752,-3.574,-3.5695,-3.5611,-3.5557,-3.5485,-3.5469,-3.5519,-3.5465,-3.5465,-3.5491,-3.5476,-3.5433,-3.5384,-3.5411,-3.5425,-3.5387,-3.5334,-3.5315,-3.5295,-3.5282,-3.5181,-3.5108,-3.5057,-3.4986,-3.4956,-3.4831,-3.4504,-3.4124,-3.369,-3.3148,-3.2318,-3.1469,-3.0732,-2.9906,-2.8649,-2.8,-1.6817,-1.9013,-1.9201,-2.003,-2.0983,-1.9965,-1.9357,-1.9162,-1.9433,-1.9399,-1.9267,-1.9201,-1.9135,-1.9069,-1.9058,-1.9125,-1.9201,-1.9267,-1.9201,-1.9191,-1.917,-1.8951,-1.8609,-1.8552,-1.8685,-1.8696,-1.8951,-1.9055,-1.9394,-2.0364,-2.151,-2.2262,-2.1893,-2.2009,-2.2433,-2.2577,-2.2481,-2.2408,-2.2482,-2.2494,-2.2628,-2.3015,-2.3075,-2.3135,-2.3374,-2.3728,-2.3981,-2.4213,-2.4543,-2.4829,-2.4857,-2.5067,-2.538,-2.5863,-2.6255,-2.6804,-2.7436,-2.8693,-3.0437,-3.1497,-3.232,-3.2829,-3.3276,-3.3493,-3.3759,-3.4195,-3.464,-3.4699,-3.471,-3.4818,-3.5039,-3.5253,-3.5262,-3.533,-3.5453,-3.5535,-3.5549,-3.5381,-3.535,-3.5344,-3.5324,-3.5466,-3.5405,-3.5347,-3.5407,-3.5576,-3.562,-3.56,-3.5603,-3.5622,-3.5644,-3.5574,-3.5573,-3.5582,-3.5563,-3.5592,-3.5602,-3.5602,-3.5621,-3.5581,-3.5415,-3.5386,-3.5348,-3.5347,-3.5331,-3.5264,-3.492,-3.4642,-3.4308,-3.3515,-3.2655,-3.1525,-3.049,-2.9194,-2.8362,-1.5226,-1.6079,-1.6738,-1.7465,-1.8238,-1.8051,-1.7456,-1.6929,-1.7629,-1.7658,-1.7288,-1.7073,-1.6738,-1.6401,-1.6711,-1.6986,-1.6995,-1.7005,-1.6986,-1.7104,-1.7222,-1.6899,-1.6573,-1.6504,-1.6555,-1.6693,-1.7055,-1.7173,-1.7243,-1.7979,-1.8823,-1.9241,-1.9737,-1.9544,-1.9911,-2.0448,-2.0512,-2.0482,-2.0546,-2.0482,-2.0737,-2.1192,-2.1717,-2.1741,-2.2652,-2.3399,-2.3005,-2.3135,-2.3323,-2.3599,-2.341,-2.341,-2.3451,-2.4015,-2.4415,-2.486,-2.5528,-2.6659,-2.7953,-2.9367,-3.0251,-3.0993,-3.1725,-3.2246,-3.2429,-3.2995,-3.3505,-3.3931,-3.3883,-3.4164,-3.4526,-3.4887,-3.4672,-3.4594,-3.4557,-3.46,-3.4616,-3.4672,-3.4647,-3.4831,-3.4803,-3.4669,-3.4635,-3.4424,-3.5027,-3.5235,-3.5447,-3.5454,-3.5539,-3.5572,-3.5683,-3.5682,-3.5675,-3.5676,-3.5655,-3.5638,-3.5591,-3.5585,-3.5599,-3.5599,-3.5566,-3.556,-3.5471,-3.5524,-3.5465,-3.5602,-3.5669,-3.5191,-3.4805,-3.4566,-3.3778,-3.2366,-3.1125,-2.9899,-2.9237,-1.2903,-1.3548,-1.3917,-1.4844,-1.6154,-1.6408,-1.6104,-1.5739,-1.6191,-1.6401,-1.607,-1.5632,-1.5184,-1.4814,-1.4435,-1.4411,-1.4403,-1.4877,-1.4947,-1.5176,-1.5387,-1.5421,-1.5163,-1.4934,-1.5271,-1.5192,-1.5483,-1.5632,-1.5528,-1.5991,-1.5992,-1.656,-1.7653,-1.863,-1.8952,-1.9003,-1.9267,-1.9323,-1.9454,-1.9596,-1.9727,-1.9987,-2.0311,-2.0311,-2.0504,-2.0991,-2.0812,-2.0928,-2.1083,-2.1197,-2.1135,-2.1249,-2.1424,-2.1872,-2.2347,-2.2887,-2.3638,-2.4482,-2.5703,-2.7327,-2.8958,-2.9872,-3.0454,-3.0717,-3.0865,-3.1742,-3.2249,-3.2599,-3.2829,-3.3102,-3.3259,-3.346,-3.3493,-3.3425,-3.3414,-3.3486,-3.3506,-3.3508,-3.3437,-3.3399,-3.3388,-3.3338,-3.3351,-3.3351,-3.4147,-3.4891,-3.5118,-3.5282,-3.5282,-3.5394,-3.5483,-3.5524,-3.549,-3.5529,-3.5523,-3.5527,-3.5523,-3.554,-3.5537,-3.5511,-3.5483,-3.5451,-3.5389,-3.5466,-3.5534,-3.5554,-3.5533,-3.5469,-3.5229,-3.4897,-3.4036,-3.2845,-3.1692,-3.0613,-2.9988,-1.1168,-1.1883,-1.1916,-1.291,-1.4443,-1.4863,-1.472,-1.4324,-1.4498,-1.4514,-1.4299,-1.37,-1.3389,-1.3006,-1.2635,-1.2271,-1.2344,-1.2649,-1.2809,-1.2954,-1.3186,-1.3426,-1.3353,-1.3201,-1.2896,-1.3273,-1.3491,-1.3476,-1.3498,-1.3988,-1.4204,-1.4681,-1.5732,-1.6921,-1.7413,-1.791,-1.8103,-1.8026,-1.8103,-1.8315,-1.8325,-1.8716,-1.9069,-1.9201,-1.9596,-1.9781,-1.9781,-1.9912,-1.9716,-1.9596,-1.9475,-1.9354,-1.9475,-1.9792,-2.0246,-2.0939,-2.1682,-2.2457,-2.3696,-2.5565,-2.7188,-2.7542,-2.8122,-2.8408,-2.9,-2.984,-3.0337,-3.0742,-3.1265,-3.1672,-3.169,-3.2083,-3.2099,-3.1991,-3.2023,-3.2056,-3.2031,-3.2032,-3.1948,-3.1882,-3.1991,-3.2211,-3.2101,-3.217,-3.2627,-3.3684,-3.4725,-3.4764,-3.4557,-3.4769,-3.5109,-3.516,-3.5183,-3.5253,-3.5327,-3.5208,-3.5139,-3.5315,-3.5329,-3.5326,-3.5282,-3.511,-3.514,-3.5308,-3.5366,-3.5441,-3.5398,-3.5276,-3.5262,-3.5205,-3.4222,-3.3216,-3.2524,-3.1506,-3.0583,-1.0363,-1.1111,-1.1105,-1.1977,-1.3186,-1.347,-1.3105,-1.2572,-1.2505,-1.2211,-1.1687,-1.1236,-1.1075,-1.0995,-1.0765,-1.0467,-1.0467,-1.0622,-1.0703,-1.0703,-1.0995,-1.0559,-1.0484,-1.0628,-1.0995,-1.0404,-1.0989,-1.1588,-1.1397,-1.2462,-1.2687,-1.2792,-1.3631,-1.4768,-1.4752,-1.4744,-1.4816,-1.4816,-1.5242,-1.5799,-1.6358,-1.7014,-1.7503,-1.7988,-1.8382,-1.8506,-1.8726,-1.8726,-1.867,-1.87,-1.8489,-1.8499,-1.8721,-1.8757,-1.9079,-1.9541,-2.0171,-2.0685,-2.1295,-2.3509,-2.4415,-2.4833,-2.5593,-2.5707,-2.575,-2.6653,-2.7829,-2.8023,-2.886,-2.9725,-3.0241,-3.0391,-3.0062,-2.9844,-2.9738,-2.9794,-2.9638,-2.9576,-2.9284,-2.9138,-3.0328,-3.1239,-3.1039,-3.0979,-3.1235,-3.2231,-3.3824,-3.4165,-3.3661,-3.3743,-3.3994,-3.4017,-3.398,-3.3999,-3.4033,-3.458,-3.4762,-3.4962,-3.4743,-3.4327,-3.4154,-3.3878,-3.4141,-3.4719,-3.4623,-3.4159,-3.4604,-3.5076,-3.5145,-3.5126,-3.4501,-3.3672,-3.3063,-3.2463,-3.1615,-0.9155,-0.9382,-0.9906,-1.034,-1.0777,-1.162,-1.1706,-1.1564,-1.149,-1.1335,-1.0962,-1.0346,-0.989,-0.9669,-0.9069,-0.877,-0.8689,-0.9221,-0.9221,-0.9296,-0.9669,-0.9965,-0.989,-0.9739,-0.9814,-0.9965,-1.0185,-1.0179,-1.0346,-1.1052,-1.0991,-1.1007,-1.1596,-1.268,-1.4027,-1.4601,-1.4601,-1.4681,-1.4744,-1.4887,-1.5029,-1.5367,-1.5711,-1.607,-1.6392,-1.6738,-1.717,-1.7239,-1.7326,-1.7482,-1.7335,-1.7198,-1.7354,-1.7335,-1.7248,-1.8075,-1.8859,-1.8552,-1.894,-2.0123,-2.1381,-2.2406,-2.3178,-2.3367,-2.3839,-2.4144,-2.4653,-2.497,-2.564,-2.5985,-2.5604,-2.5883,-2.5748,-2.5734,-2.5741,-2.6023,-2.6046,-2.6025,-2.5908,-2.5828,-2.653,-2.6928,-2.6962,-2.7643,-2.8158,-2.8796,-3.0108,-3.1684,-3.1717,-3.2009,-3.2294,-3.2319,-3.2318,-3.2397,-3.2566,-3.2779,-3.3013,-3.3071,-3.2771,-3.2342,-3.2255,-3.2362,-3.195,-3.1894,-3.2369,-3.2815,-3.3018,-3.3455,-3.4737,-3.4959,-3.4183,-3.3989,-3.3761,-3.3346,-3.2837,-0.8556,-0.8479,-0.8851,-0.8841,-0.8765,-1.0201,-1.0801,-1.0582,-1.0282,-1.0212,-0.9981,-0.9301,-0.8927,-0.8551,-0.8097,-0.7642,-0.7561,-0.8016,-0.8322,-0.8318,-0.877,-0.8917,-0.8988,-0.9064,-0.8841,-0.9069,-0.914,-0.914,-0.9448,-0.9466,-0.9723,-0.9938,-0.9695,-1.0864,-1.2245,-1.2684,-1.2684,-1.2691,-1.2771,-1.3361,-1.373,-1.4091,-1.4458,-1.4673,-1.4879,-1.4958,-1.5251,-1.5471,-1.5613,-1.5824,-1.5824,-1.5745,-1.5824,-1.5824,-1.5737,-1.6627,-1.7014,-1.6849,-1.7319,-1.7445,-1.8816,-2.0079,-2.0665,-2.1128,-2.1578,-2.1922,-2.2042,-2.2169,-2.2305,-2.243,-2.245,-2.2604,-2.2571,-2.2576,-2.2731,-2.3039,-2.3097,-2.3141,-2.3186,-2.3032,-2.3065,-2.3135,-2.3334,-2.383,-2.4626,-2.5371,-2.6234,-2.7765,-2.9279,-2.9682,-2.9899,-2.9945,-3.0002,-2.9986,-3.0173,-3.0594,-3.0845,-3.1117,-3.0795,-3.0351,-3.059,-3.068,-2.9851,-2.924,-2.9938,-3.0549,-3.0921,-3.158,-3.2509,-3.333,-3.3589,-3.3671,-3.4198,-3.4042,-3.3644,-0.8322,-0.825,-0.8102,-0.7557,-0.7318,-0.9125,-0.9814,-0.9448,-0.8618,-0.8394,-0.8403,-0.8021,-0.7795,-0.7799,-0.7484,-0.7249,-0.7169,-0.7322,-0.7246,-0.7326,-0.7395,-0.7395,-0.7399,-0.7399,-0.7548,-0.7553,-0.7629,-0.8084,-0.8546,-0.8618,-0.9057,-0.9321,-0.8875,-0.9448,-0.9954,-1.0173,-1.0398,-1.0858,-1.131,-1.1749,-1.2191,-1.2778,-1.3142,-1.3426,-1.3795,-1.4011,-1.4307,-1.453,-1.4673,-1.4752,-1.4681,-1.4752,-1.4824,-1.4832,-1.4832,-1.4958,-1.528,-1.5607,-1.587,-1.5939,-1.607,-1.7039,-1.7649,-1.8123,-1.8762,-1.9414,-1.948,-1.9746,-1.9965,-2.0341,-2.0529,-2.0466,-2.0404,-2.0427,-2.0438,-2.0574,-2.0563,-2.0614,-2.0653,-2.0703,-2.088,-2.0991,-2.1282,-2.1596,-2.1416,-2.1726,-2.2412,-2.292,-2.4543,-2.6474,-2.6697,-2.701,-2.7118,-2.7314,-2.758,-2.7739,-2.7965,-2.8035,-2.8556,-2.8382,-2.8737,-2.8287,-2.702,-2.6518,-2.7546,-2.841,-2.9371,-2.9694,-2.9881,-3.0729,-3.1783,-3.341,-3.3945,-3.4413,-3.4163,-0.6623,-0.6234,-0.6157,-0.5928,-0.5699,-0.6454,-0.7073,-0.7544,-0.6769,-0.7003,-0.8102,-0.6626,-0.6788,-0.7727,-0.6398,-0.6086,-0.6005,-0.5928,-0.5777,-0.5777,-0.6012,-0.578,-0.578,-0.5935,-0.6086,-0.6395,-0.6703,-0.6938,-0.7629,-0.7804,-0.7804,-0.8034,-0.7944,-0.8084,-0.8237,-0.8237,-0.8917,-0.9593,-1.0051,-1.0346,-1.064,-1.1081,-1.144,-1.1662,-1.2191,-1.2485,-1.3004,-1.344,-1.3738,-1.4386,-1.4034,-1.4034,-1.4609,-1.3745,-1.3164,-1.3818,-1.4019,-1.4155,-1.4219,-1.4291,-1.4212,-1.4188,-1.4759,-1.5615,-1.6244,-1.6702,-1.6793,-1.706,-1.709,-1.7168,-1.7293,-1.7312,-1.7408,-1.7552,-1.7772,-1.8191,-1.8181,-1.8105,-1.8151,-1.8075,-1.8258,-1.8445,-1.8791,-1.8616,-1.8465,-1.8405,-1.8592,-1.9062,-2.0081,-2.2133,-2.3402,-2.3676,-2.369,-2.3743,-2.415,-2.4367,-2.4638,-2.4989,-2.5661,-2.5843,-2.5213,-2.4553,-2.3641,-2.3774,-2.4751,-2.6535,-2.8388,-2.8262,-2.7534,-2.8716,-2.9904,-3.1996,-3.3652,-3.392,-3.4426,-0.5616,-0.5303,-0.5231,-0.4924,-0.4533,-0.4297,-0.4766,-0.5538,-0.5535,-0.6157,-0.6777,-0.577,-0.5857,-0.6644,-0.5705,-0.5154,-0.5146,-0.5231,-0.516,-0.516,-0.4849,-0.5082,-0.5004,-0.4927,-0.5312,-0.5622,-0.5777,-0.6009,-0.6472,-0.6546,-0.6542,-0.7,-0.7,-0.7238,-0.7476,-0.7706,-0.8084,-0.8689,-0.914,-0.9367,-0.9518,-0.9669,-0.989,-0.989,-1.0426,-1.1019,-1.1613,-1.2198,-1.2631,-1.3295,-1.2792,-1.2418,-1.2844,-1.2057,-1.1465,-1.197,-1.1964,-1.1964,-1.2031,-1.2037,-1.2044,-1.1964,-1.2031,-1.2444,-1.323,-1.3705,-1.3848,-1.3897,-1.372,-1.3598,-1.3757,-1.3917,-1.4212,-1.4498,-1.5147,-1.5799,-1.5799,-1.5649,-1.5587,-1.5446,-1.557,-1.5703,-1.5781,-1.5596,-1.572,-1.6139,-1.6078,-1.5809,-1.685,-1.8513,-1.9654,-2.024,-2.0093,-2.0008,-2.0546,-2.1263,-2.1813,-2.2405,-2.3314,-2.3186,-2.208,-2.1886,-2.1862,-2.1849,-2.1946,-2.3712,-2.545,-2.5438,-2.5228,-2.6514,-2.7794,-2.9384,-3.1283,-3.2785,-3.3436,-0.5074,-0.4996,-0.4921,-0.43,-0.3677,-0.2978,-0.3054,-0.3752,-0.4608,-0.5151,-0.5231,-0.4924,-0.5007,-0.5473,-0.4768,-0.4295,-0.4215,-0.4297,-0.4224,-0.4693,-0.4222,-0.4144,-0.4068,-0.4613,-0.4222,-0.4535,-0.4846,-0.4921,-0.5079,-0.5386,-0.5764,-0.6056,-0.6136,-0.6381,-0.6784,-0.6861,-0.7088,-0.7476,-0.8008,-0.8389,-0.877,-0.9221,-0.9744,-0.9593,-0.982,-1.0126,-1.0501,-1.0645,-1.0571,-1.1093,-1.1168,-1.0571,-1.0645,-1.0645,-1.0271,-1.019,-1.0404,-1.0421,-1.0421,-1.0496,-1.0265,-0.9965,-0.9588,-0.9948,-1.0593,-1.1544,-1.1838,-1.1985,-1.1998,-1.1844,-1.1918,-1.2211,-1.2437,-1.2517,-1.2954,-1.3237,-1.3237,-1.3245,-1.3331,-1.3273,-1.3418,-1.3563,-1.3578,-1.3578,-1.3579,-1.4088,-1.385,-1.3191,-1.3665,-1.5122,-1.6218,-1.6977,-1.7167,-1.7283,-1.7856,-1.8572,-1.9115,-1.9913,-2.0551,-2.0546,-1.9404,-1.9738,-2.052,-2.0475,-2.0504,-2.0733,-2.1699,-2.2377,-2.3446,-2.4475,-2.5704,-2.6764,-2.8481,-3.0548,-3.2292,-0.3448,-0.3132,-0.3134,-0.2978,-0.2823,-0.2588,-0.2588,-0.2821,-0.3056,-0.3912,-0.4691,-0.3834,-0.3679,-0.4375,-0.3679,-0.3207,-0.3124,-0.3285,-0.2818,-0.2818,-0.2738,-0.2818,-0.1959,-0.2349,-0.2506,-0.3052,-0.3441,-0.3908,-0.4455,-0.4768,-0.501,-0.5251,-0.524,-0.5464,-0.5777,-0.5777,-0.5931,-0.6479,-0.6703,-0.7242,-0.7783,-0.7859,-0.8084,-0.8313,-0.8618,-0.9074,-0.9448,-0.9825,-0.997,-1.0265,-1.0115,-1.0045,-1.0121,-0.997,-0.9793,-0.9697,-0.9578,-0.9528,-0.9382,-0.9296,-0.921,-0.9064,-0.8836,-0.8533,-0.8827,-0.9788,-1.0301,-1.037,-1.037,-1.014,-1.014,-1.0358,-1.0656,-1.0662,-1.0891,-1.0891,-1.0891,-1.0983,-1.1143,-1.1304,-1.1378,-1.149,-1.1589,-1.1577,-1.1608,-1.1502,-1.1253,-1.0952,-1.0941,-1.1884,-1.3345,-1.4152,-1.4616,-1.4903,-1.5339,-1.5748,-1.6278,-1.6287,-1.6677,-1.6683,-1.662,-1.6915,-1.735,-1.8731,-1.9344,-1.9246,-1.9749,-2.1129,-2.2104,-2.307,-2.3794,-2.497,-2.6115,-2.7978,-3.0105,-0.2431,-0.251,-0.251,-0.251,-0.251,-0.251,-0.251,-0.251,-0.251,-0.2979,-0.3756,-0.2979,-0.2899,-0.3439,-0.2743,-0.2508,-0.2503,-0.2508,-0.2508,-0.2195,-0.1803,-0.1724,-0.1256,-0.0942,-0.1255,-0.1881,-0.2193,-0.2738,-0.3363,-0.3677,-0.3761,-0.416,-0.4229,-0.4307,-0.4616,-0.4766,-0.4999,-0.578,-0.5619,-0.6009,-0.6784,-0.7096,-0.748,-0.771,-0.7863,-0.8318,-0.8623,-0.8998,-0.9221,-0.9518,-0.9593,-0.8917,-0.877,-0.8542,-0.8528,-0.8438,-0.8447,-0.8623,-0.8394,-0.8232,-0.7986,-0.7685,-0.6992,-0.615,-0.5996,-0.6816,-0.7516,-0.7668,-0.7901,-0.7825,-0.8045,-0.8268,-0.8713,-0.8939,-0.9616,-1.0066,-1.0056,-1.0041,-1.0155,-1.0286,-1.0352,-1.0412,-1.0512,-1.0523,-1.0437,-1.0347,-0.9862,-0.9585,-0.9388,-0.8838,-1.0223,-1.117,-1.1614,-1.2065,-1.2383,-1.2811,-1.3301,-1.3194,-1.3136,-1.3272,-1.3491,-1.36,-1.4128,-1.547,-1.6611,-1.733,-1.7984,-1.9359,-2.0899,-2.2067,-2.2613,-2.3183,-2.4436,-2.5835,-2.8208,-0.1798,-0.2352,-0.2431,-0.251,-0.251,-0.251,-0.251,-0.251,-0.251,-0.251,-0.2666,-0.2588,-0.251,-0.251,-0.251,-0.251,-0.251,-0.251,-0.2431,-0.2273,-0.2273,-0.1647,-0.1412,-0.1333,-0.1098,-0.0941,-0.1175,-0.1175,-0.1252,-0.1644,-0.2115,-0.2738,-0.2976,-0.3061,-0.3832,-0.4062,-0.3982,-0.4608,-0.4766,-0.4999,-0.5777,-0.663,-0.6938,-0.7173,-0.7407,-0.7783,-0.8012,-0.8241,-0.8466,-0.8304,-0.83,-0.777,-0.7242,-0.7011,-0.6689,-0.6681,-0.6685,-0.6696,-0.6546,-0.6153,-0.5767,-0.5226,-0.4377,-0.4146,-0.4068,-0.4462,-0.5165,-0.5401,-0.5634,-0.6099,-0.6325,-0.6546,-0.7,-0.7314,-0.8223,-0.8998,-0.9009,-0.8874,-0.8866,-0.9001,-0.9105,-0.9166,-0.9104,-0.9199,-0.9145,-0.905,-0.8905,-0.875,-0.8423,-0.7495,-0.7682,-0.8129,-0.8321,-0.8763,-0.9732,-1.0288,-1.0962,-1.0707,-1.0689,-1.0495,-1.0607,-1.129,-1.1807,-1.2005,-1.3142,-1.4511,-1.5938,-1.7312,-1.8968,-2.0426,-2.1954,-2.2591,-2.328,-2.4843,-2.6919,-0.1234,-0.1803,-0.2273,-0.251,-0.251,-0.251,-0.251,-0.251,-0.2431,-0.251,-0.2431,-0.2431,-0.251,-0.251,-0.251,-0.2431,-0.2353,-0.2353,-0.2038,-0.1803,-0.1803,-0.1333,-0.0863,-0.0549,-0.0471,-0.0314,-0.0157,-0.0078,-0.0078,-0.0078,-0.0078,-0.0391,-0.0313,-0.0627,-0.1253,-0.1642,-0.2188,-0.3049,-0.3677,-0.3834,-0.4535,-0.5312,-0.5854,-0.6163,-0.6475,-0.7015,-0.7403,-0.7557,-0.7242,-0.6773,-0.623,-0.6002,-0.5851,-0.5541,-0.522,-0.5137,-0.522,-0.5148,-0.4993,-0.4686,-0.4375,-0.43,-0.3837,-0.3765,-0.3847,-0.4012,-0.433,-0.3951,-0.4342,-0.5286,-0.5593,-0.574,-0.6045,-0.5934,-0.6414,-0.7085,-0.7462,-0.7093,-0.6862,-0.7126,-0.7405,-0.7379,-0.7231,-0.7279,-0.7366,-0.73,-0.7028,-0.6943,-0.6865,-0.6081,-0.5381,-0.5566,-0.5729,-0.7006,-0.8488,-0.8476,-0.8822,-0.8565,-0.8245,-0.8054,-0.8412,-0.9548,-0.9988,-0.967,-1.0698,-1.215,-1.3633,-1.4977,-1.6365,-1.8009,-2.0785,-2.2262,-2.2712,-2.3923,-2.6076]}]]